[[{"header":{"parameterUnit":"m.s-1","parameterCategory":1,"la1":30.6,"la2":29.2853,"lo1":-89.7004,"lo2":-87.6739,"dy":0.0162,"dx":0.0183,"nx":112,"ny":82,"refTime":"2026-05-17T00:00:00:Z","depth":0,"parameterNumber":2,"parameterNumberName":"U-component_of_WINDS"},"data":[0.0,0.0,0.0,0.0,0.0,0.0,0.0,0.0,0.0,0.0,0.0,0.0,0.0,0.0,0.0,0.0,0.0,0.0,0.0,0.0,0.0,0.0,0.0,0.0,0.0,0.0,0.0,0.0,0.0,0.0,0.0,0.0,0.0,0.0,0.0,0.0,0.0,0.0,0.0,0.0,0.0,0.0,0.0,0.0,0.0,0.0,0.0,0.0,0.0,0.0,0.0,0.0,0.0,0.0,0.0,0.0,0.0,0.0,0.0,0.0,0.0,0.0,0.0,0.0,0.0,0.0,0.0,0.0,0.0,0.0,0.0,0.0,0.0,0.0,0.0,0.0,0.0,0.0,0.0,0.0,0.0,0.0,0.0,0.0,0.0,0.0,0.0,0.0,0.0,0.0,-3.3319,-3.6797,-4.0034,-4.0941,-3.8437,-3.7007,-3.3885,-2.8402,0.0,0.0,0.0,0.0,0.0,0.0,0.0,0.0,0.0,0.0,0.0,0.0,0.0,0.0,0.0,0.0,0.0,0.0,0.0,0.0,0.0,0.0,0.0,0.0,0.0,0.0,0.0,0.0,0.0,0.0,0.0,0.0,0.0,0.0,0.0,0.0,0.0,0.0,0.0,0.0,0.0,0.0,0.0,0.0,0.0,0.0,0.0,0.0,0.0,0.0,0.0,0.0,0.0,0.0,0.0,0.0,0.0,0.0,0.0,0.0,0.0,0.0,0.0,0.0,0.0,0.0,0.0,0.0,0.0,0.0,0.0,0.0,0.0,0.0,0.0,0.0,0.0,0.0,0.0,0.0,0.0,0.0,0.0,0.0,0.0,0.0,0.0,0.0,0.0,0.0,0.0,0.0,0.0,0.0,0.0,0.0,0.0,0.0,0.0,0.0,0.0,0.0,0.0,0.0,-3.4092,-3.956,-4.086,-4.0278,-3.7597,-3.6738,-3.3935,-2.8223,0.0,0.0,0.0,0.0,0.0,0.0,0.0,0.0,0.0,0.0,0.0,0.0,0.0,0.0,0.0,0.0,0.0,0.0,0.0,0.0,0.0,0.0,0.0,0.0,0.0,0.0,0.0,0.0,0.0,0.0,0.0,0.0,0.0,0.0,0.0,0.0,0.0,0.0,0.0,0.0,0.0,0.0,0.0,0.0,0.0,0.0,0.0,0.0,0.0,0.0,0.0,0.0,0.0,0.0,0.0,0.0,0.0,0.0,0.0,0.0,0.0,0.0,0.0,0.0,0.0,0.0,0.0,0.0,0.0,0.0,0.0,0.0,0.0,0.0,0.0,0.0,0.0,0.0,0.0,0.0,0.0,0.0,0.0,0.0,0.0,0.0,0.0,0.0,0.0,0.0,0.0,0.0,0.0,0.0,0.0,0.0,0.0,0.0,0.0,0.0,0.0,0.0,0.0,-3.2536,-3.51,-3.9461,-3.9904,-3.9032,-3.6934,-3.6038,-3.3331,-2.813,-2.6047,0.0,0.0,0.0,0.0,0.0,0.0,0.0,0.0,0.0,0.0,0.0,0.0,0.0,0.0,0.0,0.0,0.0,0.0,0.0,0.0,0.0,0.0,0.0,0.0,0.0,0.0,0.0,0.0,0.0,0.0,0.0,0.0,0.0,0.0,0.0,0.0,0.0,0.0,0.0,0.0,0.0,0.0,0.0,0.0,0.0,0.0,0.0,0.0,0.0,0.0,0.0,0.0,0.0,0.0,0.0,0.0,0.0,0.0,0.0,0.0,0.0,0.0,0.0,0.0,0.0,0.0,0.0,0.0,0.0,0.0,0.0,0.0,0.0,0.0,0.0,0.0,0.0,0.0,0.0,0.0,0.0,0.0,0.0,0.0,0.0,0.0,0.0,0.0,0.0,0.0,0.0,0.0,0.0,0.0,0.0,0.0,0.0,0.0,0.0,0.0,0.0,0.0,-3.4957,-3.6195,-3.899,-3.8937,-3.8011,-3.6396,-3.5094,-3.2497,-2.8102,-2.5766,0.0,0.0,0.0,0.0,0.0,0.0,0.0,0.0,0.0,0.0,0.0,0.0,0.0,0.0,0.0,0.0,0.0,0.0,0.0,0.0,0.0,0.0,0.0,0.0,0.0,0.0,0.0,0.0,0.0,0.0,0.0,0.0,0.0,0.0,0.0,0.0,0.0,0.0,0.0,0.0,0.0,0.0,0.0,0.0,0.0,0.0,0.0,0.0,0.0,0.0,0.0,0.0,0.0,0.0,0.0,0.0,0.0,0.0,0.0,0.0,0.0,0.0,0.0,0.0,0.0,0.0,0.0,0.0,0.0,0.0,0.0,0.0,0.0,0.0,0.0,0.0,0.0,0.0,0.0,0.0,0.0,0.0,0.0,0.0,0.0,0.0,0.0,0.0,0.0,0.0,0.0,0.0,0.0,0.0,0.0,0.0,0.0,0.0,0.0,0.0,0.0,0.0,-3.5118,-3.7396,-3.936,-3.8774,-3.7568,-3.5963,-3.4151,-3.1589,-2.8046,-2.4924,0.0,0.0,0.0,0.0,0.0,0.0,0.0,0.0,0.0,0.0,0.0,0.0,0.0,0.0,0.0,0.0,0.0,0.0,0.0,0.0,0.0,0.0,0.0,0.0,0.0,0.0,0.0,0.0,0.0,0.0,0.0,0.0,0.0,0.0,0.0,0.0,0.0,0.0,0.0,0.0,0.0,0.0,0.0,0.0,0.0,0.0,0.0,0.0,0.0,0.0,0.0,0.0,0.0,0.0,0.0,0.0,0.0,0.0,0.0,0.0,0.0,0.0,0.0,0.0,0.0,0.0,0.0,0.0,0.0,0.0,0.0,0.0,0.0,0.0,0.0,0.0,0.0,0.0,0.0,0.0,0.0,0.0,0.0,0.0,0.0,0.0,0.0,0.0,0.0,0.0,0.0,0.0,0.0,0.0,0.0,0.0,0.0,0.0,0.0,0.0,0.0,0.0,-3.4307,-3.6775,0.0,-3.8202,-3.7404,-3.6433,-3.4754,-3.206,-2.8044,0.0,0.0,0.0,0.0,0.0,0.0,0.0,0.0,0.0,0.0,0.0,0.0,0.0,0.0,0.0,0.0,0.0,0.0,0.0,0.0,0.0,0.0,0.0,0.0,0.0,0.0,0.0,0.0,0.0,0.0,0.0,0.0,0.0,0.0,0.0,0.0,0.0,0.0,0.0,0.0,0.0,0.0,0.0,0.0,0.0,0.0,0.0,0.0,0.0,0.0,0.0,0.0,0.0,0.0,0.0,0.0,0.0,0.0,0.0,0.0,0.0,0.0,0.0,0.0,0.0,0.0,0.0,0.0,0.0,0.0,0.0,0.0,0.0,0.0,0.0,0.0,0.0,0.0,0.0,0.0,0.0,0.0,0.0,0.0,0.0,0.0,0.0,0.0,0.0,0.0,0.0,0.0,0.0,0.0,0.0,0.0,0.0,0.0,0.0,0.0,0.0,0.0,-3.0573,-3.4047,-3.6722,0.0,-3.7634,-3.7177,-3.6552,-3.4566,-3.178,-2.8044,0.0,0.0,0.0,0.0,0.0,0.0,0.0,0.0,0.0,0.0,0.0,0.0,0.0,0.0,0.0,0.0,0.0,0.0,0.0,0.0,0.0,0.0,0.0,0.0,0.0,0.0,0.0,0.0,0.0,0.0,0.0,0.0,0.0,0.0,0.0,0.0,0.0,0.0,0.0,0.0,0.0,0.0,0.0,0.0,0.0,0.0,0.0,0.0,0.0,0.0,0.0,0.0,0.0,0.0,0.0,0.0,0.0,0.0,0.0,0.0,0.0,0.0,0.0,0.0,0.0,0.0,0.0,0.0,0.0,0.0,0.0,0.0,0.0,0.0,0.0,0.0,0.0,0.0,0.0,0.0,0.0,0.0,0.0,0.0,0.0,0.0,0.0,0.0,0.0,0.0,0.0,0.0,0.0,0.0,0.0,0.0,0.0,0.0,0.0,0.0,0.0,0.0,-3.0393,-3.4657,-3.7558,-3.7586,-3.724,-3.6792,-3.6145,-3.3304,-3.0431,0.0,0.0,0.0,0.0,0.0,0.0,0.0,0.0,0.0,0.0,0.0,0.0,0.0,0.0,0.0,0.0,0.0,0.0,0.0,0.0,0.0,0.0,0.0,0.0,0.0,0.0,0.0,0.0,0.0,0.0,0.0,0.0,0.0,0.0,0.0,0.0,0.0,0.0,0.0,0.0,0.0,0.0,0.0,0.0,0.0,0.0,0.0,0.0,0.0,0.0,0.0,0.0,0.0,0.0,0.0,0.0,0.0,0.0,0.0,0.0,0.0,0.0,0.0,0.0,0.0,0.0,0.0,0.0,0.0,0.0,0.0,0.0,0.0,0.0,0.0,0.0,0.0,0.0,0.0,0.0,0.0,0.0,0.0,0.0,0.0,0.0,0.0,0.0,0.0,0.0,0.0,0.0,0.0,0.0,0.0,0.0,0.0,0.0,0.0,0.0,0.0,0.0,0.0,-3.0378,-3.5176,-3.8331,-3.7879,-3.7704,-3.7203,-3.6202,-3.4056,-3.1063,-2.6993,0.0,0.0,0.0,0.0,0.0,0.0,0.0,0.0,0.0,0.0,0.0,0.0,0.0,0.0,0.0,0.0,0.0,0.0,0.0,0.0,0.0,0.0,0.0,0.0,0.0,0.0,0.0,0.0,0.0,0.0,0.0,0.0,0.0,0.0,0.0,0.0,0.0,0.0,0.0,0.0,0.0,0.0,0.0,0.0,0.0,0.0,0.0,0.0,0.0,0.0,0.0,0.0,0.0,0.0,0.0,0.0,0.0,0.0,0.0,0.0,0.0,0.0,0.0,0.0,0.0,0.0,0.0,0.0,0.0,0.0,0.0,0.0,0.0,0.0,0.0,0.0,0.0,0.0,0.0,0.0,0.0,0.0,0.0,0.0,0.0,0.0,0.0,0.0,0.0,0.0,0.0,0.0,0.0,0.0,0.0,0.0,0.0,0.0,0.0,0.0,0.0,0.0,-3.0371,-3.563,-3.8889,-3.799,-3.7906,-3.7394,-3.6153,-3.4363,-3.1412,-2.6897,0.0,0.0,0.0,0.0,0.0,0.0,0.0,0.0,0.0,0.0,0.0,0.0,0.0,0.0,0.0,0.0,0.0,0.0,0.0,0.0,0.0,0.0,0.0,0.0,0.0,0.0,0.0,0.0,0.0,0.0,0.0,0.0,0.0,0.0,0.0,0.0,0.0,0.0,0.0,0.0,0.0,0.0,0.0,0.0,0.0,0.0,0.0,0.0,0.0,0.0,0.0,0.0,0.0,0.0,0.0,0.0,0.0,0.0,0.0,0.0,0.0,0.0,0.0,0.0,0.0,0.0,0.0,0.0,0.0,0.0,0.0,0.0,0.0,0.0,0.0,0.0,0.0,0.0,0.0,0.0,0.0,0.0,0.0,0.0,0.0,0.0,0.0,0.0,0.0,0.0,0.0,0.0,0.0,0.0,0.0,0.0,0.0,0.0,0.0,0.0,0.0,0.0,-3.0568,-3.5985,-3.9228,-3.8022,-3.783,-3.7242,-3.5924,-3.4219,-3.1468,-2.737,0.0,0.0,0.0,0.0,0.0,0.0,0.0,0.0,0.0,0.0,0.0,0.0,0.0,0.0,0.0,0.0,0.0,0.0,0.0,0.0,0.0,0.0,0.0,0.0,0.0,0.0,0.0,0.0,0.0,0.0,0.0,0.0,0.0,0.0,0.0,0.0,0.0,0.0,0.0,0.0,0.0,0.0,0.0,0.0,0.0,0.0,0.0,0.0,0.0,0.0,0.0,0.0,0.0,0.0,0.0,0.0,0.0,0.0,0.0,0.0,-3.1386,0.0,0.0,0.0,0.0,0.0,0.0,0.0,0.0,0.0,0.0,0.0,0.0,0.0,0.0,0.0,0.0,0.0,0.0,0.0,0.0,0.0,0.0,0.0,0.0,0.0,0.0,0.0,0.0,0.0,0.0,0.0,0.0,0.0,0.0,0.0,0.0,0.0,0.0,0.0,0.0,0.0,-3.1691,-3.6064,-3.8653,-3.7951,-3.7368,-3.6354,-3.4634,-3.3322,-3.108,-2.7464,-2.4488,0.0,0.0,0.0,0.0,0.0,0.0,0.0,0.0,0.0,0.0,0.0,0.0,0.0,0.0,0.0,0.0,0.0,0.0,0.0,0.0,0.0,0.0,0.0,0.0,0.0,0.0,0.0,0.0,0.0,0.0,0.0,0.0,0.0,0.0,0.0,0.0,0.0,0.0,0.0,0.0,0.0,0.0,0.0,0.0,0.0,0.0,0.0,0.0,0.0,0.0,0.0,0.0,0.0,0.0,0.0,0.0,0.0,0.0,0.0,0.0,-3.2968,0.0,0.0,0.0,0.0,0.0,0.0,0.0,0.0,0.0,0.0,0.0,0.0,0.0,0.0,0.0,0.0,0.0,0.0,0.0,0.0,0.0,0.0,0.0,0.0,0.0,0.0,0.0,0.0,0.0,0.0,0.0,0.0,0.0,0.0,0.0,0.0,0.0,0.0,0.0,0.0,-3.0945,-3.5301,-3.7887,-3.7064,-3.6844,-3.5971,-3.3869,-3.3119,-3.1211,-2.754,-2.5148,0.0,0.0,0.0,0.0,0.0,0.0,0.0,0.0,0.0,0.0,0.0,0.0,0.0,0.0,0.0,0.0,0.0,0.0,0.0,0.0,0.0,0.0,0.0,0.0,0.0,0.0,0.0,0.0,0.0,0.0,0.0,0.0,0.0,0.0,0.0,0.0,0.0,0.0,0.0,0.0,0.0,0.0,0.0,0.0,0.0,0.0,0.0,0.0,0.0,0.0,0.0,0.0,0.0,0.0,0.0,-3.8861,-3.8861,-3.9029,-3.9275,-3.7586,-3.6747,-3.6322,0.0,0.0,0.0,0.0,0.0,0.0,0.0,0.0,0.0,0.0,0.0,0.0,0.0,0.0,0.0,0.0,0.0,0.0,0.0,0.0,0.0,0.0,0.0,0.0,0.0,-3.1913,-3.281,0.0,0.0,0.0,0.0,0.0,0.0,0.0,0.0,0.0,0.0,0.0,0.0,-3.013,-3.4498,-3.7113,-3.6077,-3.6188,-3.5424,-3.3343,-3.2993,-3.1405,-2.7932,-2.6088,-2.3979,0.0,0.0,0.0,0.0,0.0,0.0,0.0,0.0,0.0,0.0,0.0,0.0,0.0,0.0,0.0,0.0,0.0,0.0,0.0,0.0,0.0,0.0,0.0,0.0,0.0,0.0,0.0,0.0,0.0,0.0,0.0,0.0,-2.8624,-2.9277,0.0,0.0,0.0,0.0,0.0,0.0,0.0,0.0,0.0,0.0,0.0,0.0,0.0,0.0,-3.7833,-3.9387,-4.0416,-4.0836,-4.2077,-4.2904,-4.3359,-4.3359,-4.3144,-4.276,-4.2447,0.0,-3.6795,-3.6502,0.0,0.0,0.0,0.0,0.0,0.0,0.0,0.0,0.0,0.0,0.0,0.0,0.0,0.0,0.0,0.0,0.0,0.0,0.0,0.0,0.0,0.0,-3.5253,-3.4731,-3.5303,-3.5827,0.0,-3.1336,-2.7494,-2.6197,0.0,0.0,0.0,0.0,0.0,0.0,0.0,0.0,-3.1787,-3.4811,-3.6501,-3.5895,-3.4886,-3.3983,-3.3189,-3.223,-3.1029,-2.9553,-2.748,-2.5661,-2.433,-2.1773,0.0,0.0,0.0,0.0,0.0,0.0,0.0,0.0,0.0,0.0,0.0,0.0,0.0,0.0,0.0,0.0,0.0,0.0,0.0,0.0,0.0,0.0,0.0,0.0,0.0,0.0,0.0,0.0,0.0,-2.8574,-3.0328,-3.0298,-3.0406,-2.989,0.0,0.0,0.0,0.0,0.0,0.0,0.0,0.0,0.0,-3.8329,-3.806,-3.8924,-4.1188,-4.1794,-4.228,-4.2514,-4.3238,-4.3769,-4.398,-4.398,-4.3863,-4.3652,-4.3652,-4.2233,-3.9814,-3.8479,-3.6539,-3.4269,0.0,0.0,0.0,0.0,0.0,0.0,-3.4126,0.0,0.0,0.0,0.0,0.0,0.0,0.0,0.0,0.0,0.0,0.0,0.0,0.0,0.0,-3.5633,-3.667,-3.7561,-3.6606,-3.4494,-3.2139,0.0,-2.8649,-2.6892,-2.4104,0.0,0.0,0.0,0.0,0.0,-3.1731,-3.4254,-3.5785,-3.5271,-3.4401,-3.3545,-3.2667,-3.1838,-3.0809,-2.9402,-2.8398,-2.7218,-2.5812,-2.3979,-2.1945,0.0,0.0,0.0,0.0,0.0,0.0,0.0,0.0,0.0,0.0,0.0,0.0,0.0,0.0,0.0,0.0,0.0,0.0,0.0,0.0,0.0,0.0,0.0,0.0,0.0,0.0,0.0,0.0,-3.0129,-3.1861,-3.1394,-3.2328,-3.2006,0.0,0.0,0.0,0.0,0.0,0.0,-3.6208,-3.652,-3.8058,-4.1141,-4.0741,-4.1484,-4.3595,-4.354,-4.3533,-4.3671,-4.39,-4.4084,-4.4199,-4.4199,-4.413,-4.4015,-4.3854,-4.3257,-4.2172,-4.0187,-3.8428,-3.6859,-3.5315,-3.4387,0.0,-3.4809,-3.5118,-3.5277,-3.7151,-3.7696,-3.7364,-3.6034,0.0,-3.386,-3.1374,0.0,0.0,0.0,0.0,-3.195,-3.3959,0.0,-3.6522,-3.621,-3.7543,-3.8567,-3.731,-3.7059,-3.6279,0.0,-3.239,-3.0658,-2.6967,0.0,0.0,0.0,0.0,-3.1712,-3.1989,-3.4028,-3.5282,-3.4776,-3.4098,-3.3294,-3.229,-3.1587,-3.0658,-2.9389,-2.8913,-2.8222,-2.7178,-2.5661,-2.3929,-2.1856,0.0,0.0,0.0,0.0,0.0,0.0,0.0,0.0,0.0,0.0,0.0,0.0,0.0,0.0,0.0,0.0,0.0,0.0,0.0,0.0,0.0,0.0,0.0,0.0,0.0,0.0,0.0,0.0,0.0,-3.3136,-3.3887,0.0,0.0,0.0,0.0,-3.4221,-3.5388,-3.6911,-3.9005,-3.9615,-4.0586,-4.2195,-4.3096,-4.3877,-4.4564,-4.452,-4.4773,-4.53,-4.4773,-4.4819,-4.5346,-4.5346,-4.5025,-4.4543,-4.4015,-4.3257,-4.2247,-4.1652,-4.0552,-3.9061,-3.8,-3.6943,-3.6092,-3.6684,-3.6603,-3.6386,-3.7445,-3.7458,-3.7206,-3.8079,-3.7045,-3.535,-3.5142,-3.3459,0.0,0.0,-3.378,-3.4231,-3.5831,-3.6726,-3.7267,-3.7733,-3.8388,-3.8894,-3.8818,-3.8793,-3.809,0.0,-3.4098,-3.296,-3.2709,0.0,0.0,-3.1587,-3.2014,-3.2566,-3.3646,-3.4756,-3.5282,-3.4776,-3.3746,-3.2867,-3.2265,-3.126,-3.0608,-3.0532,-2.9026,-2.8348,-2.8737,-2.6392,-2.432,-2.2671,-2.0633,0.0,0.0,0.0,0.0,0.0,0.0,0.0,0.0,0.0,0.0,0.0,0.0,0.0,0.0,0.0,0.0,0.0,0.0,0.0,0.0,0.0,0.0,0.0,0.0,0.0,0.0,0.0,0.0,-3.4736,-3.6483,0.0,-3.5077,-3.5602,-3.6363,-3.706,-3.8353,-3.9636,-4.0736,-4.1591,-4.2408,-4.3257,-4.3969,-4.4405,-4.4612,-4.4933,-4.5025,-4.4887,-4.5025,-4.5186,-4.5438,-4.5438,-4.5323,-4.5048,-4.4543,-4.3923,-4.3234,-4.276,-4.1623,-4.025,-3.9895,-3.9302,-3.8793,-3.9243,-3.9162,-3.8815,-3.9183,-3.9124,-3.8872,-3.8275,-3.7356,-3.6392,-3.6102,-3.5403,-3.4791,-3.5294,-3.5725,-3.6051,-3.6293,-3.7038,-3.7709,-3.7539,-3.7927,-3.8463,-3.8818,-3.8919,-3.8517,-3.7362,-3.6081,-3.4796,-3.3363,-3.3018,-3.2792,-3.229,-3.3401,-3.4455,-3.4856,-3.5604,-3.5855,-3.5257,-3.3947,-3.2993,-3.2792,-3.1436,-3.0457,-3.0105,-2.9528,-2.88,-2.7921,-2.7012,-2.5642,-2.3754,-2.2353,-2.0287,0.0,0.0,0.0,0.0,0.0,0.0,0.0,0.0,0.0,0.0,0.0,0.0,0.0,0.0,0.0,0.0,0.0,0.0,0.0,0.0,0.0,0.0,0.0,0.0,0.0,0.0,-3.6578,-3.6051,-3.8171,-3.8953,-3.6976,-3.7862,-3.878,-3.9308,-4.0571,-4.1558,-4.2063,-4.3051,-4.3739,-4.4061,-4.4589,-4.4864,-4.4864,-4.5186,-4.5186,-4.4864,-4.5209,-4.5438,-4.5438,-4.5438,-4.5278,-4.5071,-4.4566,-4.4038,-4.3533,-4.3028,-4.2247,-4.1306,-4.1145,-4.0869,-4.0655,-4.0755,-4.0594,-4.0295,-4.0172,-4.0126,-3.9919,-3.8688,-3.7953,-3.7494,-3.715,-3.692,-3.6736,-3.6576,-3.6804,-3.6921,-3.6432,-3.712,-3.7849,-3.7278,-3.7886,-3.8633,-3.8839,-3.8893,-3.8693,-3.8115,-3.7262,-3.6179,-3.4519,-3.4474,-3.4474,-3.3721,-3.468,-3.5558,-3.5805,-3.5981,-3.5881,-3.5282,-3.3771,-3.2792,-3.2792,-3.111,-3.0055,-3.008,-2.9352,-2.8411,-2.7176,-2.6567,-2.54,-2.3619,-2.2341,-2.0617,-1.8471,0.0,0.0,0.0,0.0,0.0,0.0,0.0,0.0,0.0,0.0,0.0,0.0,0.0,0.0,0.0,0.0,0.0,0.0,0.0,0.0,0.0,0.0,0.0,-3.3912,-3.6217,-3.7571,-3.715,-3.8918,-3.9643,-3.8091,-3.9367,-4.0387,-4.0869,-4.1834,-4.2614,-4.3096,-4.4084,-4.4612,-4.4589,-4.5094,-4.5415,-4.5369,-4.5415,-4.5415,-4.5415,-4.5415,-4.5438,-4.5438,-4.5415,-4.5071,-4.4566,-4.4015,-4.351,-4.3051,-4.2545,-4.2275,-4.2229,-4.1788,-4.1604,-4.1535,-4.1053,-4.0869,-4.0778,-4.0272,-4.0149,-4.0034,-3.9492,-3.901,-3.8596,-3.8596,-3.8252,-3.7724,-3.7196,-3.7002,-3.6943,-3.6415,-3.712,-3.7814,-3.7251,-3.8421,-3.949,-3.8945,-3.8887,-3.8693,-3.8115,-3.7538,-3.6985,-3.6505,-3.5479,-3.5127,-3.6254,-3.5906,0.0,-3.6329,-3.5881,-3.5282,-3.4705,-3.3219,-3.224,-3.2215,-3.0192,-2.9414,-3.0532,-2.8499,-2.7126,-2.678,-2.5148,-2.3603,-2.227,-2.0625,-1.9349,-1.8453,0.0,0.0,0.0,0.0,0.0,0.0,0.0,0.0,0.0,0.0,0.0,0.0,0.0,0.0,0.0,0.0,0.0,0.0,0.0,0.0,0.0,-3.3775,-3.6048,-3.5221,-3.7584,-3.9554,-3.9744,-4.1237,-4.2086,-4.1673,-4.2316,-4.2844,-4.2982,-4.3602,-4.3877,-4.3625,-4.4589,-4.4796,-4.4038,-4.4887,-4.5002,-4.4245,-4.4979,-4.5186,-4.4819,-4.5186,-4.5438,-4.5415,-4.4979,-4.4727,-4.4566,-4.3671,-4.3211,-4.3051,-4.2545,-4.2275,-4.2252,-4.2178,-4.2132,-4.2109,-4.1971,-4.1673,-4.1352,-4.1191,-4.0724,-4.0103,-3.9942,-3.9515,-3.9101,-3.9101,-3.901,-3.8711,-3.7816,-3.7586,-3.7379,-3.6507,-3.6526,-3.6904,-3.7601,-3.8133,-3.8684,-3.931,-3.9143,-3.8693,-3.8115,-3.7236,-3.6581,-3.643,-3.6153,-3.6053,-3.6355,0.0,0.0,-3.638,-3.5881,-3.5132,-3.4223,-3.3345,-3.2667,-3.224,-3.0934,-3.0105,0.0,-2.8298,-2.7057,-2.6586,-2.5456,-2.4368,-2.3328,-2.2163,-2.0939,0.0,0.0,0.0,0.0,0.0,0.0,0.0,0.0,0.0,0.0,0.0,0.0,0.0,0.0,0.0,0.0,0.0,0.0,0.0,0.0,0.0,0.0,-3.6208,-3.8252,-3.7816,-3.9446,-4.0869,-4.1397,-4.2431,-4.3096,-4.3096,-4.3533,-4.3808,-4.3808,-4.4313,-4.4474,-4.4153,-4.4727,-4.4864,-4.4474,-4.4841,-4.4841,-4.4451,-4.5048,-4.5209,-4.4933,-4.5002,-4.5048,-4.5025,-4.452,-4.4176,0.0,-4.3349,-4.2959,-4.2752,-4.2454,-4.2275,0.0,0.0,0.0,0.0,0.0,-4.2017,-4.1581,-4.1581,-4.0977,-4.0126,-4.0126,-3.9721,-3.9308,-3.9308,-3.9308,-3.9101,-3.8068,-3.7793,-3.7619,-3.6858,-3.6657,-3.685,-3.7761,-3.8185,-3.8526,-3.9154,-3.8917,-3.8417,-3.8065,0.0,0.0,-3.6405,-3.6182,-3.6107,-3.638,-3.6405,-3.6405,0.0,-3.568,-3.4906,-3.4299,-3.3319,-3.2667,-3.2591,-3.1361,0.0,0.0,0.0,-2.7168,-2.6172,-2.5144,0.0,0.0,0.0,0.0,0.0,0.0,0.0,0.0,-2.1812,-2.148,0.0,0.0,0.0,0.0,0.0,0.0,0.0,0.0,0.0,0.0,0.0,0.0,0.0,0.0,0.0,0.0,-3.7907,-3.9882,-4.0869,-4.1374,-4.1834,-4.2229,-4.2775,-4.3119,-4.3165,-4.3556,-4.3854,-4.3969,-4.4313,-4.4543,-4.4612,0.0,0.0,0.0,0.0,-4.4887,-4.5346,-4.5392,-4.5392,-4.5278,-4.4819,-4.4566,-4.4497,-4.3969,-4.3487,-4.3096,-4.3028,-4.2752,-4.2275,-4.2275,-4.2275,-4.2275,-4.2275,-4.2275,-4.2275,-4.2206,-4.1971,0.0,0.0,0.0,0.0,-4.0126,-3.9721,-3.9308,-3.9308,-3.9308,-3.9101,-3.8068,-3.7793,-3.7653,-3.7239,-3.7089,-3.7281,-3.7921,-3.8473,-3.8841,-3.8893,-3.8439,-3.8015,-3.8015,-3.7111,-3.6405,-3.6405,-3.5956,-3.5805,-3.6329,-3.6405,0.0,-3.6329,-3.5353,-3.4675,-3.455,0.0,0.0,-3.2943,-3.1587,-3.0323,-2.9485,-2.8712,-2.7523,-2.5834,-2.4987,-2.4412,-2.4092,-2.4736,-2.4874,-2.4526,-2.5788,-2.6574,-2.6849,-2.3361,-2.2515,0.0,0.0,0.0,0.0,0.0,0.0,0.0,0.0,0.0,0.0,0.0,0.0,0.0,0.0,0.0,-3.715,-3.9469,-4.1352,-4.1948,-4.2132,-4.2224,-4.2252,-4.2775,-4.3234,-4.3625,-4.3762,-4.4153,-4.5002,-4.4382,-4.4153,-4.4589,-4.4612,0.0,-4.4107,-4.4819,-4.5071,-4.475,-4.5163,-4.5163,-4.475,0.0,0.0,-4.3946,-4.3464,-4.3188,-4.3074,-4.266,-4.2431,-4.2275,-4.2275,-4.2275,-4.2275,-4.2275,-4.2275,-4.2229,-4.188,-4.165,-4.1512,-4.1099,-4.0571,-4.0126,-4.0126,-3.9721,-3.9308,-3.9308,-3.9308,0.0,-3.8068,-3.7793,-3.7653,-3.7239,-3.7089,-3.7334,-3.8421,-3.8736,-3.8945,-3.9438,-3.8692,-3.8015,-3.8015,-3.7111,-3.6405,-3.6405,-3.6329,-3.6279,-3.638,-3.6405,-3.6207,-3.5755,-3.5082,-3.4374,-3.3495,-3.3093,-3.2767,-3.2416,-3.1687,-3.1145,-3.1004,-3.0016,-2.8645,-2.68,-2.8077,-2.8062,-2.6391,-2.7717,-2.7797,-2.6442,-2.7583,-2.7756,-2.7049,-2.6942,-2.7066,0.0,0.0,0.0,0.0,0.0,0.0,0.0,0.0,0.0,0.0,0.0,-3.242,-3.343,0.0,-3.8206,-3.9469,-4.0755,-4.1742,-4.2206,-4.2275,-4.2275,-4.2275,-4.2775,-4.328,-4.3762,-4.4038,-4.452,-4.5369,-4.4887,-4.4704,-4.4979,-4.475,-4.4589,-4.4589,-4.4841,-4.4979,-4.4979,-4.4979,-4.4864,-4.4589,-4.4084,-4.3716,-4.3441,-4.2936,-4.2706,-4.2706,-4.2454,-4.2275,-4.2275,-4.2275,-4.2275,-4.2275,-4.2275,-4.2275,-4.2206,-4.1765,-4.142,-4.1168,-4.0915,-4.0318,-3.9721,-4.0034,-3.9721,-3.9308,-3.9308,-3.9308,-3.9101,-3.8068,-3.7793,-3.7653,-3.7239,-3.6928,-3.6958,-3.8157,-3.8421,-3.8579,-3.9102,-3.8816,-3.8341,-3.8065,-3.7337,-3.6732,-3.6455,-3.6405,-3.6405,-3.6405,-3.6405,-3.6304,-3.5981,-3.5228,-3.45,-3.3947,-3.3395,-3.3011,-3.2667,-3.1697,-3.1182,-3.1386,-3.0047,-2.9107,-2.88,-2.9145,-2.9087,-2.8498,-2.9104,-2.8739,-2.7458,-2.8418,-2.8659,-2.8235,-2.8855,-2.8899,0.0,0.0,0.0,0.0,0.0,0.0,0.0,-2.9802,-2.9986,-3.2492,-3.4142,-3.5657,-3.7196,-3.8711,-4.0135,-4.1374,-4.165,-4.1857,-4.2229,-4.2184,-4.2224,-4.2252,-4.2706,-4.3142,-4.3625,-4.3969,-4.4451,-4.5163,-4.5025,-4.507,-4.5209,-4.4819,-4.4796,-4.5209,-4.491,-4.4887,-4.5209,-4.4819,-4.4497,-4.4313,-4.3487,-4.3028,-4.2936,-4.2522,-4.2275,-4.2275,-4.2275,-4.2275,-4.2275,-4.2275,-4.2275,-4.2275,-4.2275,-4.2275,-4.2206,-4.1765,-4.126,-4.08,-4.0709,-4.0066,-3.9377,-3.9767,-3.9629,-3.9308,-3.9308,-3.9308,-3.9101,-3.8068,-3.7793,-3.7653,-3.7239,-3.6766,-3.6688,-3.7761,-3.7974,-3.8133,-3.8684,-3.871,-3.8467,-3.809,-3.7462,-3.6933,-3.648,-3.6405,-3.6405,-3.6405,-3.6405,-3.638,-3.6254,-3.5328,-3.4675,-3.4575,-3.3671,-3.3111,-3.3111,-3.1861,-3.1257,-3.1547,-3.0216,-2.979,-3.0638,-2.9862,-2.965,-3.0162,-3.0031,-2.9474,-2.8444,-2.9364,-2.9625,-2.9285,-2.9861,-2.9707,-2.6961,-2.6938,-2.7534,-2.9435,-2.9206,-2.9871,0.0,-3.5037,-3.4624,-3.6691,-3.8378,-3.9308,-3.9078,-4.0295,-4.1374,-4.1535,-4.1948,-4.2206,-4.2275,-4.1948,-4.1834,-4.2229,-4.2321,-4.2614,-4.3119,-4.2821,-4.3165,-4.4589,-4.3854,-4.3739,-4.4635,-4.4635,-4.4635,-4.4681,-4.5071,-4.5094,-4.4704,-4.4635,-4.4153,-4.3257,-4.3142,-4.2867,-4.2431,-4.2298,-4.2275,-4.2275,-4.2275,-4.2275,-4.2275,-4.2275,-4.2275,-4.2275,-4.2275,-4.2275,-4.2206,-4.1765,-4.126,-4.0755,-4.0295,-3.9767,-3.9308,-3.9377,-3.9354,-3.9308,-3.9308,-3.9308,-3.9101,-3.8068,-3.7793,-3.7653,-3.7239,-3.7089,-3.7197,-3.7814,-3.7974,-3.8133,-3.8684,-3.803,-3.7493,-3.7916,-3.7161,-3.648,-3.6405,-3.6405,-3.6405,-3.6405,-3.6405,-3.6182,-3.5658,-3.5056,-3.4525,-3.4048,-3.3445,-3.3111,-3.3111,-3.2581,-3.2247,-3.229,-3.2111,-3.1671,-3.09,-3.1588,-3.1588,-3.0811,-3.1632,-3.1539,-3.0481,-3.1403,-3.0934,-2.9227,-3.0103,-3.0703,-3.0491,-3.0308,-3.0422,-3.2718,-3.2994,-3.343,-3.6315,-3.6323,-3.614,-3.7907,-3.8987,-3.9652,-3.9721,-4.0502,-4.1237,0.0,-4.1742,-4.1994,-4.2229,-4.1903,-4.1535,-4.1466,-4.1466,-4.188,-4.2982,-4.2913,-4.3165,-4.4084,-4.4038,-4.4153,-4.4589,-4.4887,-4.5048,-4.5048,-4.5323,-4.5117,-4.4612,-4.429,-4.3785,-4.3096,-4.2798,-4.2545,-4.2275,-4.2275,-4.2275,-4.2275,-4.2275,-4.2275,-4.2275,-4.2275,-4.2275,-4.2275,-4.2275,-4.2275,-4.2247,-4.142,-4.1007,-4.0709,-3.9905,-3.9469,-3.9308,-3.9308,-3.9308,-3.9308,-3.9308,-3.9308,-3.9101,-3.8068,-3.7793,-3.7619,-3.6858,-3.6657,-3.6712,-3.6958,-3.7227,-3.7477,-3.7431,-3.7284,-3.7083,-3.6651,-3.6505,-3.6303,-3.6005,-3.6168,-3.6405,-3.6405,-3.6405,-3.6329,-3.6056,-3.5253,-3.4374,-3.352,-3.3219,-3.3111,-3.3111,-3.2661,-3.2531,-3.2791,-3.2288,-3.2069,-3.2201,-3.1761,-3.1629,-3.1761,-3.1629,-3.1165,-3.0466,-3.1052,-3.0915,-3.0182,-3.0465,-3.106,-3.2121,-3.2305,-3.2695,-3.4808,-3.5634,-3.6208,-3.7242,-3.7288,-3.7471,-3.8734,-3.9262,-3.9629,-4.0057,-4.0364,-4.0778,-4.1283,-4.1489,-4.1696,-4.2063,-4.1558,-4.1007,-4.064,-4.0364,-4.0732,-4.2109,-4.2385,-4.2775,-4.3556,-4.3831,-4.4176,-4.4589,-4.4956,-4.5209,-4.5415,-4.53,-4.491,-4.4382,-4.3877,-4.3372,-4.2867,-4.2522,-4.2275,-4.2275,-4.2275,-4.227,-4.2132,-4.2206,-4.2247,-4.2132,-4.2229,-4.2275,-4.2275,-4.2275,-4.2275,-4.2161,-4.1352,-4.0938,-4.0709,-3.9974,-3.9538,-3.9308,-3.9308,-3.9308,-3.9308,-3.9308,-3.9308,-3.9101,-3.8068,-3.7793,-3.7563,-3.653,-3.6332,-3.6332,-3.6332,-3.6603,-3.6764,-3.6461,-3.6616,-3.6569,-3.5935,-3.5867,-3.5941,-3.5814,-3.6026,-3.6216,-3.6358,-3.6405,-3.6405,-3.6405,-3.5403,-3.4254,-3.3021,-3.3025,-3.3111,-3.3111,-3.255,-3.2419,-3.2853,-3.2157,-3.2025,-3.268,-3.1805,-3.1584,-3.2225,-3.1496,-3.0968,-3.0553,-3.098,-3.1149,-3.1113,-3.1216,-3.1746,-3.056,-3.1731,-3.3499,-3.4555,-3.591,-3.7209,-3.8298,-3.8895,-3.9377,-3.9965,-4.008,-4.0103,-4.0126,-4.0126,-4.031,-4.0755,-4.126,-4.1581,-4.1604,-4.0793,-4.0149,-4.0149,-3.9239,-3.9055,0.0,-4.0594,-4.1512,-4.3005,-4.2683,-4.3051,-4.452,-4.4612,-4.4864,-4.5415,-4.4887,-4.4382,-4.3831,-4.3349,-4.2867,-4.2298,-4.2275,-4.2275,-4.2275,-4.2275,-4.2063,-4.1627,-4.2132,-4.2063,-4.1627,-4.2132,-4.2275,-4.2275,-4.2275,-4.2275,-4.2206,-4.1742,-4.1237,-4.0823,-4.0778,-4.0135,-3.9308,-3.9308,-3.9308,-3.9308,-3.9308,-3.9308,-3.9101,-3.8068,-3.7793,-3.7563,-3.653,-3.6332,-3.6332,-3.6332,-3.6332,-3.6333,-3.6409,-3.5968,-3.5781,-3.6284,-3.5527,-3.5187,-3.6216,-3.5955,-3.5812,-3.631,-3.6405,-3.6405,-3.6405,-3.5403,-3.412,-3.2586,-3.281,-3.3111,-3.3111,-3.2245,-3.1937,-3.24,-3.1981,-3.1717,-3.1761,-3.2113,-3.2157,-3.1717,-3.1717,-3.1627,-3.1455,-3.2037,-3.2056,-3.1582,-3.2596,-3.3102,-3.2787,-3.3752,-3.4785,-3.6805,-3.7701,-3.8229,-3.8918,-3.9193,-3.9262,-3.9101,-3.8803,-3.8459,-3.8114,-3.8045,-3.8344,-3.9193,-4.002,-4.0686,-4.103,-4.1076,-4.0571,-3.9239,-3.9436,0.0,-3.9124,0.0,0.0,-4.1994,-4.2247,-4.2844,-4.4015,-4.4405,-4.4681,-4.4864,-4.4704,-4.4199,-4.3349,-4.3165,-4.2844,-4.2275,-4.2275,-4.2155,-4.1834,-4.1834,-4.1558,-4.1099,-4.1604,-4.1742,-4.1604,-4.2132,-4.2275,-4.2275,-4.2275,-4.2275,-4.2252,-4.2132,-4.1558,-4.0778,-4.0433,-3.9859,-3.9308,-3.9308,-3.9308,-3.9308,-3.9308,-3.9078,-3.8688,-3.7976,-3.754,-3.7127,-3.6438,-3.6332,-3.6332,-3.6332,-3.6332,-3.6102,-3.5485,-3.5213,-3.4894,-3.4437,-3.3887,-3.377,-3.4653,-3.4799,-3.5187,-3.6263,-3.6405,-3.5987,-3.4913,-3.447,-3.3736,-3.2542,-3.2531,-3.2766,-3.3068,-3.2245,-3.1893,-3.2356,-3.1981,-3.1849,-3.2157,-3.2313,-3.2356,-3.2157,-3.2157,-3.1966,-3.1645,-3.2449,-3.3019,-3.3268,-3.3518,-3.4034,-3.4601,-3.5336,-3.5841,-3.8045,-3.8711,-3.8872,-3.901,-3.8895,-3.8619,-3.8137,-3.7173,-3.6392,-3.6254,-3.5933,-3.6208,-3.777,-3.8711,-3.9561,-4.0433,-4.0663,-4.0295,-3.8987,-3.9078,-3.9206,-3.8872,-3.9262,0.0,-4.1214,-4.1604,-4.2161,-4.3234,-4.3785,-4.4153,-4.4313,-4.4153,-4.3762,-4.3096,-4.2729,-4.2293,-4.1725,-4.1725,-4.1627,-4.1306,-4.1306,-4.103,-4.0571,-4.1076,-4.1306,-4.1352,-4.1857,-4.2178,-4.2275,-4.2275,-4.2275,-4.2252,-4.2132,-4.1535,-4.0778,-4.0433,-3.9882,-3.9308,-3.9308,-3.9308,-3.9308,-3.9308,-3.8964,-3.8481,-3.793,-3.7425,-3.692,-3.6392,-3.6332,-3.6332,-3.6332,-3.6332,-3.6002,-3.5014,-3.4808,-3.4435,-3.3353,-3.2773,-3.2823,-3.372,-3.4262,-3.4848,-3.5692,-3.5662,-3.5122,-3.3888,-3.3756,-3.3244,-3.199,-3.2025,-3.2332,-3.281,-3.1981,-3.1629,-3.2113,-3.1673,-3.1629,-3.2113,-3.2313,-3.24,-3.24,-3.24,-3.2249,-3.1942,-3.2747,-3.3535,-3.4361,-3.4477,-3.4969,-3.5772,-3.6401,-3.6736,-3.8252,-3.8941,-3.9147,-3.8665,-3.8114,-3.7563,-3.6989,-3.529,-3.4027,-3.4486,-3.3821,-3.4004,-3.6429,-3.7379,-3.8298,-3.9873,-3.9652,-3.9354,-3.9285,-3.8459,-3.8252,-3.917,-3.8872,0.0,-4.064,0.0,-4.126,-4.2229,-4.2821,-4.328,-4.3716,-4.328,-4.3028,-4.2982,-4.2017,-4.1283,-4.0823,-4.0823,-4.08,-4.0778,-4.0778,-4.0502,-4.0103,-4.0548,-4.08,-4.0869,-4.1374,-4.188,-4.2275,-4.2275,-4.2275,-4.2206,-4.1765,-4.126,-4.0823,-4.08,-4.0135,-3.9308,-3.9308,-3.9308,-3.9308,-3.9308,-3.8941,-3.8436,-3.793,-3.7402,-3.6874,-3.6392,-3.6332,-3.6332,-3.6332,-3.6332,-3.6002,-3.5014,-3.4808,-3.4383,-3.3005,-3.237,-3.2319,-3.33,-3.4164,-3.4726,-3.4751,-3.4342,-3.386,-3.3308,-3.3165,-3.254,-3.1052,-3.1362,-3.1849,-3.2245,-3.1496,-3.1116,-3.156,-3.116,-3.116,-3.1629,-3.2113,-3.24,-3.24,-3.2425,-3.243,-3.2445,-3.2949,-3.3782,-3.4764,-3.5327,-3.586,-3.6392,-3.7402,-3.8183,-3.8941,-3.8941,-3.8642,-3.8114,-3.7288,-3.63,-3.5037,-3.3476,-3.2144,-3.1502,-3.18,-3.2718,-3.4486,-3.6461,-3.8183,-3.9331,-4.0043,-4.002,-3.8895,-3.9193,-3.9285,-3.8826,-3.8987,0.0,0.0,-4.0387,-4.126,-4.2229,-4.2821,-4.2982,-4.2729,-4.2591,-4.2155,-4.1397,-4.1145,-4.0961,-4.0823,-4.0823,-4.0617,-4.0249,-4.0249,-3.9974,-3.9515,-4.002,-4.0479,-4.0869,-4.1374,-4.188,-4.2275,-4.2275,-4.2275,-4.2206,-4.1765,-4.126,-4.0755,-4.0387,-3.9836,-3.9308,-3.9308,-3.9308,-3.9308,-3.9308,-3.8688,-3.7953,-3.7816,-3.715,-3.6438,-3.63,-3.6332,-3.6332,-3.6332,-3.6332,-3.6002,-3.5014,-3.4808,-3.4279,-3.252,-3.2066,-3.2015,-3.2095,-3.2974,-3.3824,-3.4198,-3.3505,-3.2865,-3.2747,-3.2366,-3.1843,-3.1008,-3.1026,-3.1071,-3.0979,-3.127,-3.116,-3.0329,-3.1071,-3.1383,-3.1116,-3.1937,-3.24,-3.24,-3.2725,-3.2967,-3.2997,-3.3526,-3.3959,-3.4243,-3.5162,-3.5668,-3.7632,-3.8459,-3.8918,-3.8964,-3.8596,-3.7862,-3.6438,-3.5336,-3.405,-3.2076,-3.0652,-2.9527,-2.8723,-2.9596,-3.0996,-3.2718,-3.5129,-3.7311,-3.878,-3.9652,-3.9928,-3.9308,-3.9515,-3.9675,-3.9584,-3.9607,-3.9629,0.0,-4.0364,-4.1076,-4.1587,-4.2362,-4.2522,-4.2017,-4.1994,-4.1512,-4.0502,-4.0479,-4.0364,-4.0158,-4.0158,-3.9997,-3.9721,-3.9721,-3.9561,-3.9331,0.0,-4.0135,-4.0846,-4.1122,-4.1673,-4.2275,-4.2275,-4.2275,-4.2184,-4.1512,-4.1053,-4.0709,-3.9974,-3.9538,-3.9308,-3.9308,-3.9308,-3.9308,-3.9308,-3.8596,-3.7793,-3.7793,-3.7058,-3.6223,-3.5817,-3.5982,-3.6223,-3.5763,-3.5982,-3.6048,-3.529,-3.4607,-3.3578,-3.1318,-3.0867,-3.097,-3.1227,-3.1761,-3.2431,-3.3079,-3.2287,-3.1613,-3.1613,-3.1507,-3.1199,-3.0646,-3.0578,-3.0464,-3.0192,-3.0419,-3.0193,-2.9372,-3.0102,-3.0532,-3.0419,-3.1711,-3.2568,-3.272,-3.3439,-3.3847,-3.3877,-3.4193,-3.4366,-3.4384,-3.5211,-3.562,-3.9033,-3.94,-3.9262,-3.8734,-3.8137,-3.7012,-3.4486,-3.3017,-3.1456,-2.893,-2.7552,-2.6703,-2.6283,-2.7392,-2.9114,-3.1248,-3.3706,-3.6071,-3.8275,-3.8941,-3.94,-3.9965,-3.9629,-3.9744,-4.064,-4.0387,-4.0218,-4.0218,-4.064,-4.0892,-4.0823,-4.1725,-4.2063,-4.1489,-4.1352,-4.0908,-4.0034,-4.0011,-3.9744,-3.9308,-3.9308,-3.9308,-3.9308,-3.9308,-3.9308,-3.9308,0.0,0.0,-4.0732,-4.08,-4.1374,-4.2247,-4.2316,-4.2275,-4.2161,-4.1191,-4.0823,-4.0686,-3.9652,-3.9308,-3.9308,-3.9308,-3.919,-3.9131,-3.9131,-3.8468,-3.7691,-3.7622,-3.6992,-3.6182,-3.5157,-3.5466,-3.5927,-3.508,-3.5521,-3.5954,-3.5451,-3.4137,-3.2382,-3.0022,-2.9522,-2.9796,-3.063,-3.0888,-3.1227,-3.1927,-3.1246,-3.0621,-3.0674,-3.0743,-3.0623,-3.0261,-3.0125,-2.9966,-2.9668,-2.9322,-2.8995,-2.8643,-2.9014,-2.9387,-2.9734,-3.1411,-3.2539,-3.2946,-3.4028,-3.4665,-3.4668,-3.4789,-3.4821,-3.4823,-3.5186,-3.5402,-3.9744,-3.9988,-3.9758,-3.8803,-3.7862,-3.6507,-3.3981,-3.1961,-2.9894,-2.741,-2.5716,-2.4705,-2.4613,-2.583,-2.7782,-3.0675,-3.2902,-3.5267,-3.8183,-3.8665,-3.8895,-3.9377,-3.9721,-4.0057,-4.0181,-4.0502,0.0,0.0,0.0,0.0,-4.0846,-4.1725,-4.184,-4.0984,-4.0135,-3.9607,-3.9446,-3.9423,-3.94,-3.9308,-3.9308,-3.9308,-3.9308,-3.9308,-3.9308,-3.9308,0.0,0.0,-4.0226,-4.064,-4.1168,-4.1742,-4.2178,-4.2275,-4.2161,-4.1191,-4.0823,-4.0686,-3.9652,-3.9308,-3.9308,-3.9308,-3.8752,-3.8036,-3.8036,-3.7673,-3.7139,-3.668,-3.6714,-3.6584,-3.5246,-3.5024,-3.508,-3.4914,-3.5024,-3.5001,-3.4534,-3.248,-3.0644,-3.0179,-2.9778,-2.9796,-3.063,-3.1351,-3.1933,-3.2328,-3.1708,-3.1265,-3.1513,-3.0859,-3.0306,-3.0216,-2.9669,-2.9179,-2.8843,-2.9102,-2.8967,-2.8247,-2.9223,-2.971,-2.9418,-3.0715,-3.1476,-3.157,-3.322,-3.4147,-3.4149,-3.4583,-3.48,-3.4775,-3.451,-3.4554,-3.9988,-3.9919,-3.9423,-3.8413,-3.7196,-3.5451,-3.2397,-3.0124,-2.7874,-2.511,-2.3902,-2.3236,-2.2742,-2.4522,-2.6634,-2.8379,-3.079,-3.3499,-3.6576,-3.7219,-3.7953,-3.9515,-3.9965,-4.0333,-4.0862,-4.1076,-4.1214,0.0,0.0,0.0,-4.1237,-4.1673,-4.1604,-4.0846,-4.0089,-3.9561,-3.9308,-3.9308,-3.9308,-3.9308,-3.9308,-3.9308,-3.9308,-3.9308,-3.9308,-3.9308,0.0,0.0,-4.0149,-4.0617,-4.1122,-4.1627,-4.2132,-4.2275,-4.2184,-4.1489,-4.1053,-4.0709,-3.9951,-3.9515,-3.919,-3.8693,-3.8216,-3.7736,-3.7231,-3.6725,-3.6226,-3.5771,-3.5561,-3.5251,-3.3848,-3.3853,-3.4078,-3.3628,-3.3853,-3.3948,-3.3053,-3.1837,-3.0669,-2.9713,-2.9345,-2.9533,-3.062,-3.0733,-3.106,-3.2107,-3.1689,-3.1197,-3.0877,-3.0956,-3.0928,-3.0652,-3.0137,-2.9514,-2.8679,-2.8627,-2.8367,-2.7582,-2.8466,-2.8914,-2.8666,-3.0558,-3.1641,-3.1641,-3.3478,-3.4559,-3.4846,-3.5089,-3.5089,-3.4798,-3.4577,-3.431,-4.0011,-3.9767,-3.9193,-3.8068,-3.6645,-3.4578,-3.1019,-2.8586,-2.6221,-2.3282,-2.2535,-2.2167,-2.1477,-2.3374,-2.5371,-2.6352,-2.8746,-3.1616,-3.4762,-3.5818,-3.7229,-3.9666,-4.0149,-4.0632,-4.1489,-4.1673,0.0,0.0,0.0,0.0,0.0,-4.1627,-4.1329,-4.0846,-4.0318,-3.9813,-3.9308,-3.9308,-3.9308,-3.9308,-3.9308,-3.9308,-3.9308,-3.9308,-3.9308,-3.9308,0.0,0.0,0.0,-4.0411,-4.0914,-4.1627,-4.1879,-4.2084,-4.2206,-4.1377,-4.0959,-4.067,-3.987,-3.9331,-3.8752,-3.7533,-3.7292,-3.7292,-3.638,-3.576,-3.536,-3.4791,-3.4546,-3.4064,-3.2601,-3.2742,-3.3119,-3.2399,-3.2742,-3.3035,-3.1948,-3.1523,-3.0902,-2.9427,-2.9043,-2.9297,-3.0475,-3.0172,-3.0297,-3.1761,-3.1683,-3.119,-3.0536,-3.113,-3.1411,-3.0844,-3.0448,-2.9911,-2.8998,-2.8375,-2.7812,-2.7337,-2.783,-2.8147,-2.8147,-3.0278,-3.1523,-3.1744,-3.3438,-3.4677,-3.5284,-3.5476,-3.5399,-3.4981,-3.4862,-3.4383,-4.0103,-4.008,-3.9689,-3.816,-3.6645,-3.4578,-3.1019,-2.831,-2.5846,-2.3248,-2.1983,-2.1454,-2.1757,-2.2455,-2.3754,-2.6122,-2.7851,-3.0147,-3.3637,-3.5382,-3.7035,-3.9124,-4.0181,-4.0961,-4.1512,-4.1994,0.0,0.0,0.0,0.0,0.0,-4.1834,-4.1329,-4.0846,-4.0318,-3.9813,-3.9308,-3.9308,-3.9308,-3.9308,-3.9308,-3.9308,-3.9308,-3.9308,-3.9308,-3.9249,0.0,0.0,0.0,-3.9652,-4.0355,-4.1565,-4.1091,-4.1486,-4.2097,-4.0132,-4.0023,-4.0563,-3.8678,-3.7998,-3.7594,-3.5767,-3.5767,-3.6319,-3.5356,-3.5005,-3.48,-3.3859,-3.4247,-3.4487,-3.2683,-3.2285,-3.2342,-3.2227,-3.2285,-3.2264,-3.2166,-3.1214,-3.029,-3.0098,-2.9453,-2.9179,-3.0092,-3.0485,-3.0991,-3.1863,-3.1971,-3.1898,-3.1847,-3.1294,-3.0691,-3.017,-2.9764,-2.9579,-2.9833,-2.8542,-2.7859,-2.8144,-2.8217,-2.827,-2.827,-2.9242,-3.0078,-3.0876,-3.2275,-3.3373,-3.4139,-3.5114,-3.5596,-3.5499,-3.5041,-3.4969,-3.9354,-3.9607,-3.9308,-3.8091,-3.6415,-3.4234,-3.095,-2.8035,-2.5371,-2.3179,-2.1914,-2.1247,-2.1422,-2.1881,-2.2754,-2.4384,-2.5394,-2.7116,-3.0354,-3.1869,-3.3821,-3.7081,-3.8665,-4.002,0.0,0.0,0.0,0.0,0.0,0.0,0.0,-4.1237,-4.0892,-4.0364,-4.0218,-3.9813,-3.9308,-3.9308,-3.9308,-3.9308,-3.9308,-3.9308,-3.9308,-3.9308,-3.9308,0.0,0.0,0.0,0.0,-3.9864,-4.0122,-4.0662,-4.0771,-4.1035,-4.1267,-4.0129,-3.9811,-3.9826,-3.8642,-3.7714,-3.6746,-3.5356,-3.517,-3.5273,-3.4298,-3.3985,-3.3865,-3.325,-3.3195,-3.3094,-3.2057,-3.1581,-3.1441,-3.1441,-3.1441,-3.1441,-3.1441,-3.1032,-3.0527,-3.0254,-2.9726,-2.9494,-3.0086,-3.0084,-3.0474,-3.1812,-3.2015,-3.1812,-3.1351,-3.1403,-3.106,-2.986,-2.957,-2.9424,-2.929,-2.8501,-2.8125,-2.8281,-2.8301,-2.8301,-2.8301,-2.9059,-2.99,-3.0785,-3.1812,-3.301,-3.451,-3.4909,-3.5452,-3.6063,-3.5206,-3.4866,-3.8239,-3.8735,-3.8619,-3.7586,-3.5841,-3.3591,-3.0675,-2.7644,-2.4935,-2.3075,-2.1914,-2.1201,-2.1201,-2.1445,-2.2042,-2.3018,-2.3902,-2.5417,-2.8287,-2.9848,-3.1961,-3.5428,0.0,-3.8688,0.0,0.0,0.0,0.0,0.0,0.0,0.0,-4.0364,-4.0272,-4.0126,-4.0126,-3.9813,-3.9308,-3.9308,-3.9308,-3.9308,-3.9308,-3.9308,-3.9308,-3.9308,-3.9308,0.0,0.0,0.0,0.0,-3.963,-3.9666,-3.9819,-4.0016,-4.0298,-4.0403,-3.9127,-3.8881,-3.9007,-3.7906,-3.6841,-3.5767,-3.4777,-3.4485,-3.4298,-3.3607,-3.3418,-3.334,-3.291,-3.2402,-3.1875,-3.1445,-3.1113,-3.0898,-3.0898,-3.0898,-3.0898,-3.0898,-3.0898,-3.0801,-3.0469,-3.0059,-2.9872,-3.0163,-2.9964,-3.0086,-3.1288,-3.1746,-3.1607,-3.0578,-3.1146,-3.0991,-2.9323,-2.9164,-2.9096,-2.9001,-2.8582,-2.8301,-2.8301,-2.8301,-2.8301,-2.8301,-2.8867,-2.9752,-3.0976,-3.1546,-3.2817,-3.4797,-3.4949,-3.5405,-3.6181,-3.5548,-3.5247,-3.6757,-3.7423,-3.7563,-3.6585,-3.4785,-3.2627,-3.0078,-2.7116,-2.4499,-2.3018,-2.1914,-2.1201,-2.1201,-2.1201,-2.1546,-2.2558,-2.3925,-2.5784,-2.8333,-3.0468,-3.2561,-3.4578,-3.568,-3.7081,-3.9124,0.0,0.0,0.0,0.0,0.0,0.0,0.0,-3.9538,-4.0103,-4.0126,-3.9813,-3.9308,-3.9308,-3.9308,-3.9308,-3.9308,-3.9308,-3.9308,-3.9308,0.0,0.0,0.0,0.0,0.0,-3.8722,-3.8807,-3.919,-3.8721,-3.913,-3.9682,-3.6686,-3.6833,-3.8253,-3.581,-3.4922,-3.4735,-3.3733,-3.3418,-3.3418,-3.3418,-3.3418,-3.334,-3.291,-3.2187,-3.1426,-3.0996,-3.0898,-3.0898,-3.0898,-3.0898,-3.0898,-3.0898,-3.0898,-3.0898,-3.0879,-3.0508,-3.0195,-3.0176,-3.0194,-3.0207,-3.0207,-3.1239,-3.1403,-2.9723,-3.0266,-3.0162,-2.8495,-2.8281,-2.8654,-2.9428,-2.8761,-2.8301,-2.8301,-2.8301,-2.8301,-2.8301,-2.8281,-2.9313,-3.1444,-3.1497,-3.2599,-3.4785,-3.5305,-3.5615,-3.5639,-3.6057,-3.6307,-3.3681,-3.4523,-3.4785,-3.3109,-3.219,-3.1065,-2.854,-2.6381,-2.4499,-2.2983,-2.1914,-2.1201,-2.1201,-2.1201,-2.1868,-2.3879,-2.4613,-2.5693,-2.7897,-3.0307,-3.2308,-3.3614,-3.6838,-3.916,0.0,0.0,0.0,0.0,0.0,0.0,0.0,0.0,-3.9377,-3.9538,-3.9538,-3.9469,-3.9308,-3.9308,-3.9308,-3.9308,-3.9308,-3.9308,-3.9308,0.0,0.0,0.0,0.0,0.0,0.0,-3.7963,-3.7798,-3.7612,-3.7467,-3.7434,-3.7294,-3.599,-3.5954,-3.6457,-3.5314,-3.4423,-3.3796,-3.3481,-3.3223,-3.3047,-3.334,-3.3418,-3.3281,-3.2559,-3.2168,-3.1797,-3.1074,-3.0898,-3.0898,-3.0898,-3.0898,-3.0898,-3.0898,-3.0898,-3.0898,-3.0898,-3.0508,-3.0195,-3.0195,-2.9951,-2.9963,-3.0547,-3.0698,-3.0567,-3.0056,-2.9928,-2.9481,-2.8388,-2.8301,-2.8388,-2.8654,-2.8441,-2.8301,-2.8301,-2.8301,-2.8301,-2.8301,-2.8574,-2.9311,-3.0562,-3.0872,-3.1789,-3.3443,-3.4253,-3.4809,-3.5125,-3.5717,-3.544,-3.1221,-3.2319,-3.2764,-3.1134,-3.0422,-2.9527,-2.7144,-2.5425,-2.3957,-2.2662,-2.1776,-2.1201,-2.1201,-2.1201,-2.1822,-2.3764,-2.4384,-2.5417,-2.7667,-3.0009,-3.2144,-3.3912,0.0,0.0,0.0,0.0,0.0,0.0,0.0,0.0,0.0,0.0,-3.9308,-3.9308,-3.9308,-3.9308,-3.9308,-3.9308,-3.9308,-3.9308,-3.9308,-3.9308,-3.9308,0.0,0.0,0.0,0.0,0.0,0.0,-3.7349,-3.6968,-3.6354,-3.6404,-3.6228,-3.5878,-3.505,-3.5015,-3.5289,-3.4586,-3.3922,-3.3418,-3.3418,-3.3242,-3.3086,-3.334,-3.332,-3.3047,-3.2363,-3.2051,-3.1758,-3.1074,-3.0898,-3.0898,-3.0898,-3.0898,-3.0898,-3.0898,-3.0898,-3.0898,-3.0898,-3.0664,-3.0449,-3.0449,-3.0098,-3.003,-3.0514,-3.0464,-3.0289,-3.0037,-2.9992,-2.9668,-2.8878,-2.8769,-2.8769,-2.8769,-2.8476,-2.8359,-2.8516,-2.8535,-2.8613,-2.8769,-2.9023,-2.9679,-3.0717,-3.0982,-3.174,-3.3091,-3.4032,-3.4626,-3.4914,-3.53,-3.4969,0.0,-3.0532,-3.1064,-3.0055,-2.9114,-2.792,-2.5991,-2.4393,0.0,-2.21,-2.1514,-2.1224,-2.1339,-2.1316,-2.1684,-2.2823,-2.3833,-2.5325,-2.7782,-2.9986,-3.2443,0.0,-3.7035,0.0,0.0,0.0,0.0,0.0,0.0,0.0,0.0,0.0,0.0,-3.9308,-3.9308,-3.9308,-3.9308,-3.9308,-3.9308,-3.9308,-3.9308,-3.9272,-3.9236,0.0,0.0,0.0,0.0,0.0,0.0,-3.677,-3.6242,-3.5387,-3.5557,-3.5491,-3.5156,-3.3871,-3.3985,-3.4673,-3.3733,-3.3418,-3.3418,-3.3379,-3.3398,-3.3418,-3.3379,-3.3105,-3.2715,-3.2285,-3.1855,-3.1426,-3.0996,-3.0898,-3.0898,-3.0898,-3.0898,-3.0898,-3.0898,-3.0898,-3.0898,-3.0898,-3.0898,-3.0898,-3.0898,-3.0527,-3.0254,-3.0254,-3.0538,-3.048,-2.9721,-3.0294,-3.0439,-2.9682,-2.9626,-2.9626,-2.9626,-2.8848,-2.8555,-2.8945,-2.8965,-2.9141,-2.9551,-2.9646,-3.0254,-3.1498,-3.1539,-3.2215,-3.3515,-3.4302,-3.4692,-3.4692,-3.4692,-3.4692,-2.5985,0.0,-2.7369,-2.5968,-2.5716,-2.5486,0.0,-2.3397,-2.2685,-2.2009,-2.1514,-2.1546,-2.2651,-2.2593,-2.3167,-2.5739,-2.668,-2.769,-2.9435,-3.2443,0.0,-3.8091,-3.8734,0.0,0.0,0.0,0.0,0.0,0.0,0.0,0.0,0.0,0.0,-3.9308,-3.9308,-3.9308,-3.9308,-3.9308,-3.9308,-3.9308,-3.9308,-3.9076,0.0,0.0,0.0,0.0,0.0,0.0,0.0,-3.5771,-3.5375,-3.4805,-3.4601,-3.425,-3.3871,-3.352,-3.3544,-3.3733,-3.3481,-3.3418,-3.3379,-3.3047,-3.3164,-3.3359,-3.3047,-3.2871,-3.2715,-3.2285,-3.1855,-3.1426,-3.0996,-3.0898,-3.0898,-3.0898,-3.0898,-3.0898,-3.0898,-3.0898,-3.0898,-3.0898,-3.0898,-3.0898,-3.0898,-3.0801,-3.0723,-3.0723,-3.0504,-3.0266,-3.0115,-2.9934,-2.9793,-2.9626,-2.9626,-2.9626,-2.9626,-2.9375,-2.9316,-2.9414,-2.9414,-2.9453,-2.9626,-2.9883,-3.0211,-3.0537,-3.0892,-3.1572,-3.2514,-3.2721,-3.2835,-3.2835,-3.2835,-3.2514,-2.4522,-2.567,-2.6565,-2.5509,-2.5256,-2.4989,-2.4016,-2.3029,-2.218,-2.1675,-2.1385,-2.1523,-2.2513,-2.288,-2.3718,-2.5792,-2.7185,-2.8907,-3.157,-3.4211,-3.6645,-3.8734,0.0,0.0,0.0,0.0,0.0,0.0,0.0,0.0,0.0,0.0,0.0,0.0,-3.8633,-3.8812,-3.9308,-3.9308,-3.9308,-3.9308,-3.8812,-3.8604,-3.8464,0.0,0.0,0.0,0.0,0.0,-3.5371,-3.4961,-3.4648,-3.4375,-3.3945,-3.3633,-3.3418,-3.3418,-3.3418,-3.3418,-3.3418,-3.3418,-3.3379,-3.3164,-3.3242,-3.3379,-3.3144,-3.2949,-3.2715,-3.2285,-3.1855,-3.1426,-3.0996,-3.0898,-3.0898,-3.0898,-3.0898,-3.0898,-3.0898,-3.0898,-3.0898,-3.0898,-3.0898,-3.0898,-3.0898,-3.0898,-3.0898,-3.0898,-3.0684,-3.0508,-3.0508,-3.0312,-3.0176,-3.0176,-3.0176,-3.0176,-3.0176,-3.0176,-3.0078,-2.9863,-2.9863,-2.9961,-3.0176,-3.0391,-3.0508,-3.0508,-3.0762,-3.1112,-3.1614,-3.22,-3.2534,-3.2534,-3.2679,-3.2547,-2.4154,-2.5739,-2.7007,-2.6313,-2.5853,-2.5325,-2.4315,-2.3029,-2.1927,-2.1523,-2.1431,-2.1684,-2.2478,-2.3293,-2.4278,-2.5532,-2.7369,-2.9941,-3.3594,-3.5466,-3.6966,-3.8504,0.0,0.0,0.0,0.0,0.0,0.0,0.0,0.0,0.0,0.0,0.0,0.0,-3.7616,-3.8036,-3.8871,-3.9131,-3.9249,-3.9072,-3.8216,-3.7857,-3.8011,-3.7123,0.0,0.0,0.0,0.0,-3.5234,-3.4414,-3.4082,-3.4023,-3.3594,-3.3418,-3.3418,-3.3418,-3.3418,-3.3418,-3.3418,-3.3418,-3.3418,-3.3418,-3.3418,-3.3418,-3.3418,-3.3164,-3.2793,-3.2383,-3.1914,-3.1426,-3.0996,-3.0898,-3.0898,-3.0898,-3.0898,-3.0898,-3.0898,-3.0898,-3.0898,-3.0898,-3.0898,-3.0898,-3.0898,-3.0898,-3.0898,-3.0898,-3.0898,-3.0898,-3.0898,-3.0898,-3.0898,-3.0898,-3.0898,-3.0898,-3.0898,-3.0898,-3.0723,-3.0332,-3.0293,-3.0488,-3.0879,-3.0898,-3.0898,-3.0898,-3.0898,-3.0918,-3.0996,-3.2153,-3.2707,-3.2788,-3.3153,-3.3335,-2.4545,-2.5952,-2.6754,-2.5004,-2.4797,-2.4774,-2.3751,-2.3029,-2.2581,-2.2489,-2.2489,-2.3156,-2.5386,-2.5938,-2.6749,-2.9022,-3.0744,-3.2495,0.0,0.0,-3.7494,0.0,0.0,0.0,0.0,0.0,0.0,0.0,0.0,0.0,0.0,0.0,0.0,0.0,0.0,-3.6685,-3.6868,-3.8455,-3.8871,-3.8036,-3.7856,-3.7166,-3.5954,-3.5828,-3.5477,0.0,0.0,0.0,-3.4766,-3.4277,-3.4082,-3.4023,-3.3594,-3.3418,-3.3418,-3.3418,-3.3418,-3.3418,-3.3418,-3.3418,-3.3418,-3.3418,-3.3418,-3.3418,-3.3418,-3.3379,-3.3242,-3.2812,-3.2129,-3.1426,-3.0996,-3.0898,-3.0898,-3.0898,-3.0898,-3.0898,-3.0898,-3.0898,-3.0898,-3.0898,-3.0898,-3.0898,-3.0898,-3.0898,-3.0898,-3.0898,-3.0898,-3.0898,-3.0898,-3.0898,-3.0898,-3.0898,-3.0898,-3.0898,-3.0898,-3.0898,-3.0859,-3.0781,-3.0781,-3.082,-3.0879,-3.0898,-3.0898,-3.0898,-3.0898,-3.1074,-3.1426,-3.1603,-3.1938,-3.2312,-3.2371,-3.2411,-2.358,-2.4391,-2.5063,-2.502,-2.5991,-2.6772,-2.606,-2.5073,-2.4315,-2.4315,-2.4315,-2.4751,-2.6237,-2.6975,-2.821,-3.0778,-3.2594,-3.4107,-3.5157,-3.6015,0.0,0.0,0.0,0.0,0.0,0.0,0.0,0.0,0.0,0.0,0.0,0.0,0.0,0.0,0.0,0.0,-3.5582,-3.6989,-3.7473,-3.705,-3.6502,-3.6018,-3.5532,-3.5023,-3.4749,0.0,0.0,-3.4355,-3.4336,-3.3906,-3.373,-3.3691,-3.3496,-3.3418,-3.3418,-3.3418,-3.3418,-3.3418,-3.3418,-3.3418,-3.3418,-3.3418,-3.3418,-3.3418,-3.3418,-3.3418,-3.334,-3.291,-3.2344,-3.1777,-3.1348,-3.1055,-3.0898,-3.0898,-3.0898,-3.0898,-3.0898,-3.0898,-3.0898,-3.0898,-3.0898,-3.0898,-3.0898,-3.0898,-3.0898,-3.0898,-3.0898,-3.0898,-3.0898,-3.0898,-3.0898,-3.0898,-3.0898,-3.0898,-3.0898,-3.0898,-3.0898,-3.0898,-3.0898,-3.0898,-3.0898,-3.0898,-3.0898,-3.0898,-3.1113,-3.1328,-3.1523,-3.1973,-3.2305,-3.2519,-3.2734,-3.2851,-2.2845,-2.3244,-2.4041,-2.549,-2.6821,-2.7889,-2.8287,-2.6999,-2.5882,-2.6336,-2.6358,-2.6449,-2.7103,-2.8322,-2.985,-3.1859,-3.3744,-3.5093,-3.5285,0.0,0.0,0.0,0.0,0.0,0.0,0.0,0.0,0.0,0.0,0.0,0.0,0.0,0.0,0.0,0.0,0.0,-3.4548,-3.5335,-3.5828,-3.6013,-3.5294,-3.498,-3.5073,-3.431,-3.4101,-3.4375,-3.4062,-3.3926,-3.3887,-3.3555,-3.3418,-3.3418,-3.3418,-3.3418,-3.3418,-3.3418,-3.3418,-3.3418,-3.3418,-3.3418,-3.3418,-3.3418,-3.3418,-3.3418,-3.3418,-3.3418,-3.3359,-3.3027,-3.2637,-3.2226,-3.1777,-3.1426,-3.1172,-3.1055,-3.1035,-3.1016,-3.0918,-3.0898,-3.0898,-3.0898,-3.0898,-3.0898,-3.0898,-3.0898,-3.0898,-3.0898,-3.0898,-3.0898,-3.0898,-3.0898,-3.0898,-3.0898,-3.0898,-3.0898,-3.0898,-3.0898,-3.0898,-3.0898,-3.0898,-3.0898,-3.0898,-3.0898,-3.0937,-3.1035,-3.1348,-3.1621,-3.1816,-3.248,-3.2851,-3.2949,-3.3281,-3.3418,-2.3346,-2.4047,-2.5021,-2.608,-2.5694,-2.5838,-2.8731,-2.7577,-2.6425,-2.8295,-2.825,-2.8228,-2.9176,-3.1009,-3.2446,-3.2636,-3.4357,-3.5351,0.0,0.0,0.0,0.0,0.0,0.0,0.0,0.0,0.0,0.0,0.0,0.0,0.0,0.0,0.0,0.0,0.0,0.0,-3.3481,-3.3607,-3.411,-3.4984,-3.4922,-3.4443,-3.354,-3.3476,-3.3496,-3.3516,-3.3476,-3.3476,-3.3476,-3.3437,-3.3418,-3.3418,-3.3418,-3.3418,-3.3418,-3.3418,-3.3418,-3.3418,-3.3418,-3.3418,-3.3418,-3.3418,-3.3418,-3.3418,-3.3418,-3.3418,-3.3418,-3.3379,-3.3066,-3.2656,-3.2226,-3.215,-3.1973,-3.1562,-3.1465,-3.1367,-3.0976,-3.0898,-3.0898,-3.0898,-3.0898,-3.0898,-3.0898,-3.0898,-3.0898,-3.0898,-3.0898,-3.0898,-3.0898,-3.0898,-3.0898,-3.0898,-3.0898,-3.0898,-3.0898,-3.0898,-3.0898,-3.0898,-3.0898,-3.0898,-3.0898,-3.0898,-3.1074,-3.1465,-3.1504,-3.1914,-3.2695,-3.2773,-3.2988,-3.3379,-3.3418,-3.3418,-2.2094,-2.2685,-2.4,-2.5999,-2.6017,-2.6311,-2.9338,-2.9653,-2.961,-3.0528,-3.0838,-3.0771,-3.0053,-3.1232,-3.2262,-3.1957,-3.3854,-3.512,0.0,0.0,0.0,0.0,0.0,0.0,0.0,0.0,0.0,0.0,0.0,0.0,0.0,0.0,0.0,0.0,0.0,0.0,0.0,-3.3418,-3.3607,-3.3985,-3.3985,-3.3796,-3.3418,-3.3418,-3.3418,-3.3418,-3.3418,-3.3418,-3.3418,-3.3418,-3.3418,-3.3418,-3.3418,-3.3418,-3.3418,-3.3418,-3.3418,-3.3418,-3.3418,-3.3418,-3.3418,-3.3418,-3.3418,-3.3418,-3.3418,-3.3418,-3.3418,-3.3418,-3.3301,-3.3086,-3.2676,-3.2363,-3.219,-3.1953,-3.1914,-3.1797,-3.1367,-3.1484,-3.1523,-3.0996,-3.1094,-3.1191,-3.0937,-3.0898,-3.0898,-3.0898,-3.0898,-3.0898,-3.0898,-3.0898,-3.0898,-3.0898,-3.1133,-3.1269,-3.1269,-3.1523,-3.168,-3.168,-3.1191,-3.0898,-3.0898,-3.1133,-3.1348,-3.1504,-3.2031,-3.2461,-3.2793,-3.3066,-3.3262,-3.3418,-3.3418,-3.3418,-2.1531,-2.2059,-2.3472,-2.5486,-2.5994,-2.6744,-2.9727,-3.0549,-3.1034,-3.2127,-3.2356,-3.2041,-3.1071,-3.1483,-3.1919,0.0,-3.353,0.0,0.0,0.0,0.0,0.0,0.0,0.0,0.0,0.0,0.0,0.0,0.0,0.0,0.0,0.0,0.0,0.0,0.0,0.0,0.0,-3.3418,-3.3418,-3.3418,-3.3418,-3.3418,-3.3418,-3.3418,-3.3418,-3.3418,-3.3418,-3.3418,-3.3418,-3.3418,-3.3418,-3.3418,-3.3418,-3.3418,-3.3418,-3.3418,-3.3418,-3.3418,-3.3418,-3.3418,-3.3418,-3.3418,-3.3418,-3.3418,-3.3418,-3.3418,-3.3418,-3.3418,-3.3418,-3.3359,-3.3066,-3.2773,-3.2539,-3.2402,-3.2363,-3.2246,-3.1816,-3.1953,-3.1992,-3.1406,-3.1523,-3.1641,-3.1348,-3.1289,-3.1289,-3.1289,-3.1289,-3.1289,-3.1289,-3.1289,-3.1289,-3.1289,-3.1562,-3.1719,-3.1719,-3.1992,-3.2229,-3.2229,-3.1621,-3.1289,-3.1289,-3.1562,-3.1777,-3.1914,-3.25,-3.2851,-3.2988,-3.3281,-3.3418,-3.3418,-3.3418,-3.3418,-2.2045,-2.2519,-2.3802,-2.4623,-2.5442,-2.6822,-2.9917,-2.9884,-3.0059,-3.2906,-3.2435,-3.1722,-3.2538,-3.2058,-3.1803,-3.2662,0.0,0.0,0.0,0.0,0.0,0.0,0.0,0.0,0.0,0.0,0.0,0.0,0.0,0.0,0.0,0.0,0.0,0.0,0.0,0.0,0.0,-3.3418,-3.3418,-3.3418,-3.3418,-3.3418,-3.3418,-3.3418,-3.3418,-3.3418,-3.3418,-3.3418,-3.3418,-3.3418,-3.3418,-3.3418,-3.3418,-3.3418,-3.3418,-3.3418,-3.3418,-3.3418,-3.3418,-3.3418,-3.3418,-3.3418,-3.3418,-3.3418,-3.3418,-3.3418,-3.3418,-3.3418,-3.3418,-3.3418,-3.3418,-3.3418,-3.332,-3.2891,-3.2793,-3.2695,-3.2266,-3.2187,-3.2187,-3.2229,-3.2168,-3.2168,-3.2229,-3.2229,-3.2229,-3.2229,-3.2229,-3.2229,-3.2229,-3.2229,-3.2229,-3.2229,-3.2168,-3.2229,-3.2229,-3.2187,-3.2187,-3.2187,-3.2187,-3.2229,-3.2229,-3.2168,-3.2363,-3.2793,-3.2793,-3.3008,-3.3418,-3.3418,-3.3418,-3.3418,-3.3418,-3.3418,-2.1366,-2.2312,-2.4082,-2.5571,-2.7236,-2.9064,-3.1135,-3.1503,-3.1921,-3.3697,-3.3196,-3.2316,-3.1916,-3.1958,0.0,0.0,0.0,0.0,0.0,0.0,0.0,0.0,0.0,0.0,0.0,0.0,0.0,0.0,0.0,0.0,0.0,0.0,0.0,0.0,0.0,0.0,0.0,0.0,-3.3418,-3.3418,-3.3418,-3.3418,-3.3418,-3.3418,-3.3418,-3.3418,-3.3418,-3.3418,-3.3418,-3.3418,-3.3418,-3.3418,-3.3418,-3.3418,-3.3418,-3.3418,-3.3418,-3.3418,-3.3418,-3.3418,-3.3418,-3.3418,-3.3418,-3.3418,-3.3418,-3.3418,-3.3418,-3.3418,-3.3418,-3.3418,-3.3418,-3.3418,-3.3379,-3.3262,-3.3242,-3.3125,-3.2695,-3.2832,-3.2871,-3.2285,-3.2402,-3.2519,-3.2226,-3.2229,-3.2229,-3.2229,-3.2229,-3.2229,-3.2229,-3.2229,-3.2229,-3.2229,-3.2422,-3.2598,-3.2598,-3.2871,-3.3047,-3.3047,-3.3047,-3.2793,-3.2187,-3.2461,-3.2676,-3.2793,-3.3086,-3.3301,-3.3418,-3.3418,-3.3418,-3.3418,-3.3418,-3.3418,-2.209,-2.309,-2.4802,-2.6696,-2.8261,-2.9819,-3.1838,-3.2574,-3.2975,-3.3798,-3.3206,-3.2441,-3.209,-3.2109,0.0,0.0,0.0,0.0,0.0,0.0,0.0,0.0,0.0,0.0,0.0,0.0,0.0,0.0,0.0,0.0,0.0,0.0,0.0,0.0,0.0,0.0,0.0,0.0,0.0,-3.3164,-3.3008,-3.293,-3.293,-3.3262,-3.3418,-3.3418,-3.3418,-3.3418,-3.3418,-3.3418,-3.3418,-3.3418,-3.3418,-3.332,-3.3184,-3.3359,-3.332,-3.3184,-3.3359,-3.3418,-3.3418,-3.3418,-3.3418,-3.3418,-3.3418,-3.3418,-3.3418,-3.3418,-3.3418,-3.3418,-3.3418,-3.3418,-3.3418,-3.3418,-3.3418,-3.3359,-3.3105,-3.3242,-3.3281,-3.2773,-3.2871,-3.2969,-3.2715,-3.2656,-3.2656,-3.2656,-3.2656,-3.2656,-3.2656,-3.2656,-3.2656,-3.2656,-3.2891,-3.3047,-3.3047,-3.3281,-3.3418,-3.3418,-3.3418,-3.3184,-3.2695,-3.291,-3.3047,-3.3047,-3.3301,-3.3418,-3.3418,-3.3418,-3.3418,-3.3418,-3.3418,-3.3418,-2.3477,-2.4355,-2.5644,-2.7812,-2.8809,-2.9902,-3.2305,-3.3144,-3.3418,-3.3418,-3.2812,-3.2402,-3.2793,-3.2539,0.0,0.0,0.0,0.0,0.0,0.0,0.0,0.0,0.0,0.0,0.0,0.0,0.0,0.0,0.0,0.0,0.0,0.0,0.0,0.0,0.0,0.0,0.0,0.0,0.0,0.0,0.0,-3.2229,-3.2187,-3.2969,-3.332,-3.3359,-3.3398,-3.3418,-3.3418,-3.3379,-3.3379,-3.3418,-3.3379,-3.3144,-3.2891,-3.3281,-3.3184,-3.291,-3.3281,-3.3418,-3.3418,-3.3418,-3.3418,-3.3418,-3.3418,-3.3418,-3.3418,-3.3418,-3.3418,-3.3418,-3.3418,-3.3418,-3.3418,-3.3418,-3.3418,-3.3418,-3.3418,-3.3418,-3.3418,-3.3418,-3.3418,-3.3418,-3.3418,-3.3418,-3.3418,-3.3418,-3.3418,-3.3418,-3.3418,-3.3418,-3.3418,-3.3418,-3.3418,-3.3418,-3.3418,-3.3418,-3.3418,-3.3418,-3.3418,-3.3418,-3.3418,-3.3418,-3.3418,-3.3418,-3.3418,-3.3418,-3.3418,-3.3418,-3.3418,-3.3418,-3.3418,-3.3418,-2.2347,-2.3906,-2.6113,-2.8242,-3.0391,-3.2187,-3.3086,-3.3359,-3.3418,-3.3418,-3.3281,-3.3184,-3.3262,-3.3203,0.0,0.0,0.0,0.0,0.0,0.0,0.0,0.0,0.0,0.0,0.0,0.0,0.0,0.0,0.0,0.0,0.0,0.0,0.0,0.0,0.0,0.0,-3.3418,-3.3008,-3.2793,0.0,-3.2363,-3.2229,-3.2229,-3.2363,-3.2617,-3.2949,-3.3281,-3.3418,-3.3398,-3.3066,-3.3125,-3.3379,-3.3066,-3.3066,-3.3301,-3.3379,-3.3359,-3.3301,-3.3379,-3.3418,-3.3418,-3.3418,-3.3418,-3.3418,-3.3418,-3.3418,-3.3418,-3.3418,-3.3418,-3.3418,-3.3418,-3.3418,-3.3418,-3.3418,-3.3418,-3.3418,-3.3418,-3.3418,-3.3418,-3.3418,-3.3418,-3.3418,-3.3418,-3.3418,-3.3418,-3.3418,-3.3418,-3.3418,-3.3418,-3.3418,-3.3418,-3.3418,-3.3418,-3.3418,-3.3418,-3.3418,-3.3418,-3.3418,-3.3418,-3.3418,-3.3418,-3.3418,-3.3418,-3.3418,-3.3418,-3.3418,-3.3418,-3.3418,-3.3418,-3.3418,-3.3418,-3.3418,-2.2519,-2.4394,-2.6719,-2.9473,-3.1641,-3.3144,-3.3379,-3.3418,-3.3418,-3.3418,-3.3418,-3.3418,-3.3418,0.0,0.0,0.0,0.0,0.0,0.0,0.0,0.0,0.0,0.0,0.0,0.0,0.0,0.0,0.0,0.0,0.0,0.0,0.0,0.0,0.0,0.0,0.0,-3.3125,-3.2695,-3.2383,-3.2187,-3.1973,-3.1973,-3.2229,-3.2229,-3.2285,-3.25,-3.2734,-3.2832,-3.2812,-3.2578,-3.2617,-3.2812,-3.2793,-3.2812,-3.2871,-3.3281,-3.3301,-3.3144,-3.3359,-3.3418,-3.3418,-3.3418,-3.3418,-3.3418,-3.3418,-3.3418,-3.3418,-3.3418,-3.3418,-3.3418,-3.3418,-3.3418,-3.3418,-3.3418,-3.3418,-3.3418,-3.3418,-3.3418,-3.3418,-3.3418,-3.3418,-3.3418,-3.3418,-3.3418,-3.3418,-3.3418,-3.3418,-3.3418,-3.3418,-3.3418,-3.3418,-3.3418,-3.3418,-3.3418,-3.3418,-3.3418,-3.3418,-3.3418,-3.3418,-3.3418,-3.3418,-3.3418,-3.3418,-3.3418,-3.3418,-3.3418,-3.3418,-3.3418,-3.3418,-3.3418,-3.3418,-3.3535,-2.2422,-2.4727,-2.7305,-3.0684,-3.2422,-3.332,-3.3398,-3.3418,-3.3418,-3.3418,-3.3418,-3.3418,0.0,0.0,0.0,0.0,0.0,0.0,0.0,0.0,0.0,0.0,0.0,0.0,0.0,0.0,0.0,0.0,0.0,0.0,0.0,0.0,0.0,0.0,0.0,-3.3262,-3.291,-3.248,-3.209,-3.1738,-3.166,-3.1816,-3.2229,-3.2229,-3.2229,-3.2168,-3.2246,-3.2226,-3.2168,-3.209,-3.2148,-3.2305,-3.2578,-3.2559,-3.248,-3.3164,-3.3203,-3.2949,-3.3301,-3.3418,-3.3418,-3.3418,-3.3418,-3.3418,-3.3418,-3.3418,-3.3418,-3.3418,-3.3418,-3.3418,-3.3418,-3.3418,-3.3418,-3.3418,-3.3418,-3.3418,-3.3418,-3.3418,-3.3418,-3.3418,-3.3418,-3.3418,-3.3418,-3.3418,-3.3418,-3.3418,-3.3418,-3.3418,-3.3418,-3.3418,-3.3418,-3.3418,-3.3418,-3.3418,-3.3418,-3.3418,-3.3418,-3.3418,-3.3418,-3.3418,-3.3418,-3.3418,-3.3418,-3.3418,-3.3418,-3.3418,-3.3418,-3.3418,-3.3418,-3.3418,-3.3496,-3.373,-1.9805,-2.334,-2.7676,-3.0742,-3.2207,-3.2969,-3.334,-3.3418,-3.3418,-3.3418,-3.3418,-3.3418,0.0,0.0,0.0,0.0,0.0,0.0,0.0,0.0,0.0,0.0,0.0,0.0,0.0,0.0,0.0,0.0,0.0,0.0,0.0,0.0,-3.3418,-3.3418,-3.3418,0.0,-3.334,-3.293,-3.2676,-3.2617,-3.2246,-3.2109,-3.2229,-3.2229,-3.2229,-3.2187,-3.2559,-3.25,-3.2148,-3.1758,-3.2051,-3.2676,-3.2383,-3.2656,-3.3262,-3.3379,-3.3379,-3.334,-3.3398,-3.3418,-3.3418,-3.3418,-3.3418,-3.3418,-3.3418,-3.3418,-3.3418,-3.3418,-3.3418,-3.3418,-3.3418,-3.3418,-3.3418,-3.3418,-3.3418,-3.3418,-3.3418,-3.3418,-3.3418,-3.3418,-3.3418,-3.3418,-3.3418,-3.3418,-3.3418,-3.3418,-3.3418,-3.3418,-3.3418,-3.3418,-3.3418,-3.3418,-3.3418,-3.3418,-3.3418,-3.3418,-3.3418,-3.3418,-3.3418,-3.3418,-3.3418,-3.3418,-3.3418,-3.3418,-3.3418,-3.3418,-3.3418,-3.3418,-3.3418,-3.3437,-3.3809,-3.4023,-2.1445,-2.4531,-2.7676,-3.0469,-3.1621,-3.2187,-3.2617,-3.291,-3.3066,-3.3066,-3.3262,0.0,0.0,0.0,0.0,0.0,0.0,0.0,0.0,0.0,0.0,0.0,0.0,0.0,0.0,0.0,0.0,0.0,0.0,0.0,0.0,-3.3301,-3.3418,-3.3418,-3.3418,0.0,-3.3066,-3.2891,-3.2793,-3.2793,-3.2598,-3.2637,-3.2871,-3.2871,-3.2617,-3.2187,-3.2363,-3.2344,-3.2148,-3.1953,-3.2109,-3.2441,-3.25,-3.2734,-3.3105,-3.334,-3.3418,-3.3418,-3.3418,-3.3418,-3.3418,-3.3418,-3.3418,-3.3418,-3.3418,-3.3418,-3.3418,-3.3418,-3.3418,-3.3418,-3.3418,-3.3418,-3.3418,-3.3418,-3.3418,-3.3418,-3.3418,-3.3418,-3.3418,-3.3418,-3.3418,-3.3418,-3.3418,-3.3418,-3.3418,-3.3418,-3.3418,-3.3418,-3.3418,-3.3418,-3.3418,-3.3418,-3.3418,-3.3418,-3.3418,-3.3418,-3.3418,-3.3418,-3.3418,-3.3418,-3.3418,-3.3418,-3.3418,-3.3418,-3.3418,-3.3418,-3.3418,-3.3418,-3.3555,-3.3789,-3.3984,-3.4336,-2.2246,-2.4473,-2.6269,-2.9316,-3.0547,-3.1191,-3.1855,-3.2422,-3.2773,0.0,0.0,0.0,0.0,0.0,0.0,0.0,0.0,0.0,0.0,0.0,0.0,0.0,0.0,0.0,0.0,0.0,0.0,0.0,0.0,0.0,-3.2793,-3.3184,-3.3418,-3.3418,-3.3418,-3.3281,-3.2949,-3.2949,-3.2949,-3.2949,-3.2949,-3.3125,-3.3418,-3.3418,-3.3086,-3.248,-3.2383,-3.2266,-3.2229,-3.2229,-3.2226,-3.2363,-3.2676,-3.2851,-3.2988,-3.3301,-3.3418,-3.3418,-3.3418,-3.3418,-3.3418,-3.3418,-3.3418,-3.3418,-3.3418,-3.3418,-3.3418,-3.3418,-3.3418,-3.3418,-3.3418,-3.3418,-3.3418,-3.3418,-3.3418,-3.3418,-3.3418,-3.3418,-3.3418,-3.3418,-3.3418,-3.3418,-3.3418,-3.3418,-3.3418,-3.3418,-3.3418,-3.3418,-3.3418,-3.3418,-3.3418,-3.3418,-3.3418,-3.3418,-3.3418,-3.3418,-3.3418,-3.3418,-3.3418,-3.3418,-3.3418,-3.3418,-3.3418,-3.3418,-3.3418,-3.3418,-3.3418,-3.3418,-3.3652,-3.4082,-3.418,-3.4648,-1.9842,-2.1133,-2.2559,-2.6777,-2.8824,-3.0,-3.1269,-3.2187,-3.2676,-3.2285,0.0,0.0,0.0,0.0,0.0,0.0,0.0,0.0,0.0,0.0,0.0,0.0,0.0,0.0,0.0,0.0,0.0,0.0,0.0,0.0,-3.2773,-3.3184,-3.3418,-3.3418,-3.3418,-3.3418,-3.3379,-3.3379,-3.3379,-3.3379,-3.3379,-3.3398,-3.3418,-3.3418,-3.3398,-3.334,-3.293,-3.2539,-3.2229,-3.2229,-3.2402,-3.2773,-3.2793,-3.3047,-3.3398,-3.3418,-3.3418,-3.3418,-3.3418,-3.3418,-3.3418,-3.3418,-3.3418,-3.3418,-3.3418,-3.3418,-3.3418,-3.3418,-3.3418,-3.3418,-3.3418,-3.3418,-3.3418,-3.3418,-3.3418,-3.3418,-3.3418,-3.3418,-3.3418,-3.3418,-3.3418,-3.3418,-3.3418,-3.3418,-3.3418,-3.3418,-3.3418,-3.3418,-3.3418,-3.3418,-3.3418,-3.3418,-3.3418,-3.3418,-3.3418,-3.3418,-3.3418,-3.3418,-3.3418,-3.3418,-3.3418,-3.3418,-3.3418,-3.3418,-3.3418,-3.3418,-3.3418,-3.3418,-3.3652,-3.4082,-3.4473,-3.4922,-1.8926,-2.0469,-2.2285,-2.4922,-2.6562,-2.7871,-2.916,-3.0547,-3.1523,-3.1387,0.0,0.0,0.0,0.0,0.0,0.0,0.0,0.0,0.0,0.0,0.0,0.0,0.0,0.0,0.0,0.0,0.0,0.0,0.0,0.0,-3.2793,-3.3184,-3.3418,-3.3418,-3.3418,-3.3418,-3.3418,-3.3418,-3.3418,-3.3418,-3.3418,-3.3418,-3.3418,-3.3418,-3.3418,-3.3418,-3.3262,-3.3105,-3.2969,-3.2969,-3.3066,-3.3203,-3.3203,-3.3281,-3.3418,-3.3418,-3.3418,-3.3418,-3.3418,-3.3418,-3.3418,-3.3418,-3.3418,-3.3418,-3.3418,-3.3418,-3.3418,-3.3418,-3.3418,-3.3418,-3.3418,-3.3418,-3.3418,-3.3418,-3.3633,-3.3769,-3.3476,-3.3418,-3.3418,-3.3418,-3.3418,-3.3418,-3.3418,-3.3418,-3.3418,-3.3418,-3.3418,-3.3418,-3.3418,-3.3672,-3.3848,-3.3848,-3.4082,-3.4238,-3.4238,-3.4238,-3.4121,-3.3867,-3.3848,-3.3711,-3.3437,-3.3418,-3.3418,-3.3418,-3.3418,-3.3418,-3.3418,-3.3418,-3.3789,-3.4473,-3.4629,-3.5098,-1.8071,-1.9473,-2.1309,-2.3457,-2.4531,-2.5684,-2.7988,-2.9297,-3.0137,0.0,0.0,0.0,0.0,0.0,0.0,0.0,0.0,0.0,0.0,0.0,0.0,0.0,0.0,0.0,0.0,0.0,0.0,0.0,0.0,0.0,-3.2793,-3.3184,-3.3418,-3.3418,-3.3418,-3.3418,-3.3418,-3.3418,-3.3418,-3.3418,-3.3418,-3.3418,-3.3418,-3.3281,-3.3078,-3.287,-3.2734,-3.2976,-3.3418,-3.3418,-3.3418,-3.3418,-3.3418,-3.3418,-3.3418,-3.3418,-3.3418,-3.3418,-3.3418,-3.3418,-3.3418,-3.3418,-3.3418,-3.3418,-3.3418,-3.3418,-3.3418,-3.3418,-3.3418,-3.3418,-3.3418,-3.3418,-3.3457,-3.3613,-3.3867,-3.4023,-3.3887,-3.373,-3.3594,-3.3457,-3.3418,-3.3476,-3.3613,-3.3633,-3.3691,-3.3828,-3.3848,-3.3848,-3.3848,-3.4101,-3.4277,-3.4277,-3.4531,-3.4707,-3.4707,-3.4707,-3.459,-3.4297,-3.4277,-3.416,-3.3867,-3.3711,-3.3633,-3.3633,-3.3496,-3.3418,-3.3418,-3.3418,-3.3867,-3.4707,-3.4707,-3.5176,0.0,0.0,0.0,-2.2223,-2.2672,-2.3555,-2.7754,-2.8418,-2.8535,0.0,0.0,0.0,0.0,0.0,0.0,0.0,0.0,0.0,0.0,0.0,0.0,0.0,0.0,0.0,0.0,0.0,0.0,0.0,0.0,-3.2383,-3.2793,-3.3203,-3.3418,-3.3418,-3.3418,-3.3418,-3.3398,-3.3398,-3.3398,-3.3379,-3.3379,-3.3379,-3.3379,-3.2969,-3.2401,-3.174,-3.1342,-3.1999,-3.3316,-3.3335,-3.3335,-3.3335,-3.3355,-3.3355,-3.3418,-3.3418,-3.3418,-3.3418,-3.3418,-3.3418,-3.3418,-3.3418,-3.3418,-3.3418,-3.3418,-3.3418,-3.3418,-3.3418,-3.3418,-3.3418,-3.3418,-3.3437,-3.3555,-3.3965,-3.4082,-3.4219,-3.4609,-3.4394,-3.3984,-3.3535,-3.3457,-3.3594,-3.4023,-3.4082,-3.4238,-3.4629,-3.4707,-3.4707,-3.4707,-3.4707,-3.4726,-3.4726,-3.4726,-3.4746,-3.4746,-3.4746,-3.4726,-3.4726,-3.4726,-3.4707,-3.4707,-3.4316,-3.4082,-3.4082,-3.3672,-3.3457,-3.3457,-3.3437,-3.3867,-3.4707,-3.4726,-3.5195,-1.7096,0.0,0.0,0.0,0.0,0.0,0.0,0.0,0.0,0.0,0.0,0.0,0.0,0.0,0.0,0.0,0.0,0.0,0.0,0.0,0.0,0.0,0.0,0.0,0.0,0.0,0.0,0.0,0.0,-3.3125,-3.3242,-3.3359,-3.3418,-3.3418,-3.3418,-3.3281,-3.2969,-3.2969,-3.2812,-3.2519,-3.2519,-3.2519,-3.2519,-3.1892,-3.1527,-3.1323,-3.0779,-3.073,-3.1078,-3.1395,-3.1822,-3.2281,-3.2543,-3.2975,-3.3418,-3.3418,-3.3418,-3.3418,-3.3418,-3.3418,-3.3418,-3.3418,-3.3418,-3.3418,-3.3418,-3.3418,-3.3418,-3.3418,-3.3418,-3.3418,-3.3418,-3.3652,-3.3926,-3.4043,-3.457,-3.4961,-3.4746,-3.4883,-3.4883,-3.4434,-3.4336,-3.4394,-3.4512,-3.4531,-3.457,-3.4687,-3.4707,-3.4707,-3.4707,-3.5,-3.5195,-3.5195,-3.5469,-3.5644,-3.5644,-3.5644,-3.5527,-3.5215,-3.5195,-3.5059,-3.4707,-3.459,-3.4531,-3.4531,-3.4414,-3.4336,-3.4336,-3.4043,-3.418,-3.4726,-3.5351,-3.5781,-1.8013,-1.8535,-1.9336,-1.957,0.0,0.0,0.0,-2.3516,0.0,0.0,0.0,0.0,0.0,0.0,0.0,0.0,0.0,0.0,0.0,0.0,0.0,0.0,0.0,0.0,0.0,0.0,0.0,0.0,-3.3164,-3.3242,-3.3418,-3.3262,-3.3164,-3.3164,-3.2988,-3.2793,-3.2539,-3.2539,-3.2422,-3.2229,-3.2229,-3.2046,-3.1783,-3.1165,-3.0663,-3.0094,-2.9562,-2.9184,-2.8975,-2.9306,-3.021,-3.1421,-3.1917,-3.2505,-3.3038,-3.3292,-3.3418,-3.3418,-3.3418,-3.3418,-3.3418,-3.3418,-3.3418,-3.3418,-3.3418,-3.3418,-3.3418,-3.3418,-3.3555,-3.3691,-3.3691,-3.4023,-3.4375,-3.457,-3.5019,-3.5371,-3.5273,-3.5469,-3.5469,-3.4824,-3.4707,-3.4766,-3.4961,-3.498,-3.5059,-3.5215,-3.5254,-3.5254,-3.5254,-3.5488,-3.5664,-3.5664,-3.5879,-3.6016,-3.6016,-3.6016,-3.5918,-3.5664,-3.5664,-3.5527,-3.5254,-3.5078,-3.498,-3.498,-3.4805,-3.4805,-3.498,-3.4551,-3.4551,-3.5,-3.5703,-3.6016,-1.9551,-1.9512,-1.9902,-2.125,0.0,0.0,-2.3997,-2.3783,0.0,0.0,0.0,0.0,0.0,0.0,0.0,0.0,0.0,0.0,0.0,0.0,0.0,0.0,0.0,0.0,0.0,0.0,0.0,-3.2695,-3.2773,-3.293,-3.3262,-3.2969,-3.2773,-3.2734,-3.2363,-3.2148,-3.209,-3.209,-3.207,-3.2031,-3.1971,-3.1648,-3.102,-3.0521,-2.9688,-2.8577,-2.8119,-2.7599,-2.7107,-2.7415,-2.8711,-3.0662,-3.1427,-3.1942,-3.2409,-3.3165,-3.3418,-3.3418,-3.3418,-3.3418,-3.3355,-3.3292,-3.3355,-3.3355,-3.3292,-3.3355,-3.3418,-3.3418,-3.373,-3.4082,-3.4082,-3.4414,-3.4883,-3.5293,-3.543,-3.5566,-3.5937,-3.6016,-3.5781,-3.5,-3.4844,-3.498,-3.5391,-3.5469,-3.5586,-3.5957,-3.6016,-3.6016,-3.6016,-3.6016,-3.6016,-3.6016,-3.6016,-3.6016,-3.6016,-3.6016,-3.6016,-3.6016,-3.6016,-3.6016,-3.6016,-3.5664,-3.5469,-3.5469,-3.5059,-3.5059,-3.5469,-3.4941,-3.4961,-3.5469,-3.584,-3.6016,-2.0566,-2.0879,-2.1133,0.0,0.0,0.0,-2.0177,-2.0255,-2.1016,0.0,0.0,0.0,0.0,0.0,0.0,0.0,0.0,0.0,0.0,0.0,0.0,0.0,0.0,0.0,0.0,0.0,-3.2207,-3.2285,-3.2598,-3.2676,-3.2422,-3.2656,-3.2637,-3.2305,-3.2207,-3.1992,-3.1641,-3.1641,-3.1484,-3.1133,-3.0602,-3.0287,-3.0109,-2.9002,-2.8367,-2.8126,-2.7531,-2.7194,-2.7073,-2.7158,-2.7922,-2.9277,-3.0534,-3.1395,-3.2055,-3.3029,-3.3418,-3.3418,-3.3418,-3.3418,-3.3292,-3.2804,-3.2975,-3.3292,-3.274,-3.2975,-3.3418,-3.3418,-3.373,-3.4082,-3.4082,-3.4668,-3.5293,-3.5371,-3.5644,-3.5918,-3.5996,-3.6016,-3.5976,-3.5801,-3.5762,-3.5801,-3.5879,-3.5898,-3.5918,-3.6016,-3.6016,-3.6016,-3.6016,-3.6016,-3.6016,-3.6016,-3.6016,-3.6016,-3.6016,-3.6016,-3.6016,-3.6016,-3.6016,-3.6016,-3.6016,-3.5937,-3.5898,-3.5898,-3.5801,-3.5801,-3.5898,-3.5098,-3.5117,-3.5898,-3.5976,-3.6016,-2.1836,-2.1699,0.0,-2.1328,0.0,0.0,0.0,-2.0547,-2.0723,-2.248,0.0,0.0,0.0,0.0,0.0,0.0,0.0,0.0,0.0,0.0,0.0,0.0,0.0,0.0,0.0,0.0,-3.1934,-3.2148,-3.2363,-3.2383,-3.2187,-3.2168,-3.2051,-3.1855,-3.1641,-3.1426,-3.1211,-3.1211,-3.1094,-3.0898,-3.0235,-2.9745,-2.939,-2.8439,-2.784,-2.7539,-2.7254,-2.7073,-2.7073,-2.7073,-2.7418,-2.8027,-2.9484,-3.0338,-3.0935,-3.1997,-3.2594,-3.2848,-3.253,-3.2594,-3.2785,-3.2083,-3.2147,-3.2403,-3.2422,-3.2867,-3.3418,-3.3418,-3.373,-3.4121,-3.4336,-3.4883,-3.5449,-3.5664,-3.5859,-3.6016,-3.6016,-3.6016,-3.6016,-3.6016,-3.6016,-3.6016,-3.6016,-3.6016,-3.6016,-3.6016,-3.6016,-3.6016,-3.6016,-3.6016,-3.6016,-3.6016,-3.6016,-3.6016,-3.6016,-3.6016,-3.6016,-3.6016,-3.6016,-3.6016,-3.6016,-3.6016,-3.6016,-3.6016,-3.582,-3.5801,-3.6016,-3.5371,-3.5371,-3.6016,-3.6016,-3.6016,0.0,0.0,0.0,0.0,0.0,-2.1662,0.0,0.0,0.0,-2.2715,0.0,0.0,0.0,0.0,0.0,0.0,0.0,0.0,0.0,0.0,0.0,0.0,0.0,0.0,0.0,0.0,-3.1055,-3.1738,-3.1641,-3.166,-3.1974,-3.166,-3.1484,-3.1406,-3.1074,-3.0898,-3.0898,-3.0898,-3.0898,-3.0898,-3.0117,-2.945,-2.8975,-2.8199,-2.7539,-2.7073,-2.7073,-2.7073,-2.7073,-2.7073,-2.7073,-2.7202,-2.8597,-2.9359,-2.9814,-3.0865,-3.1707,-3.2166,-3.157,-3.1763,-3.2083,-3.1377,-3.1184,-3.1313,-3.2166,-3.2804,-3.3228,-3.3355,-3.373,-3.416,-3.459,-3.5039,-3.5508,-3.5918,-3.6016,-3.6016,-3.6016,-3.6016,-3.6016,-3.6016,-3.6016,-3.6016,-3.6016,-3.6016,-3.6016,-3.6016,-3.6016,-3.6016,-3.6016,-3.6016,-3.6016,-3.6016,-3.6016,-3.6016,-3.6016,-3.6016,-3.6016,-3.6016,-3.6016,-3.6016,-3.6016,-3.6016,-3.6016,-3.6016,-3.5684,-3.5684,-3.6016,-3.5684,-3.5684,-3.6016,-3.6016,-3.6016,0.0,0.0,0.0,0.0,-2.3574,0.0,0.0,0.0,-2.0976,-2.0469,0.0,0.0,0.0,0.0,0.0,0.0,0.0,0.0,0.0,0.0,0.0,0.0,0.0,0.0,0.0,0.0,0.0,-3.0293,-2.9707,-2.9805,-3.0976,-3.1348,-3.1348,-3.0976,-3.0918,-3.0898,-3.0898,-3.0898,-3.0898,-3.0898,-2.9705,-2.9035,-2.8975,-2.7719,-2.7133,-2.7073,-2.7073,-2.7073,-2.7073,-2.7073,-2.7073,-2.7245,-2.8315,-2.8968,-2.9404,-3.0447,-3.1148,-3.1506,-3.1442,-3.1442,-3.1377,-3.0667,-3.0408,-3.0667,-3.1974,-3.2422,-3.2613,-3.3228,-3.373,-3.416,-3.459,-3.5039,-3.5508,-3.5918,-3.6016,-3.6016,-3.6016,-3.6016,-3.6016,-3.6016,-3.6016,-3.6016,-3.6016,-3.6016,-3.6016,-3.6016,-3.6016,-3.6016,-3.6016,-3.6016,-3.6016,-3.6016,-3.6016,-3.6016,-3.6016,-3.6016,-3.6016,-3.6016,-3.6016,-3.6016,-3.6016,-3.6016,-3.6016,-3.6016,-3.5976,-3.5976,-3.6016,-3.5976,-3.5976,-3.6016,-3.6016,-3.6016,0.0,0.0,0.0,0.0,0.0,0.0,-2.1562,0.0,-2.0469,0.0,0.0,0.0,0.0,0.0,0.0,0.0,0.0,0.0,0.0,0.0,0.0,0.0,0.0,0.0,0.0,0.0,0.0,0.0,0.0,-2.875,-3.0059,-3.0527,-3.0801,-3.0898,-3.0898,-3.0898,-3.0898,-3.0898,-3.0898,-3.0898,-2.9646,-2.8975,-2.8975,-2.7677,-2.7073,-2.7073,-2.7073,-2.7073,-2.7073,-2.7073,-2.7073,-2.715,-2.7609,-2.8087,-2.8724,-2.9379,-3.0088,-3.0732,-3.0343,-3.0408,-3.0667,-2.9952,-2.997,-3.0426,-3.0991,-3.1782,-3.2485,-3.274,-3.3411,-3.416,-3.459,-3.5039,-3.5508,-3.5918,-3.6016,-3.6016,-3.6016,-3.6016,-3.6016,-3.6016,-3.6016,-3.6016,-3.6016,-3.6016,-3.6016,-3.6016,-3.6016,-3.6016,-3.6016,-3.6016,-3.6016,-3.6016,-3.6016,-3.6016,-3.6016,-3.6016,-3.6016,-3.6016,-3.6016,-3.6016,-3.6016,-3.6016,-3.6016,-3.6016,-3.6016,-3.6016,-3.6016,-3.6016,-3.6016,-3.6016,-3.6016,-3.6016,-2.5605,0.0,0.0,0.0,0.0,0.0,0.0,0.0,0.0,0.0,0.0,0.0,0.0,0.0,0.0,0.0,0.0,0.0,0.0,0.0,0.0,0.0,0.0,0.0,0.0,0.0,0.0,0.0,0.0,0.0,-2.9297,-2.9805,-3.0234,-3.0684,-3.082,-3.0898,-3.0898,-3.0898,-3.084,-3.0587,-2.9509,-2.8916,-2.8677,-2.7616,-2.7073,-2.7073,-2.7073,-2.7073,-2.7073,-2.7073,-2.7073,-2.709,-2.7176,-2.7621,-2.822,-2.8511,-2.9228,-2.997,-2.9447,-2.9643,-2.997,-2.9447,-2.9643,-3.01,-3.0473,-3.1313,-3.2211,-3.2549,-3.3367,-3.416,-3.459,-3.5039,-3.5508,-3.5918,-3.6016,-3.6016,-3.6016,-3.6016,-3.6016,-3.6016,-3.6016,-3.6016,-3.6016,-3.6016,-3.6016,-3.6016,-3.6016,-3.6016,-3.6016,-3.6016,-3.6016,-3.6016,-3.6016,-3.6016,-3.6016,-3.6016,-3.6016,-3.6016,-3.6016,-3.6016,-3.6016,-3.6016,-3.6016,-3.6016,-3.6016,-3.6016,-3.6016,-3.6016,-3.6016,-3.6016,-3.6016,-3.6016,0.0,0.0,0.0,-2.4531,0.0,0.0,0.0,0.0,-2.2324,0.0,0.0,0.0,0.0,0.0,-2.2305,-2.1934,0.0,0.0,0.0,0.0,0.0,0.0,0.0,0.0,0.0,0.0,0.0,0.0,0.0,0.0,-2.8789,-2.9355,-2.9785,-3.0215,-3.0644,-3.0898,-3.0898,-3.0898,-3.0587,-2.9922,-2.9272,-2.8677,-2.802,-2.7375,-2.7073,-2.7073,-2.7073,-2.7073,-2.7073,-2.7073,-2.7073,-2.7107,-2.745,-2.7843,-2.8186,-2.8203,-2.8682,-2.9316,-2.9316,-2.9316,-2.9316,-2.9316,-2.9316,-2.9561,-3.0926,-3.1377,-3.1699,-3.2975,-3.373,-3.416,-3.459,-3.5039,-3.5508,-3.5918,-3.6016,-3.6016,-3.6016,-3.6016,-3.6016,-3.6016,-3.6016,-3.6016,-3.6016,-3.6016,-3.6016,-3.6016,-3.6016,-3.6016,-3.6016,-3.6016,-3.6016,-3.6016,-3.6016,-3.6016,-3.6016,-3.6016,-3.6016,-3.6016,-3.6016,-3.6016,-3.6016,-3.6016,-3.6016,-3.6016,-3.6016,-3.6016,-3.6016,-3.6016,-3.6016,-3.6016,-3.6016,-3.6016,0.0,0.0,-2.8476,-2.5762,0.0,0.0,0.0,0.0,0.0,0.0,0.0,0.0,0.0,0.0,-2.275,-2.2363,-2.207,-2.1523,0.0,0.0,0.0,0.0,0.0,0.0,0.0,0.0,0.0,0.0,0.0,0.0,0.0,-2.875,-2.9453,-3.0176,-3.0644,-3.0898,-3.0898,-3.1172,-3.0798,-2.9922,-2.955,-2.8932,-2.796,-2.7375,-2.7073,-2.7073,-2.7073,-2.7073,-2.7073,-2.7073,-2.7073,-2.7107,-2.7467,-2.7843,-2.822,-2.8494,-2.8888,-2.9316,-2.9316,-2.9316,-2.9316,-2.9316,-2.9316,-2.9382,-2.9887,-3.0343,-3.0915,-3.2143,-3.3122,-3.4066,-3.4906,-3.5488,-3.584,-3.5996,-3.6016,-3.6016,-3.6016,-3.6016,-3.6016,-3.6016,-3.6016,-3.6016,-3.6016,-3.6016,-3.6016,-3.6016,-3.6016,-3.6016,-3.6016,-3.6016,-3.6016,-3.6016,-3.6016,-3.6016,-3.6016,-3.6016,-3.6016,-3.6016,-3.6016,-3.6016,-3.6016,-3.6016,-3.6016,-3.6016,-3.6016,-3.6016,-3.6016,-3.6016,-3.6016,-3.6016,-3.6016,-3.6016,-2.8906,-2.9258,0.0,0.0,-2.6426,0.0,-2.334,0.0,0.0,0.0,0.0,0.0,0.0,0.0,-2.3691,-2.3262,-2.2578,-2.1543,0.0,0.0,0.0,0.0,0.0,0.0,0.0,0.0,-2.2969,-2.4316,0.0,0.0,0.0,0.0,-2.9023,-2.9726,-3.0488,-3.0898,-3.0898,-3.1309,-3.0815,-2.9568,-2.9619,-2.8938,-2.7659,-2.7254,-2.7073,-2.7073,-2.7073,-2.7073,-2.7073,-2.7073,-2.7141,-2.7295,-2.7672,-2.8049,-2.8426,-2.8682,-2.9008,-2.9316,-2.9316,-2.9316,-2.9316,-2.9316,-2.9316,-2.9316,-2.9578,-2.997,-3.0562,-3.1658,-3.2607,-3.3548,-3.472,-3.5278,-3.5675,-3.5947,-3.6016,-3.6016,-3.6016,-3.6016,-3.6016,-3.6016,-3.6016,-3.6016,-3.6016,-3.6016,-3.6016,-3.6016,-3.6016,-3.6016,-3.6016,-3.6016,-3.6016,-3.6016,-3.6016,-3.6016,-3.6016,-3.6016,-3.6016,-3.6016,-3.6016,-3.6016,-3.6016,-3.6016,-3.6016,-3.6016,-3.6016,-3.6016,-3.6016,-3.6016,-3.6016,-3.6016,-3.6016,-3.6016]},{"header":{"parameterUnit":"m.s-1","parameterCategory":1,"la1":30.6,"la2":29.2853,"lo1":-89.7004,"lo2":-87.6739,"dy":0.0162,"dx":0.0183,"nx":112,"ny":82,"refTime":"2026-05-17T00:00:00:Z","depth":0,"parameterNumber":3,"parameterNumberName":"V-component_of_WINDS"},"data":[0.0,0.0,0.0,0.0,0.0,0.0,0.0,0.0,0.0,0.0,0.0,0.0,0.0,0.0,0.0,0.0,0.0,0.0,0.0,0.0,0.0,0.0,0.0,0.0,0.0,0.0,0.0,0.0,0.0,0.0,0.0,0.0,0.0,0.0,0.0,0.0,0.0,0.0,0.0,0.0,0.0,0.0,0.0,0.0,0.0,0.0,0.0,0.0,0.0,0.0,0.0,0.0,0.0,0.0,0.0,0.0,0.0,0.0,0.0,0.0,0.0,0.0,0.0,0.0,0.0,0.0,0.0,0.0,0.0,0.0,0.0,0.0,0.0,0.0,0.0,0.0,0.0,0.0,0.0,0.0,0.0,0.0,0.0,0.0,0.0,0.0,0.0,0.0,0.0,0.0,2.29,2.6308,2.9759,3.1345,3.0302,3.0642,2.9133,2.4962,0.0,0.0,0.0,0.0,0.0,0.0,0.0,0.0,0.0,0.0,0.0,0.0,0.0,0.0,0.0,0.0,0.0,0.0,0.0,0.0,0.0,0.0,0.0,0.0,0.0,0.0,0.0,0.0,0.0,0.0,0.0,0.0,0.0,0.0,0.0,0.0,0.0,0.0,0.0,0.0,0.0,0.0,0.0,0.0,0.0,0.0,0.0,0.0,0.0,0.0,0.0,0.0,0.0,0.0,0.0,0.0,0.0,0.0,0.0,0.0,0.0,0.0,0.0,0.0,0.0,0.0,0.0,0.0,0.0,0.0,0.0,0.0,0.0,0.0,0.0,0.0,0.0,0.0,0.0,0.0,0.0,0.0,0.0,0.0,0.0,0.0,0.0,0.0,0.0,0.0,0.0,0.0,0.0,0.0,0.0,0.0,0.0,0.0,0.0,0.0,0.0,0.0,0.0,0.0,2.3431,2.8153,3.1,3.2255,3.1339,3.1866,3.0555,2.6666,0.0,0.0,0.0,0.0,0.0,0.0,0.0,0.0,0.0,0.0,0.0,0.0,0.0,0.0,0.0,0.0,0.0,0.0,0.0,0.0,0.0,0.0,0.0,0.0,0.0,0.0,0.0,0.0,0.0,0.0,0.0,0.0,0.0,0.0,0.0,0.0,0.0,0.0,0.0,0.0,0.0,0.0,0.0,0.0,0.0,0.0,0.0,0.0,0.0,0.0,0.0,0.0,0.0,0.0,0.0,0.0,0.0,0.0,0.0,0.0,0.0,0.0,0.0,0.0,0.0,0.0,0.0,0.0,0.0,0.0,0.0,0.0,0.0,0.0,0.0,0.0,0.0,0.0,0.0,0.0,0.0,0.0,0.0,0.0,0.0,0.0,0.0,0.0,0.0,0.0,0.0,0.0,0.0,0.0,0.0,0.0,0.0,0.0,0.0,0.0,0.0,0.0,0.0,2.3802,2.5854,2.9871,3.2098,3.297,3.2177,3.2306,3.0811,2.7047,2.5099,0.0,0.0,0.0,0.0,0.0,0.0,0.0,0.0,0.0,0.0,0.0,0.0,0.0,0.0,0.0,0.0,0.0,0.0,0.0,0.0,0.0,0.0,0.0,0.0,0.0,0.0,0.0,0.0,0.0,0.0,0.0,0.0,0.0,0.0,0.0,0.0,0.0,0.0,0.0,0.0,0.0,0.0,0.0,0.0,0.0,0.0,0.0,0.0,0.0,0.0,0.0,0.0,0.0,0.0,0.0,0.0,0.0,0.0,0.0,0.0,0.0,0.0,0.0,0.0,0.0,0.0,0.0,0.0,0.0,0.0,0.0,0.0,0.0,0.0,0.0,0.0,0.0,0.0,0.0,0.0,0.0,0.0,0.0,0.0,0.0,0.0,0.0,0.0,0.0,0.0,0.0,0.0,0.0,0.0,0.0,0.0,0.0,0.0,0.0,0.0,0.0,0.0,2.6823,2.8855,3.1363,3.2962,3.3555,3.2843,3.2299,3.0503,2.702,2.4828,0.0,0.0,0.0,0.0,0.0,0.0,0.0,0.0,0.0,0.0,0.0,0.0,0.0,0.0,0.0,0.0,0.0,0.0,0.0,0.0,0.0,0.0,0.0,0.0,0.0,0.0,0.0,0.0,0.0,0.0,0.0,0.0,0.0,0.0,0.0,0.0,0.0,0.0,0.0,0.0,0.0,0.0,0.0,0.0,0.0,0.0,0.0,0.0,0.0,0.0,0.0,0.0,0.0,0.0,0.0,0.0,0.0,0.0,0.0,0.0,0.0,0.0,0.0,0.0,0.0,0.0,0.0,0.0,0.0,0.0,0.0,0.0,0.0,0.0,0.0,0.0,0.0,0.0,0.0,0.0,0.0,0.0,0.0,0.0,0.0,0.0,0.0,0.0,0.0,0.0,0.0,0.0,0.0,0.0,0.0,0.0,0.0,0.0,0.0,0.0,0.0,0.0,2.882,3.194,3.2518,3.3632,3.405,3.3316,3.1708,2.9587,2.6965,2.4069,0.0,0.0,0.0,0.0,0.0,0.0,0.0,0.0,0.0,0.0,0.0,0.0,0.0,0.0,0.0,0.0,0.0,0.0,0.0,0.0,0.0,0.0,0.0,0.0,0.0,0.0,0.0,0.0,0.0,0.0,0.0,0.0,0.0,0.0,0.0,0.0,0.0,0.0,0.0,0.0,0.0,0.0,0.0,0.0,0.0,0.0,0.0,0.0,0.0,0.0,0.0,0.0,0.0,0.0,0.0,0.0,0.0,0.0,0.0,0.0,0.0,0.0,0.0,0.0,0.0,0.0,0.0,0.0,0.0,0.0,0.0,0.0,0.0,0.0,0.0,0.0,0.0,0.0,0.0,0.0,0.0,0.0,0.0,0.0,0.0,0.0,0.0,0.0,0.0,0.0,0.0,0.0,0.0,0.0,0.0,0.0,0.0,0.0,0.0,0.0,0.0,0.0,2.9301,3.218,0.0,3.4397,3.4576,3.39,3.2836,3.0624,2.7023,0.0,0.0,0.0,0.0,0.0,0.0,0.0,0.0,0.0,0.0,0.0,0.0,0.0,0.0,0.0,0.0,0.0,0.0,0.0,0.0,0.0,0.0,0.0,0.0,0.0,0.0,0.0,0.0,0.0,0.0,0.0,0.0,0.0,0.0,0.0,0.0,0.0,0.0,0.0,0.0,0.0,0.0,0.0,0.0,0.0,0.0,0.0,0.0,0.0,0.0,0.0,0.0,0.0,0.0,0.0,0.0,0.0,0.0,0.0,0.0,0.0,0.0,0.0,0.0,0.0,0.0,0.0,0.0,0.0,0.0,0.0,0.0,0.0,0.0,0.0,0.0,0.0,0.0,0.0,0.0,0.0,0.0,0.0,0.0,0.0,0.0,0.0,0.0,0.0,0.0,0.0,0.0,0.0,0.0,0.0,0.0,0.0,0.0,0.0,0.0,0.0,0.0,2.6812,3.0255,3.3064,0.0,3.5018,3.5049,3.446,3.309,3.069,2.7023,0.0,0.0,0.0,0.0,0.0,0.0,0.0,0.0,0.0,0.0,0.0,0.0,0.0,0.0,0.0,0.0,0.0,0.0,0.0,0.0,0.0,0.0,0.0,0.0,0.0,0.0,0.0,0.0,0.0,0.0,0.0,0.0,0.0,0.0,0.0,0.0,0.0,0.0,0.0,0.0,0.0,0.0,0.0,0.0,0.0,0.0,0.0,0.0,0.0,0.0,0.0,0.0,0.0,0.0,0.0,0.0,0.0,0.0,0.0,0.0,0.0,0.0,0.0,0.0,0.0,0.0,0.0,0.0,0.0,0.0,0.0,0.0,0.0,0.0,0.0,0.0,0.0,0.0,0.0,0.0,0.0,0.0,0.0,0.0,0.0,0.0,0.0,0.0,0.0,0.0,0.0,0.0,0.0,0.0,0.0,0.0,0.0,0.0,0.0,0.0,0.0,0.0,2.7426,3.1967,3.51,3.5127,3.5494,3.5453,3.4829,3.2092,2.9387,0.0,0.0,0.0,0.0,0.0,0.0,0.0,0.0,0.0,0.0,0.0,0.0,0.0,0.0,0.0,0.0,0.0,0.0,0.0,0.0,0.0,0.0,0.0,0.0,0.0,0.0,0.0,0.0,0.0,0.0,0.0,0.0,0.0,0.0,0.0,0.0,0.0,0.0,0.0,0.0,0.0,0.0,0.0,0.0,0.0,0.0,0.0,0.0,0.0,0.0,0.0,0.0,0.0,0.0,0.0,0.0,0.0,0.0,0.0,0.0,0.0,0.0,0.0,0.0,0.0,0.0,0.0,0.0,0.0,0.0,0.0,0.0,0.0,0.0,0.0,0.0,0.0,0.0,0.0,0.0,0.0,0.0,0.0,0.0,0.0,0.0,0.0,0.0,0.0,0.0,0.0,0.0,0.0,0.0,0.0,0.0,0.0,0.0,0.0,0.0,0.0,0.0,0.0,2.8765,3.3526,3.6614,3.6182,3.6252,3.5927,3.4883,3.2888,3.0195,2.6758,0.0,0.0,0.0,0.0,0.0,0.0,0.0,0.0,0.0,0.0,0.0,0.0,0.0,0.0,0.0,0.0,0.0,0.0,0.0,0.0,0.0,0.0,0.0,0.0,0.0,0.0,0.0,0.0,0.0,0.0,0.0,0.0,0.0,0.0,0.0,0.0,0.0,0.0,0.0,0.0,0.0,0.0,0.0,0.0,0.0,0.0,0.0,0.0,0.0,0.0,0.0,0.0,0.0,0.0,0.0,0.0,0.0,0.0,0.0,0.0,0.0,0.0,0.0,0.0,0.0,0.0,0.0,0.0,0.0,0.0,0.0,0.0,0.0,0.0,0.0,0.0,0.0,0.0,0.0,0.0,0.0,0.0,0.0,0.0,0.0,0.0,0.0,0.0,0.0,0.0,0.0,0.0,0.0,0.0,0.0,0.0,0.0,0.0,0.0,0.0,0.0,0.0,2.9393,3.4407,3.7555,3.6687,3.6605,3.6348,3.5605,3.3916,3.1344,2.7731,0.0,0.0,0.0,0.0,0.0,0.0,0.0,0.0,0.0,0.0,0.0,0.0,0.0,0.0,0.0,0.0,0.0,0.0,0.0,0.0,0.0,0.0,0.0,0.0,0.0,0.0,0.0,0.0,0.0,0.0,0.0,0.0,0.0,0.0,0.0,0.0,0.0,0.0,0.0,0.0,0.0,0.0,0.0,0.0,0.0,0.0,0.0,0.0,0.0,0.0,0.0,0.0,0.0,0.0,0.0,0.0,0.0,0.0,0.0,0.0,0.0,0.0,0.0,0.0,0.0,0.0,0.0,0.0,0.0,0.0,0.0,0.0,0.0,0.0,0.0,0.0,0.0,0.0,0.0,0.0,0.0,0.0,0.0,0.0,0.0,0.0,0.0,0.0,0.0,0.0,0.0,0.0,0.0,0.0,0.0,0.0,0.0,0.0,0.0,0.0,0.0,0.0,2.9583,3.4826,3.8048,3.6878,3.6852,3.6838,3.6716,3.505,3.2657,2.9544,0.0,0.0,0.0,0.0,0.0,0.0,0.0,0.0,0.0,0.0,0.0,0.0,0.0,0.0,0.0,0.0,0.0,0.0,0.0,0.0,0.0,0.0,0.0,0.0,0.0,0.0,0.0,0.0,0.0,0.0,0.0,0.0,0.0,0.0,0.0,0.0,0.0,0.0,0.0,0.0,0.0,0.0,0.0,0.0,0.0,0.0,0.0,0.0,0.0,0.0,0.0,0.0,0.0,0.0,0.0,0.0,0.0,0.0,0.0,0.0,3.7404,0.0,0.0,0.0,0.0,0.0,0.0,0.0,0.0,0.0,0.0,0.0,0.0,0.0,0.0,0.0,0.0,0.0,0.0,0.0,0.0,0.0,0.0,0.0,0.0,0.0,0.0,0.0,0.0,0.0,0.0,0.0,0.0,0.0,0.0,0.0,0.0,0.0,0.0,0.0,0.0,0.0,3.067,3.5751,3.8907,3.8117,3.8527,3.8309,3.6817,3.5423,3.3402,3.0569,2.7256,0.0,0.0,0.0,0.0,0.0,0.0,0.0,0.0,0.0,0.0,0.0,0.0,0.0,0.0,0.0,0.0,0.0,0.0,0.0,0.0,0.0,0.0,0.0,0.0,0.0,0.0,0.0,0.0,0.0,0.0,0.0,0.0,0.0,0.0,0.0,0.0,0.0,0.0,0.0,0.0,0.0,0.0,0.0,0.0,0.0,0.0,0.0,0.0,0.0,0.0,0.0,0.0,0.0,0.0,0.0,0.0,0.0,0.0,0.0,0.0,3.929,0.0,0.0,0.0,0.0,0.0,0.0,0.0,0.0,0.0,0.0,0.0,0.0,0.0,0.0,0.0,0.0,0.0,0.0,0.0,0.0,0.0,0.0,0.0,0.0,0.0,0.0,0.0,0.0,0.0,0.0,0.0,0.0,0.0,0.0,0.0,0.0,0.0,0.0,0.0,0.0,3.1422,3.6396,3.9491,3.8549,3.9081,3.8828,3.7205,3.6461,3.4816,3.1751,2.9121,0.0,0.0,0.0,0.0,0.0,0.0,0.0,0.0,0.0,0.0,0.0,0.0,0.0,0.0,0.0,0.0,0.0,0.0,0.0,0.0,0.0,0.0,0.0,0.0,0.0,0.0,0.0,0.0,0.0,0.0,0.0,0.0,0.0,0.0,0.0,0.0,0.0,0.0,0.0,0.0,0.0,0.0,0.0,0.0,0.0,0.0,0.0,0.0,0.0,0.0,0.0,0.0,0.0,0.0,0.0,5.019,5.019,5.0406,5.0611,4.6518,4.4479,4.3867,0.0,0.0,0.0,0.0,0.0,0.0,0.0,0.0,0.0,0.0,0.0,0.0,0.0,0.0,0.0,0.0,0.0,0.0,0.0,0.0,0.0,0.0,0.0,0.0,0.0,3.8033,3.9014,0.0,0.0,0.0,0.0,0.0,0.0,0.0,0.0,0.0,0.0,0.0,0.0,3.2311,3.7157,4.006,3.8943,3.9319,3.917,3.7937,3.7621,3.6207,3.3215,3.1091,2.8577,0.0,0.0,0.0,0.0,0.0,0.0,0.0,0.0,0.0,0.0,0.0,0.0,0.0,0.0,0.0,0.0,0.0,0.0,0.0,0.0,0.0,0.0,0.0,0.0,0.0,0.0,0.0,0.0,0.0,0.0,0.0,0.0,3.4113,3.4891,0.0,0.0,0.0,0.0,0.0,0.0,0.0,0.0,0.0,0.0,0.0,0.0,0.0,0.0,4.8862,5.087,5.2198,5.286,5.4221,5.5162,5.5748,5.5748,5.547,5.4977,5.433,0.0,4.7096,4.5685,0.0,0.0,0.0,0.0,0.0,0.0,0.0,0.0,0.0,0.0,0.0,0.0,0.0,0.0,0.0,0.0,0.0,0.0,0.0,0.0,0.0,0.0,4.2013,4.1482,4.2073,4.2602,0.0,3.7345,3.2766,3.1152,0.0,0.0,0.0,0.0,0.0,0.0,0.0,0.0,3.4237,3.8408,4.0985,4.0217,4.022,3.9966,3.9205,3.8072,3.6735,3.522,3.2676,3.0582,2.8996,2.589,0.0,0.0,0.0,0.0,0.0,0.0,0.0,0.0,0.0,0.0,0.0,0.0,0.0,0.0,0.0,0.0,0.0,0.0,0.0,0.0,0.0,0.0,0.0,0.0,0.0,0.0,0.0,0.0,0.0,3.4053,3.6304,3.6836,3.705,3.6665,0.0,0.0,0.0,0.0,0.0,0.0,0.0,0.0,0.0,4.9614,5.0507,5.2008,5.4165,5.5715,5.662,5.6933,5.7903,5.8481,5.8763,5.8763,5.8606,5.8325,5.8325,5.6557,5.3439,4.9696,4.6453,4.3666,0.0,0.0,0.0,0.0,0.0,0.0,4.4174,0.0,0.0,0.0,0.0,0.0,0.0,0.0,0.0,0.0,0.0,0.0,0.0,0.0,0.0,4.3322,4.4188,4.4665,4.3529,4.1017,3.8302,0.0,3.4143,3.2048,2.8727,0.0,0.0,0.0,0.0,0.0,3.6182,3.9579,4.1715,4.1024,4.0636,3.9978,3.8931,3.7943,3.6716,3.504,3.3844,3.2437,3.0761,2.8577,2.6153,0.0,0.0,0.0,0.0,0.0,0.0,0.0,0.0,0.0,0.0,0.0,0.0,0.0,0.0,0.0,0.0,0.0,0.0,0.0,0.0,0.0,0.0,0.0,0.0,0.0,0.0,0.0,0.0,3.6469,3.8736,3.9116,4.037,4.0327,0.0,0.0,0.0,0.0,0.0,0.0,4.7401,4.8684,5.0851,5.4103,5.5184,5.6577,5.8514,5.9381,5.9918,6.0107,6.0423,6.0676,6.0834,6.0834,6.0739,6.0581,6.036,5.9538,5.7912,5.3209,5.008,4.8035,4.592,4.4713,0.0,4.557,4.5973,4.6392,4.8746,4.946,4.9025,4.7387,0.0,4.4427,4.1165,0.0,0.0,0.0,0.0,4.062,4.3957,0.0,4.4108,4.4616,4.5544,4.5861,4.4366,4.4067,4.314,0.0,3.8601,3.6537,3.2138,0.0,0.0,0.0,0.0,3.7793,3.8123,4.0643,4.2141,4.1444,4.0636,3.9679,3.8482,3.7644,3.6537,3.5102,3.4533,3.3634,3.2318,3.0786,2.8771,2.6279,0.0,0.0,0.0,0.0,0.0,0.0,0.0,0.0,0.0,0.0,0.0,0.0,0.0,0.0,0.0,0.0,0.0,0.0,0.0,0.0,0.0,0.0,0.0,0.0,0.0,0.0,0.0,0.0,0.0,4.2222,4.3568,0.0,0.0,0.0,0.0,4.4397,4.6749,4.9318,5.1996,5.3782,5.5734,5.7944,5.9317,6.0392,6.1196,6.1277,6.1624,6.2207,6.1624,6.1687,6.227,6.227,6.1972,6.1308,6.0581,5.9538,5.8148,5.6162,5.4059,5.1954,4.9522,4.8364,4.8224,4.8903,4.9353,4.9852,5.1304,5.1439,5.1092,5.2292,5.0871,4.8432,4.7276,4.5217,0.0,0.0,4.4929,4.5323,4.7442,4.6902,4.6022,4.67,4.6569,4.6249,4.616,4.613,4.5394,0.0,4.0636,3.9194,3.8895,0.0,0.0,3.7644,3.8153,3.8811,4.0098,4.1512,4.2141,4.1444,4.0217,3.917,3.8452,3.7255,3.6477,3.6387,3.4592,3.3784,3.4324,3.2158,2.9966,2.7934,2.6114,0.0,0.0,0.0,0.0,0.0,0.0,0.0,0.0,0.0,0.0,0.0,0.0,0.0,0.0,0.0,0.0,0.0,0.0,0.0,0.0,0.0,0.0,0.0,0.0,0.0,0.0,0.0,0.0,4.5577,4.7978,0.0,4.7081,4.8004,4.9142,5.0084,5.2188,5.4057,5.543,5.6983,5.8369,5.9538,6.0518,6.1119,6.1403,6.1845,6.1972,6.1782,6.1972,6.2193,6.2396,6.2396,6.2238,6.2003,6.1308,6.0455,5.9507,5.8451,5.6766,5.4769,5.3915,5.3235,5.2786,5.3521,5.3533,5.3302,5.3807,5.385,5.3502,5.2681,5.1417,5.0089,4.9237,4.8394,4.7776,4.8135,4.8059,4.8059,4.9048,4.8488,4.762,4.7405,4.7045,4.6659,4.6364,4.6279,4.5903,4.4526,4.3,4.1376,3.9672,3.9349,3.908,3.8482,3.9895,4.1153,4.1632,4.2432,4.2731,4.2111,4.0457,3.932,3.908,3.7464,3.6297,3.5878,3.519,3.4322,3.3275,3.2406,3.1106,2.9269,2.7789,2.5391,0.0,0.0,0.0,0.0,0.0,0.0,0.0,0.0,0.0,0.0,0.0,0.0,0.0,0.0,0.0,0.0,0.0,0.0,0.0,0.0,0.0,0.0,0.0,0.0,0.0,0.0,4.8102,4.8498,5.1351,5.2522,5.0776,5.2112,5.3376,5.4103,5.5841,5.72,5.7895,5.9254,6.0202,6.0645,6.1371,6.1751,6.1751,6.2193,6.2193,6.1751,6.2225,6.2396,6.2396,6.2396,6.2319,6.2035,6.134,6.0613,5.9918,5.9222,5.8148,5.6852,5.6631,5.6252,5.5828,5.6094,5.5873,5.5462,5.5165,5.5102,5.4818,5.325,5.2238,5.1606,5.1132,5.0816,5.0563,5.0342,5.0079,4.9896,4.9915,4.9259,4.8553,4.8254,4.7629,4.7075,4.6906,4.6556,4.6112,4.5424,4.4407,4.3021,4.1047,4.1085,4.1085,4.0187,4.1422,4.247,4.2671,4.288,4.2761,4.2141,4.0247,3.908,3.908,3.7075,3.5818,3.5848,3.4981,3.3934,3.2676,3.2014,3.0951,2.9428,2.7899,2.5977,2.3589,0.0,0.0,0.0,0.0,0.0,0.0,0.0,0.0,0.0,0.0,0.0,0.0,0.0,0.0,0.0,0.0,0.0,0.0,0.0,0.0,0.0,0.0,0.0,4.6676,4.9056,5.0775,5.1132,5.3566,5.4439,5.2428,5.406,5.5588,5.6252,5.7579,5.8654,5.9317,6.0676,6.1403,6.1371,6.2067,6.2365,6.2302,6.2365,6.2365,6.2365,6.2365,6.2396,6.2396,6.2365,6.2035,6.134,6.0581,5.9886,5.9254,5.8559,5.8321,5.8257,5.7516,5.7263,5.7168,5.6505,5.6252,5.6125,5.543,5.5134,5.4976,5.4356,5.3692,5.3123,5.3123,5.2649,5.1922,5.1195,5.1046,5.0848,5.0121,4.9259,4.8728,4.921,4.8301,4.7482,4.788,4.7069,4.6112,4.5424,4.4736,4.4077,4.3409,4.2282,4.1863,4.311,4.2791,0.0,4.32,4.2761,4.2141,4.1452,3.9589,3.8422,3.8392,3.6061,3.5132,3.6387,3.3963,3.2616,3.285,3.1055,2.9541,2.8504,2.6517,2.533,2.4881,0.0,0.0,0.0,0.0,0.0,0.0,0.0,0.0,0.0,0.0,0.0,0.0,0.0,0.0,0.0,0.0,0.0,0.0,0.0,0.0,0.0,4.6487,4.9615,4.8478,5.1493,5.4069,5.4703,5.6757,5.7927,5.7358,5.8243,5.897,5.9159,6.0012,6.0392,6.0044,6.1371,6.1656,6.0613,6.1782,6.194,6.0897,6.1909,6.2193,6.1687,6.2193,6.2396,6.2365,6.1909,6.1561,6.134,6.0107,5.9475,5.9254,5.8559,5.8321,5.8289,5.8053,5.799,5.7958,5.7769,5.7358,5.6915,5.6694,5.5923,5.507,5.4849,5.4387,5.3818,5.3818,5.3692,5.3281,5.2049,5.1733,5.1448,5.0247,4.9701,4.9421,4.8893,4.848,4.8091,4.7581,4.6856,4.6112,4.5424,4.4377,4.3499,4.3319,4.2991,4.2871,4.323,0.0,0.0,4.326,4.2761,4.1961,4.0786,3.9738,3.8931,3.8422,3.6866,3.5878,0.0,3.3724,3.2317,3.1896,3.1157,3.043,2.9858,2.908,2.785,0.0,0.0,0.0,0.0,0.0,0.0,0.0,0.0,0.0,0.0,0.0,0.0,0.0,0.0,0.0,0.0,0.0,0.0,0.0,0.0,0.0,0.0,4.9837,5.2649,5.2049,5.4292,5.6252,5.6979,5.8401,5.9317,5.9317,5.9918,6.0297,6.0297,6.0992,6.1213,6.0771,6.1561,6.1751,6.1213,6.1719,6.1719,6.1182,6.2003,6.2225,6.1845,6.194,6.2003,6.1972,6.1277,6.0803,0.0,5.9665,5.9128,5.8843,5.8432,5.8321,0.0,0.0,0.0,0.0,0.0,5.7832,5.7231,5.7231,5.627,5.5102,5.5102,5.4672,5.4103,5.4103,5.4103,5.3818,5.2396,5.2017,5.166,5.0039,4.9653,4.9461,4.8769,4.8438,4.8218,4.7709,4.6689,4.5783,4.5364,0.0,0.0,4.329,4.312,4.303,4.326,4.329,4.329,0.0,4.2521,4.1692,4.0876,3.9709,3.8931,3.8841,3.7375,0.0,0.0,0.0,3.2377,3.1122,3.1259,0.0,0.0,0.0,0.0,0.0,0.0,0.0,0.0,2.7422,2.7187,0.0,0.0,0.0,0.0,0.0,0.0,0.0,0.0,0.0,0.0,0.0,0.0,0.0,0.0,0.0,0.0,5.2175,5.4893,5.6252,5.6947,5.7579,5.8257,5.8875,5.9349,5.9412,5.9949,6.036,6.0518,6.0992,6.1308,6.1403,0.0,0.0,0.0,0.0,6.1782,6.227,6.2333,6.2333,6.2319,6.1687,6.134,6.1245,6.0518,5.9854,5.9317,5.9222,5.8843,5.8321,5.8321,5.8321,5.8321,5.8321,5.8321,5.8321,5.8226,5.7769,0.0,0.0,0.0,0.0,5.5102,5.4672,5.4103,5.4103,5.4103,5.3818,5.2396,5.2017,5.1587,4.9756,4.9331,4.9138,4.8646,4.826,4.7964,4.7922,4.6527,4.5304,4.5304,4.4227,4.329,4.329,4.2851,4.2671,4.32,4.329,0.0,4.32,4.2132,4.1324,4.1175,0.0,0.0,3.926,3.7644,3.646,3.6088,3.4599,3.2946,3.12,3.1982,3.2031,3.1045,3.1732,3.2563,3.3603,3.3684,3.4014,3.4443,2.9434,2.856,0.0,0.0,0.0,0.0,0.0,0.0,0.0,0.0,0.0,0.0,0.0,0.0,0.0,0.0,0.0,5.1132,5.4324,5.6915,5.7737,5.799,5.8116,5.8289,5.8875,5.9507,6.0044,6.0234,6.0771,6.194,6.1087,6.0771,6.1371,6.1403,0.0,6.0708,6.1687,6.2035,6.1593,6.2161,6.2161,6.1593,0.0,0.0,6.0487,5.9823,5.9444,5.9286,5.8717,5.8401,5.8321,5.8321,5.8321,5.8321,5.8321,5.8321,5.8257,5.7642,5.7326,5.7137,5.6568,5.5841,5.5102,5.5102,5.4672,5.4103,5.4103,5.4103,0.0,5.2396,5.2017,5.1587,4.9756,4.9331,4.9097,4.8301,4.8049,4.788,4.7525,4.6316,4.5304,4.5304,4.4227,4.329,4.329,4.32,4.314,4.326,4.329,4.315,4.2611,4.1901,4.0965,3.9918,3.9439,3.905,3.8631,3.7764,3.7199,3.7113,3.5851,3.5059,3.4926,3.5615,3.5677,3.4943,3.5797,3.5982,3.5491,3.5704,3.5767,3.5571,3.4023,3.3573,0.0,0.0,0.0,0.0,0.0,0.0,0.0,0.0,0.0,0.0,0.0,4.4622,4.6013,0.0,5.2586,5.4324,5.6094,5.7453,5.8226,5.8321,5.8321,5.8321,5.8875,5.957,6.0234,6.0613,6.1277,6.2302,6.1782,6.1529,6.1909,6.1593,6.1371,6.1371,6.1719,6.1909,6.1909,6.1909,6.1751,6.1371,6.0676,6.017,5.9791,5.9096,5.878,5.878,5.8432,5.8321,5.8321,5.8321,5.8321,5.8321,5.8321,5.8321,5.8226,5.7484,5.701,5.6663,5.6315,5.5493,5.4672,5.4976,5.4672,5.4103,5.4103,5.4103,5.3818,5.2396,5.2017,5.1587,4.9756,4.9452,4.9381,4.851,4.8301,4.8175,4.7752,4.6671,4.5693,4.5364,4.4496,4.3678,4.3349,4.329,4.329,4.329,4.329,4.317,4.288,4.1983,4.1115,4.0457,3.9798,3.9254,3.8931,3.8112,3.7575,3.7404,3.694,3.6593,3.6288,3.7557,3.7651,3.6476,3.7589,3.7623,3.6438,3.6786,3.6847,3.6631,3.6195,3.5608,0.0,0.0,0.0,0.0,0.0,0.0,0.0,4.102,4.1272,4.4618,4.6992,4.9078,5.1195,5.3281,5.5241,5.6947,5.7326,5.7611,5.8257,5.8194,5.8116,5.8289,5.878,5.938,6.0044,6.0518,6.1182,6.2161,6.1972,6.1891,6.2225,6.1687,6.1656,6.2225,6.1814,6.1782,6.2225,6.1687,6.1245,6.0992,5.9854,5.9222,5.9096,5.8527,5.8321,5.8321,5.8321,5.8321,5.8321,5.8321,5.8321,5.8321,5.8321,5.8321,5.8226,5.7484,5.6789,5.6157,5.6031,5.5146,5.4198,5.4735,5.4545,5.4103,5.4103,5.4103,5.3818,5.2396,5.2017,5.1587,4.9756,4.9573,4.9582,4.8769,4.8604,4.848,4.8091,4.7063,4.6047,4.5394,4.4646,4.3917,4.3379,4.329,4.329,4.329,4.329,4.326,4.311,4.2102,4.1324,4.1205,4.0127,3.9373,3.9373,3.8736,3.8171,3.7931,3.8157,3.8044,3.7416,3.8829,3.8992,3.775,3.8699,3.8585,3.7406,3.7584,3.7579,3.7399,3.704,3.636,3.7194,3.7162,3.7984,4.0514,4.0198,4.1114,0.0,4.8225,4.7656,5.05,5.2702,5.4103,5.3787,5.5462,5.6947,5.7168,5.7737,5.8226,5.8321,5.7737,5.7579,5.8257,5.8384,5.8654,5.9349,5.8938,5.9412,6.1371,6.036,6.0202,6.1435,6.1435,6.1435,6.1498,6.2035,6.2067,6.1529,6.1435,6.0771,5.9538,5.938,5.9001,5.8401,5.8352,5.8321,5.8321,5.8321,5.8321,5.8321,5.8321,5.8321,5.8321,5.8321,5.8321,5.8226,5.7484,5.6789,5.6094,5.5462,5.4735,5.4103,5.4198,5.4166,5.4103,5.4103,5.4103,5.3818,5.2396,5.2017,5.1587,4.9756,4.9331,4.925,4.8728,4.8604,4.848,4.8091,4.6963,4.5889,4.5387,4.4287,4.3379,4.329,4.329,4.329,4.329,4.329,4.312,4.259,4.1871,4.1145,4.0576,3.9858,3.9373,3.9373,3.9611,3.9733,3.9698,3.9742,3.9994,4.0544,4.0159,4.0159,4.0611,4.0125,3.965,3.919,3.8607,3.8031,3.7493,3.6844,3.6753,4.1968,4.1715,4.1873,4.5033,4.5412,4.6013,5.0097,4.9995,4.9742,5.2175,5.366,5.4577,5.4672,5.5746,5.6757,0.0,5.7453,5.78,5.8257,5.7674,5.7168,5.7073,5.7073,5.7642,5.9159,5.9064,5.9412,6.0676,6.0613,6.0771,6.1371,6.1782,6.2003,6.2003,6.2238,6.2098,6.1403,6.0961,6.0265,5.9317,5.8906,5.8559,5.8321,5.8321,5.8321,5.8321,5.8321,5.8321,5.8321,5.8321,5.8321,5.8321,5.8321,5.8321,5.8148,5.701,5.6441,5.6031,5.4925,5.4324,5.4103,5.4103,5.4103,5.4103,5.4103,5.4103,5.3818,5.2396,5.2017,5.166,5.0039,4.9653,4.9613,4.9381,4.9178,4.8841,4.8234,4.7507,4.662,4.5666,4.4779,4.4137,4.3775,4.3488,4.329,4.329,4.329,4.32,4.297,4.2013,4.0965,3.9948,3.9589,3.9373,3.9373,3.9798,3.9905,3.9691,4.0051,4.0226,4.0121,4.047,4.0574,4.047,4.0574,4.0341,3.9794,3.8689,3.8348,3.8631,3.7204,3.7015,4.4211,4.4464,4.5001,4.7909,4.9047,4.9837,5.1259,5.1322,5.1575,5.3313,5.404,5.4545,5.5007,5.5557,5.6125,5.6821,5.7105,5.739,5.7895,5.72,5.6441,5.5936,5.5557,5.6062,5.7958,5.8338,5.8875,5.9949,6.0329,6.0803,6.1371,6.1877,6.2225,6.2365,6.2207,6.1814,6.1087,6.0392,5.9696,5.9001,5.8527,5.8321,5.8321,5.8321,5.818,5.799,5.8226,5.8148,5.799,5.8257,5.8321,5.8321,5.8321,5.8321,5.8162,5.6915,5.6347,5.6031,5.5019,5.4419,5.4103,5.4103,5.4103,5.4103,5.4103,5.4103,5.3818,5.2396,5.2017,5.1701,5.0279,4.9892,4.9892,4.9892,4.9693,4.9233,4.8386,4.7827,4.7123,4.5686,4.5092,4.4582,4.3931,4.3606,4.3448,4.3329,4.329,4.329,4.329,4.2192,4.0913,3.9703,3.9445,3.9373,3.9373,3.9839,3.9945,3.9589,4.0156,4.0261,3.9732,4.0436,4.0608,4.0152,4.0677,4.0541,3.9727,3.8947,3.8811,3.929,3.7952,3.7918,4.2062,4.3674,4.6108,4.7561,4.9426,5.1331,5.2712,5.3534,5.4198,5.4881,5.5039,5.507,5.5102,5.5102,5.5355,5.6094,5.6789,5.7231,5.7263,5.6018,5.5134,5.5134,5.4008,5.3755,0.0,5.5873,5.7137,5.9191,5.8748,5.9254,6.1277,6.1403,6.1751,6.2365,6.1782,6.1087,6.0329,5.9665,5.9001,5.8352,5.8321,5.8321,5.8321,5.8321,5.7895,5.7295,5.799,5.7895,5.7295,5.799,5.8321,5.8321,5.8321,5.8321,5.8226,5.7453,5.6757,5.6189,5.6125,5.5241,5.4103,5.4103,5.4103,5.4103,5.4103,5.4103,5.3818,5.2396,5.2017,5.1701,5.0279,4.9892,4.9892,4.9892,4.9892,4.9552,4.8426,4.7731,4.6843,4.5209,4.4764,4.4335,4.3448,4.3714,4.3832,4.3369,4.329,4.329,4.329,4.2192,4.1025,4.0061,3.9625,3.9373,3.9373,4.0086,4.0331,4.0011,4.0296,4.0505,4.047,4.0191,4.0156,4.0505,4.0505,4.0029,3.9017,3.9651,3.9586,3.8914,3.9193,3.989,4.5128,4.6455,4.7877,5.0658,5.1891,5.2618,5.3566,5.3945,5.404,5.3818,5.3408,5.2934,5.246,5.2365,5.2776,5.3945,5.5083,5.5999,5.6473,5.6536,5.5841,5.4008,5.4155,0.0,5.385,0.0,0.0,5.78,5.8148,5.897,6.0581,6.1119,6.1498,6.1751,6.1529,6.0834,5.9665,5.9412,5.897,5.8321,5.8321,5.8022,5.7579,5.7579,5.72,5.6568,5.7263,5.7453,5.7263,5.799,5.8321,5.8321,5.8321,5.8321,5.8289,5.799,5.72,5.6125,5.5651,5.4861,5.4103,5.4103,5.4103,5.4103,5.4103,5.3787,5.325,5.227,5.167,5.1101,5.0153,4.9892,4.9892,4.9892,4.9892,4.9576,4.8285,4.7806,4.7265,4.5803,4.5483,4.5326,4.4655,4.4541,4.4236,4.3409,4.329,4.3079,4.2447,4.2002,4.1291,4.0097,3.9905,3.9661,3.9409,4.0086,4.0366,4.0046,4.0296,4.0401,4.0156,4.0081,4.0046,4.0156,4.0156,4.0458,4.1055,4.0071,4.0414,4.1918,4.0661,4.074,4.7624,4.8636,4.9331,5.2365,5.3281,5.3502,5.3692,5.3534,5.3155,5.2491,5.1164,5.0089,4.99,4.9457,4.9837,5.1986,5.3281,5.4451,5.5651,5.5967,5.5462,5.366,5.3787,5.3839,5.3502,5.404,0.0,5.6726,5.7263,5.8162,5.9507,6.0265,6.0771,6.0992,6.0771,6.0234,5.9317,5.8812,5.8211,5.7561,5.7561,5.7295,5.6852,5.6852,5.6473,5.5841,5.6536,5.6852,5.6915,5.7611,5.8053,5.8321,5.8321,5.8321,5.8289,5.799,5.7168,5.6125,5.5651,5.4893,5.4103,5.4103,5.4103,5.4103,5.4103,5.3629,5.2965,5.2207,5.1512,5.0816,5.0089,4.9892,4.9892,4.9892,4.9892,4.9552,4.8193,4.7909,4.7504,4.6117,4.6052,4.6017,4.5363,4.4955,4.4503,4.3879,4.3551,4.3084,4.2223,4.1778,4.1237,4.0489,4.0261,4.0016,3.9625,4.0296,4.0574,4.0191,4.0539,4.0574,4.0191,4.0081,4.0011,4.0011,4.0011,4.0633,4.1911,4.0985,4.1505,4.3295,4.2198,4.2046,4.9236,4.9987,5.0563,5.2649,5.3597,5.3882,5.3218,5.246,5.1701,5.0911,4.8573,4.6834,4.7466,4.655,4.6803,5.0256,5.1448,5.2712,5.4755,5.4577,5.4166,5.4071,5.2934,5.2649,5.3913,5.3502,0.0,5.5936,0.0,5.6789,5.8257,5.8938,5.957,6.017,5.957,5.9222,5.9159,5.7832,5.6821,5.6189,5.6189,5.6157,5.6125,5.6125,5.5746,5.507,5.5809,5.6157,5.6252,5.6947,5.7642,5.8321,5.8321,5.8321,5.8226,5.7484,5.6789,5.6189,5.6157,5.5241,5.4103,5.4103,5.4103,5.4103,5.4103,5.3597,5.2902,5.2207,5.148,5.0753,5.0089,4.9892,4.9892,4.9892,4.9892,4.9552,4.8193,4.7909,4.7542,4.6271,4.6337,4.6372,4.5624,4.503,4.4648,4.4579,4.3956,4.3242,4.2633,4.1601,4.1,4.1115,4.078,4.0401,4.0086,4.0677,4.0919,4.0578,4.0885,4.0885,4.0574,4.0191,4.0011,4.0011,4.0041,4.0588,4.1621,4.2268,4.2757,4.3122,4.3723,4.3793,5.0089,5.148,5.2554,5.3597,5.3597,5.3186,5.246,5.1322,4.9963,4.8225,4.6076,4.4243,4.3358,4.3769,4.5033,4.7466,5.0184,5.2554,5.4134,5.5114,5.5083,5.3534,5.3945,5.4071,5.3439,5.366,0.0,0.0,5.5588,5.6789,5.8257,5.8938,5.9159,5.8812,5.8622,5.8022,5.6979,5.6631,5.6378,5.6189,5.6189,5.5904,5.5399,5.5399,5.5019,5.4387,5.5083,5.5715,5.6252,5.6947,5.7642,5.8321,5.8321,5.8321,5.8226,5.7484,5.6789,5.6094,5.5588,5.483,5.4103,5.4103,5.4103,5.4103,5.4103,5.325,5.2238,5.2049,5.1132,5.0153,4.9963,4.9892,4.9892,4.9892,4.9892,4.9552,4.8193,4.7909,4.7616,4.666,4.6547,4.6582,4.648,4.5909,4.5091,4.3969,4.3468,4.3122,4.2967,4.2275,4.1593,4.1148,4.0987,4.0953,4.0925,4.0752,4.0885,4.1458,4.0953,4.0715,4.0919,4.0331,4.0011,4.0011,4.0502,4.126,4.233,4.3008,4.376,4.4626,4.4205,4.3949,5.1796,5.2934,5.3566,5.3629,5.3123,5.2112,5.0153,4.8636,4.6866,4.4148,4.2189,4.064,3.9534,4.0735,4.2663,4.5033,4.8351,5.1353,5.3376,5.4577,5.4956,5.4103,5.4387,5.4609,5.4482,5.4514,5.4545,0.0,5.5557,5.6536,5.7372,5.8306,5.8527,5.7832,5.78,5.7137,5.5746,5.5715,5.5557,5.5272,5.5272,5.5051,5.4672,5.4672,5.4451,5.4134,0.0,5.5241,5.622,5.6599,5.7358,5.8321,5.8321,5.8321,5.8194,5.7137,5.6505,5.6031,5.5019,5.4419,5.4103,5.4103,5.4103,5.4103,5.4103,5.3123,5.2017,5.2017,5.1006,4.9971,5.0214,5.0097,4.9971,5.0253,5.0097,4.9615,4.8573,4.8294,4.8066,4.7429,4.7304,4.7237,4.7067,4.6756,4.6103,4.5011,4.4236,4.3712,4.3712,4.2482,4.1591,4.1321,4.1323,4.1358,4.1461,4.1392,4.1557,4.2046,4.1623,4.1357,4.1392,4.0955,4.0578,4.0405,4.0928,4.1704,4.2781,4.3179,4.3888,4.4911,4.4266,4.3988,5.3724,5.4229,5.404,5.3313,5.2491,5.0943,4.7466,4.5444,4.3295,3.9819,3.7923,3.6753,3.6093,3.7701,4.0072,4.3108,4.6392,4.9647,5.2681,5.3597,5.4229,5.4881,5.4545,5.4703,5.5936,5.5588,5.5228,5.5228,5.5936,5.6283,5.6189,5.7561,5.7895,5.7105,5.6915,5.6176,5.4976,5.4944,5.4703,5.4103,5.4103,5.4103,5.4103,5.4103,5.4103,5.4103,0.0,0.0,5.6062,5.6157,5.6947,5.8148,5.8243,5.8321,5.8162,5.6694,5.6189,5.5999,5.4577,5.4103,5.4103,5.4103,5.4189,5.4231,5.4231,5.3313,5.2236,5.2141,5.115,5.0145,5.0679,5.0416,5.0136,5.0685,5.0377,4.9828,4.9131,4.8866,4.8692,4.8397,4.8293,4.8032,4.7505,4.7337,4.7067,4.6454,4.5357,4.4554,4.4423,4.2509,4.129,4.1555,4.1654,4.1817,4.2077,4.2366,4.2685,4.2969,4.2813,4.2559,4.2269,4.1969,4.1648,4.1326,4.1556,4.2146,4.3099,4.3153,4.3678,4.4572,4.4136,4.3913,5.4703,5.4913,5.4597,5.3408,5.2112,5.0247,4.6771,4.399,4.1146,3.764,3.5394,3.4004,3.3878,3.5552,3.8239,4.222,4.5286,4.8541,5.2554,5.3218,5.3534,5.4198,5.4672,5.5007,5.5304,5.5746,0.0,0.0,0.0,0.0,5.622,5.7561,5.772,5.641,5.5241,5.4514,5.4292,5.4261,5.4229,5.4103,5.4103,5.4103,5.4103,5.4103,5.4103,5.4103,0.0,0.0,5.5367,5.5936,5.6663,5.7453,5.8053,5.8321,5.8162,5.6694,5.6189,5.5999,5.4577,5.4103,5.4103,5.4103,5.4454,5.4957,5.4957,5.4306,5.3535,5.2998,5.1829,5.0818,5.0807,5.0723,5.0685,5.08,5.0723,5.0454,4.978,4.9423,4.9161,4.9127,4.8594,4.8032,4.7505,4.7032,4.6354,4.5218,4.5179,4.4964,4.3976,4.2473,4.1522,4.1588,4.198,4.2654,4.368,4.3555,4.3972,4.5315,4.4785,4.4464,4.4658,4.3967,4.3522,4.3453,4.3293,4.3315,4.3512,4.4065,4.4441,4.461,4.3874,4.3441,5.4913,5.4818,5.4261,5.287,5.1195,4.8794,4.4591,4.1462,3.8365,3.4482,3.2898,3.1981,3.123,3.3751,3.6658,3.906,4.2378,4.6108,5.0342,5.1227,5.2238,5.4387,5.4881,5.5386,5.6112,5.6536,5.6726,0.0,0.0,0.0,5.6757,5.7358,5.7263,5.622,5.5177,5.4451,5.4103,5.4103,5.4103,5.4103,5.4103,5.4103,5.4103,5.4103,5.4103,5.4103,0.0,0.0,5.5134,5.5904,5.6599,5.7295,5.799,5.8321,5.8194,5.7105,5.6505,5.6031,5.4988,5.4387,5.4189,5.4497,5.4832,5.5164,5.5458,5.5092,5.4345,5.3662,5.2721,5.1894,5.1749,5.1512,5.1364,5.1659,5.1512,5.1169,5.0775,5.058,5.0293,4.982,4.9448,4.8789,4.7604,4.7438,4.7038,4.5853,4.5573,4.5391,4.5137,4.3701,4.2568,4.2189,4.2941,4.3654,4.4161,4.4613,4.5287,4.6361,4.5777,4.5496,4.5653,4.4881,4.4461,4.4461,4.4226,4.4035,4.3808,4.4113,4.4113,4.3746,4.3373,4.3037,5.4944,5.4735,5.3945,5.2396,5.0437,4.7593,4.2695,3.9345,3.609,3.2045,3.0946,3.044,2.9493,3.2171,3.492,3.6187,3.9566,4.3516,4.7846,4.9299,5.1123,5.447,5.5134,5.5797,5.7105,5.7358,0.0,0.0,0.0,0.0,0.0,5.7295,5.6884,5.622,5.5493,5.4798,5.4103,5.4103,5.4103,5.4103,5.4103,5.4103,5.4103,5.4103,5.4103,5.4103,0.0,0.0,0.0,5.6005,5.6702,5.7295,5.8173,5.8459,5.8226,5.7476,5.6765,5.6107,5.5383,5.4761,5.4454,5.5254,5.5418,5.5418,5.602,5.5863,5.5237,5.4349,5.3578,5.2959,5.2682,5.2272,5.1987,5.2485,5.2272,5.1855,5.1753,5.1693,5.143,5.0713,5.0304,4.9613,4.8067,4.7935,4.7671,4.6756,4.6099,4.5916,4.6354,4.5295,4.4241,4.3542,4.4199,4.4659,4.4653,4.5742,4.6633,4.7229,4.6895,4.6614,4.6614,4.5962,4.5546,4.544,4.5086,4.4685,4.4258,4.4104,4.3714,4.3198,4.3244,4.3128,5.507,5.5039,5.4502,5.2523,5.0437,4.7593,4.2695,3.8965,3.5493,3.1924,3.0188,2.9461,3.0014,3.0907,3.2619,3.5872,3.8333,4.1494,4.6297,4.8699,5.0974,5.385,5.5304,5.6378,5.7137,5.78,0.0,0.0,0.0,0.0,0.0,5.7579,5.6884,5.622,5.5493,5.4798,5.4103,5.4103,5.4103,5.4103,5.4103,5.4103,5.4103,5.4103,5.4103,5.4146,0.0,0.0,0.0,5.6497,5.7101,5.734,5.8684,5.8837,5.8208,5.7448,5.6762,5.6088,5.5367,5.5031,5.5213,5.6414,5.6414,5.606,5.6719,5.6844,5.6511,5.5118,5.4278,5.3616,5.2815,5.2555,5.252,5.259,5.2555,5.2522,5.2491,5.2336,5.22,5.2131,5.1014,4.9909,4.9226,4.82,4.727,4.6687,4.6518,4.6521,4.6555,4.6835,4.6812,4.6127,4.5505,4.5439,4.6159,4.7151,4.801,4.8748,4.8751,4.872,4.872,4.8189,4.7671,4.7205,4.6308,4.5619,4.5098,4.4343,4.3957,4.3935,4.4251,4.4259,5.4166,5.4514,5.4103,5.2428,5.0121,4.7119,4.26,3.8586,3.492,3.183,3.0093,2.9177,2.9485,3.0117,3.1318,3.3561,3.4952,3.7322,4.1778,4.3864,4.655,5.1037,5.3218,5.5083,0.0,0.0,0.0,0.0,0.0,0.0,0.0,5.6757,5.6283,5.5557,5.5228,5.4798,5.4103,5.4103,5.4103,5.4103,5.4103,5.4103,5.4103,5.4103,5.4103,0.0,0.0,0.0,0.0,5.7064,5.7836,5.7936,5.8908,5.9152,5.8799,5.8116,5.7387,5.6614,5.5963,5.5651,5.5781,5.6719,5.6834,5.6724,5.7364,5.7551,5.7349,5.6306,5.552,5.4807,5.4016,5.3481,5.311,5.311,5.311,5.311,5.311,5.3078,5.2875,5.2401,5.1488,5.0448,4.9458,4.8497,4.7605,4.6722,4.6582,4.6722,4.7032,4.6997,4.7038,4.744,4.7207,4.6975,4.6874,4.7905,4.8714,4.8984,4.9018,4.9018,4.9018,4.8482,4.7967,4.7404,4.6722,4.6171,4.5797,4.5494,4.5072,4.4634,4.5264,4.5132,5.2272,5.307,5.3155,5.1733,4.9331,4.6234,4.222,3.8049,3.432,3.176,3.0093,2.9114,2.9114,2.9516,3.0338,3.1754,3.2898,3.4984,3.8934,4.1083,4.399,4.8762,0.0,5.325,0.0,0.0,0.0,0.0,0.0,0.0,0.0,5.5557,5.543,5.5102,5.5102,5.4798,5.4103,5.4103,5.4103,5.4103,5.4103,5.4103,5.4103,5.4103,5.4103,0.0,0.0,0.0,0.0,5.7796,5.8669,5.8896,5.9187,5.9185,5.8924,5.842,5.7644,5.6755,5.6464,5.6326,5.6414,5.703,5.7252,5.7364,5.7772,5.7881,5.7746,5.7002,5.6122,5.5209,5.4465,5.389,5.3518,5.3518,5.3518,5.3518,5.3518,5.3518,5.3348,5.2773,5.2063,5.1223,5.0324,4.9258,4.8265,4.7496,4.6955,4.686,4.7538,4.7168,4.727,4.8322,4.8418,4.8186,4.7558,4.8402,4.9018,4.9018,4.9018,4.9018,4.9018,4.8642,4.8197,4.7699,4.7324,4.6977,4.6705,4.6591,4.6245,4.569,4.6431,4.6562,4.9336,5.069,5.1701,5.0239,4.7877,4.4907,4.1399,3.7322,3.3719,3.1609,3.0093,2.9114,2.9114,2.9114,2.9588,3.0977,3.2929,3.5489,3.8997,4.1936,4.4713,4.7593,4.911,5.1037,5.385,0.0,0.0,0.0,0.0,0.0,0.0,0.0,5.4419,5.507,5.5102,5.4798,5.4103,5.4103,5.4103,5.4103,5.4103,5.4103,5.4103,5.4103,0.0,0.0,0.0,0.0,0.0,5.8642,5.9615,6.0204,5.9484,5.884,5.8281,5.8144,5.7263,5.6182,5.6756,5.6987,5.7101,5.7698,5.7881,5.7881,5.7881,5.7881,5.7746,5.7002,5.575,5.4431,5.3687,5.3518,5.3518,5.3518,5.3518,5.3518,5.3518,5.3518,5.3518,5.3484,5.2841,5.23,5.2266,5.0625,4.9293,4.9293,4.7761,4.6997,4.8032,4.7737,4.7803,4.8861,4.8984,4.8767,4.8258,4.8704,4.9018,4.9018,4.9018,4.9018,4.9018,4.8984,4.8785,4.842,4.8386,4.8217,4.7877,4.7495,4.7263,4.7294,4.7957,4.8843,4.5002,4.6762,4.7877,4.557,4.4306,4.2758,3.9281,3.6311,3.3719,3.1634,3.0093,2.9114,2.9114,2.9114,3.003,3.2866,3.3878,3.5363,3.8397,4.1619,4.4366,4.6266,5.0587,5.3776,0.0,0.0,0.0,0.0,0.0,0.0,0.0,0.0,5.4198,5.4419,5.4419,5.4324,5.4103,5.4103,5.4103,5.4103,5.4103,5.4103,5.4103,0.0,0.0,0.0,0.0,0.0,0.0,5.9878,6.049,6.0191,5.996,5.9473,5.8822,5.8302,5.7819,5.7364,5.7066,5.7289,5.7662,5.7845,5.7543,5.7239,5.7746,5.7881,5.7645,5.6393,5.5716,5.5074,5.3822,5.3518,5.3518,5.3518,5.3518,5.3518,5.3518,5.3518,5.3518,5.3518,5.2841,5.23,5.23,5.1358,5.0489,5.0093,4.9127,4.8564,4.8927,4.8364,4.8226,4.8923,4.9018,4.8923,4.8767,4.8892,4.9018,4.9018,4.9018,4.9018,4.9018,4.9492,4.9513,4.9028,4.9525,4.9778,4.9815,4.9261,4.9254,4.97,4.9614,5.0147,4.1526,4.3776,4.5096,4.2853,4.1873,4.064,3.7447,3.5075,3.305,3.1191,2.9904,2.9114,2.9114,2.9114,2.9967,3.2708,3.3561,3.4984,3.8081,4.1304,4.4243,4.6676,0.0,0.0,0.0,0.0,0.0,0.0,0.0,0.0,0.0,0.0,5.4103,5.4103,5.4103,5.4103,5.4103,5.4103,5.4103,5.4103,5.4103,5.4103,5.4103,0.0,0.0,0.0,0.0,0.0,0.0,6.0355,6.0772,6.0504,5.9698,5.9118,5.8691,5.8189,5.7845,5.7586,5.7419,5.7588,5.7881,5.7881,5.7577,5.7306,5.7746,5.7712,5.7239,5.6055,5.5513,5.5006,5.3822,5.3518,5.3518,5.3518,5.3518,5.3518,5.3518,5.3518,5.3518,5.3518,5.3112,5.2739,5.2739,5.2131,5.1493,5.1162,5.0326,4.9792,4.999,4.9424,4.9255,4.9767,4.983,4.983,4.983,4.9323,4.912,4.939,4.9424,4.956,4.983,5.027,5.0385,5.0126,5.0559,5.0917,5.1077,5.0455,5.0381,5.08,5.0531,5.0761,0.0,4.1357,4.2855,4.1367,4.0072,3.8428,3.5774,3.3651,0.0,3.0489,2.9611,2.9146,2.9304,2.9272,2.9777,3.1413,3.2803,3.4857,3.8239,4.1272,4.4654,0.0,5.0974,0.0,0.0,0.0,0.0,0.0,0.0,0.0,0.0,0.0,0.0,5.4103,5.4103,5.4103,5.4103,5.4103,5.4103,5.4103,5.4103,5.4177,5.4252,0.0,0.0,0.0,0.0,0.0,0.0,6.0298,6.0617,6.0984,5.8886,5.8058,5.8079,5.7934,5.7551,5.7139,5.7698,5.7881,5.7881,5.7814,5.7848,5.7881,5.7814,5.734,5.6664,5.5919,5.5175,5.4431,5.3687,5.3518,5.3518,5.3518,5.3518,5.3518,5.3518,5.3518,5.3518,5.3518,5.3518,5.3518,5.3518,5.2875,5.2401,5.2401,5.1329,5.0727,5.122,5.0793,5.066,5.1153,5.1185,5.1185,5.1185,4.9965,4.9458,5.0135,5.0168,5.0473,5.1183,5.1219,5.1361,5.1526,5.1592,5.168,5.1733,5.1215,5.0951,5.0951,5.0951,5.0951,3.5439,0.0,3.767,3.5742,3.5394,3.5078,0.0,3.2203,3.1223,3.0362,2.9611,2.9588,3.1248,3.1097,3.1887,3.5426,3.6722,3.8112,4.0514,4.4654,0.0,5.2428,5.3313,0.0,0.0,0.0,0.0,0.0,0.0,0.0,0.0,0.0,0.0,5.4103,5.4103,5.4103,5.4103,5.4103,5.4103,5.4103,5.4103,5.4656,0.0,0.0,0.0,0.0,0.0,0.0,0.0,6.1032,6.0811,6.0283,5.9182,5.8437,5.7934,5.7913,5.7808,5.7698,5.7845,5.7881,5.7814,5.7239,5.7442,5.778,5.7239,5.6934,5.6664,5.5919,5.5175,5.4431,5.3687,5.3518,5.3518,5.3518,5.3518,5.3518,5.3518,5.3518,5.3518,5.3518,5.3518,5.3518,5.3518,5.3348,5.3213,5.3213,5.2437,5.1898,5.203,5.1458,5.1088,5.1185,5.1185,5.1185,5.1185,5.0879,5.0777,5.0947,5.0947,5.1014,5.1185,5.1758,5.2065,5.2101,5.2708,5.2805,5.2414,5.2238,5.2167,5.2167,5.2167,5.2414,3.3751,3.5331,3.6564,3.511,3.4762,3.4474,3.3056,3.1697,3.0528,2.9832,2.9367,2.9556,3.1058,3.1564,3.2645,3.5581,3.7417,3.9787,4.3453,4.7087,5.0437,5.3313,0.0,0.0,0.0,0.0,0.0,0.0,0.0,0.0,0.0,0.0,0.0,0.0,5.4539,5.4412,5.4103,5.4103,5.4103,5.4103,5.4412,5.5133,5.6228,0.0,0.0,0.0,0.0,0.0,6.1264,6.0554,6.0013,5.9539,5.8795,5.8254,5.7881,5.7881,5.7881,5.7881,5.7881,5.7881,5.7814,5.7442,5.7577,5.7814,5.7408,5.707,5.6664,5.5919,5.5175,5.4431,5.3687,5.3518,5.3518,5.3518,5.3518,5.3518,5.3518,5.3518,5.3518,5.3518,5.3518,5.3518,5.3518,5.3518,5.3518,5.3518,5.3145,5.2841,5.2841,5.2503,5.2266,5.2266,5.2266,5.2266,5.2266,5.2266,5.2097,5.1725,5.1725,5.1894,5.2266,5.2638,5.2841,5.2841,5.3281,5.3348,5.3007,5.3065,5.309,5.309,5.3459,5.3768,3.3245,3.5426,3.7257,3.6216,3.5584,3.4857,3.3467,3.1697,3.018,2.9556,2.943,2.9777,3.0939,3.2133,3.3493,3.5142,3.767,4.1305,4.6665,4.8927,5.0879,5.2997,0.0,0.0,0.0,0.0,0.0,0.0,0.0,0.0,0.0,0.0,0.0,0.0,5.5246,5.4957,5.437,5.4231,5.4146,5.4274,5.4832,5.5601,5.6487,5.7028,0.0,0.0,0.0,0.0,6.1028,5.9607,5.9032,5.893,5.8186,5.7881,5.7881,5.7881,5.7881,5.7881,5.7881,5.7881,5.7881,5.7881,5.7881,5.7881,5.7881,5.7442,5.6799,5.6089,5.5277,5.4431,5.3687,5.3518,5.3518,5.3518,5.3518,5.3518,5.3518,5.3518,5.3518,5.3518,5.3518,5.3518,5.3518,5.3518,5.3518,5.3518,5.3518,5.3518,5.3518,5.3518,5.3518,5.3518,5.3518,5.3518,5.3518,5.3518,5.3213,5.2536,5.2469,5.2807,5.3484,5.3518,5.3518,5.3518,5.3518,5.3551,5.3687,5.3777,5.3899,5.4033,5.4634,5.4935,3.3783,3.5802,3.6909,3.4415,3.413,3.4099,3.2766,3.1697,3.1009,3.0882,3.0882,3.1798,3.4861,3.5619,3.6817,3.9945,4.2315,4.5243,0.0,0.0,5.1606,0.0,0.0,0.0,0.0,0.0,0.0,0.0,0.0,0.0,0.0,0.0,0.0,0.0,0.0,5.5821,5.5701,5.4665,5.437,5.4957,5.5081,5.6019,5.7819,5.7897,5.8752,0.0,0.0,0.0,6.0216,5.937,5.9032,5.893,5.8186,5.7881,5.7881,5.7881,5.7881,5.7881,5.7881,5.7881,5.7881,5.7881,5.7881,5.7881,5.7881,5.7814,5.7577,5.6833,5.5649,5.4431,5.3687,5.3518,5.3518,5.3518,5.3518,5.3518,5.3518,5.3518,5.3518,5.3518,5.3518,5.3518,5.3518,5.3518,5.3518,5.3518,5.3518,5.3518,5.3518,5.3518,5.3518,5.3518,5.3518,5.3518,5.3518,5.3518,5.345,5.3315,5.3315,5.3382,5.3484,5.3518,5.3518,5.3518,5.3518,5.3822,5.4431,5.4464,5.4766,5.5407,5.5508,5.5576,3.2455,3.4038,3.5382,3.4596,3.5774,3.6848,3.5868,3.451,3.3467,3.3467,3.3467,3.4067,3.6029,3.7905,4.0665,4.5204,4.6227,4.7596,5.0916,5.1795,0.0,0.0,0.0,0.0,0.0,0.0,0.0,0.0,0.0,0.0,0.0,0.0,0.0,0.0,0.0,0.0,5.6531,5.562,5.5295,5.558,5.5941,5.681,5.8125,5.8433,5.914,0.0,0.0,5.9505,5.9471,5.8727,5.8423,5.8355,5.8017,5.7881,5.7881,5.7881,5.7881,5.7881,5.7881,5.7881,5.7881,5.7881,5.7881,5.7881,5.7881,5.7881,5.7746,5.7002,5.6021,5.504,5.4296,5.3788,5.3518,5.3518,5.3518,5.3518,5.3518,5.3518,5.3518,5.3518,5.3518,5.3518,5.3518,5.3518,5.3518,5.3518,5.3518,5.3518,5.3518,5.3518,5.3518,5.3518,5.3518,5.3518,5.3518,5.3518,5.3518,5.3518,5.3518,5.3518,5.3518,5.3518,5.3518,5.3518,5.389,5.4262,5.46,5.5378,5.5953,5.6325,5.6697,5.69,3.1734,3.2889,3.4334,3.5653,3.7343,3.874,3.8934,3.7504,3.6285,3.6921,3.6953,3.708,3.7909,4.073,4.4464,4.9176,4.9328,4.977,5.2436,0.0,0.0,0.0,0.0,0.0,0.0,0.0,0.0,0.0,0.0,0.0,0.0,0.0,0.0,0.0,0.0,0.0,5.7214,5.6685,5.6375,5.6257,5.6757,5.7363,5.8084,5.8538,5.9066,5.9539,5.8998,5.8761,5.8693,5.8118,5.7881,5.7881,5.7881,5.7881,5.7881,5.7881,5.7881,5.7881,5.7881,5.7881,5.7881,5.7881,5.7881,5.7881,5.7881,5.7881,5.778,5.7205,5.6528,5.5818,5.504,5.4431,5.3991,5.3788,5.3754,5.3721,5.3551,5.3518,5.3518,5.3518,5.3518,5.3518,5.3518,5.3518,5.3518,5.3518,5.3518,5.3518,5.3518,5.3518,5.3518,5.3518,5.3518,5.3518,5.3518,5.3518,5.3518,5.3518,5.3518,5.3518,5.3518,5.3518,5.3585,5.3754,5.4296,5.4769,5.5108,5.6258,5.69,5.707,5.7645,5.7881,3.3342,3.3947,3.4836,3.7246,3.7038,3.6986,3.9818,3.9202,3.8811,4.146,4.1491,4.1459,4.2751,4.533,4.799,5.0255,5.1177,5.2533,0.0,0.0,0.0,0.0,0.0,0.0,0.0,0.0,0.0,0.0,0.0,0.0,0.0,0.0,0.0,0.0,0.0,0.0,5.7845,5.7772,5.7476,5.6949,5.6987,5.7323,5.7946,5.7983,5.8017,5.8051,5.7983,5.7983,5.7983,5.7915,5.7881,5.7881,5.7881,5.7881,5.7881,5.7881,5.7881,5.7881,5.7881,5.7881,5.7881,5.7881,5.7881,5.7881,5.7881,5.7881,5.7881,5.7814,5.7273,5.6562,5.5818,5.5546,5.5378,5.4668,5.4499,5.4329,5.3653,5.3518,5.3518,5.3518,5.3518,5.3518,5.3518,5.3518,5.3518,5.3518,5.3518,5.3518,5.3518,5.3518,5.3518,5.3518,5.3518,5.3518,5.3518,5.3518,5.3518,5.3518,5.3518,5.3518,5.3518,5.3518,5.3822,5.4499,5.4566,5.5277,5.663,5.6765,5.7137,5.7814,5.7881,5.7881,3.2072,3.403,3.6346,3.6873,3.8663,4.0808,4.2687,4.2944,4.359,4.6452,4.6153,4.5728,4.6947,4.8092,4.9798,5.2664,5.314,5.3951,0.0,0.0,0.0,0.0,0.0,0.0,0.0,0.0,0.0,0.0,0.0,0.0,0.0,0.0,0.0,0.0,0.0,0.0,0.0,5.7881,5.7772,5.7551,5.7551,5.7662,5.7881,5.7881,5.7881,5.7881,5.7881,5.7881,5.7881,5.7881,5.7881,5.7881,5.7881,5.7881,5.7881,5.7881,5.7881,5.7881,5.7881,5.7881,5.7881,5.7881,5.7881,5.7881,5.7881,5.7881,5.7881,5.7881,5.7679,5.7306,5.6596,5.6055,5.5614,5.5344,5.5277,5.5074,5.4329,5.4532,5.46,5.3687,5.3856,5.4025,5.3585,5.3518,5.3518,5.3518,5.3518,5.3518,5.3518,5.3518,5.3518,5.3518,5.3923,5.416,5.416,5.46,5.4871,5.4871,5.4025,5.3518,5.3518,5.3923,5.4296,5.4566,5.548,5.6224,5.6799,5.7273,5.7611,5.7881,5.7881,5.7881,3.2452,3.4625,3.729,3.7607,4.0315,4.3535,4.5995,4.6485,4.7335,5.0674,5.0063,4.9104,4.9723,5.0018,5.1082,0.0,5.4449,0.0,0.0,0.0,0.0,0.0,0.0,0.0,0.0,0.0,0.0,0.0,0.0,0.0,0.0,0.0,0.0,0.0,0.0,0.0,0.0,5.7881,5.7881,5.7881,5.7881,5.7881,5.7881,5.7881,5.7881,5.7881,5.7881,5.7881,5.7881,5.7881,5.7881,5.7881,5.7881,5.7881,5.7881,5.7881,5.7881,5.7881,5.7881,5.7881,5.7881,5.7881,5.7881,5.7881,5.7881,5.7881,5.7881,5.7881,5.7881,5.778,5.7273,5.6765,5.6359,5.6122,5.6055,5.5852,5.5108,5.5344,5.5412,5.4397,5.46,5.4803,5.4296,5.4194,5.4194,5.4194,5.4194,5.4194,5.4194,5.4194,5.4194,5.4194,5.4668,5.4938,5.4938,5.5412,5.5681,5.5681,5.4769,5.4194,5.4194,5.4668,5.504,5.5277,5.6292,5.69,5.7137,5.7645,5.7881,5.7881,5.7881,5.7881,3.528,3.5951,3.7451,3.9887,4.1722,4.4311,4.9424,4.949,4.9658,5.3961,5.3059,5.1388,5.0829,5.1179,5.2026,5.3561,0.0,0.0,0.0,0.0,0.0,0.0,0.0,0.0,0.0,0.0,0.0,0.0,0.0,0.0,0.0,0.0,0.0,0.0,0.0,0.0,0.0,5.7881,5.7881,5.7881,5.7881,5.7881,5.7881,5.7881,5.7881,5.7881,5.7881,5.7881,5.7881,5.7881,5.7881,5.7881,5.7881,5.7881,5.7881,5.7881,5.7881,5.7881,5.7881,5.7881,5.7881,5.7881,5.7881,5.7881,5.7881,5.7881,5.7881,5.7881,5.7881,5.7881,5.7881,5.7881,5.7712,5.6968,5.6799,5.663,5.5886,5.575,5.575,5.5681,5.5716,5.5716,5.5681,5.5681,5.5681,5.5681,5.5681,5.5681,5.5681,5.5681,5.5681,5.5681,5.5716,5.5681,5.5681,5.575,5.575,5.575,5.575,5.5681,5.5681,5.5716,5.6055,5.6799,5.6799,5.7171,5.7881,5.7881,5.7881,5.7881,5.7881,5.7881,3.4782,3.7041,4.0079,4.0723,4.4883,4.9342,5.1563,5.166,5.2091,5.4989,5.5384,5.4861,5.3646,5.3984,0.0,0.0,0.0,0.0,0.0,0.0,0.0,0.0,0.0,0.0,0.0,0.0,0.0,0.0,0.0,0.0,0.0,0.0,0.0,0.0,0.0,0.0,0.0,0.0,5.7881,5.7881,5.7881,5.7881,5.7881,5.7881,5.7881,5.7881,5.7881,5.7881,5.7881,5.7881,5.7881,5.7881,5.7881,5.7881,5.7881,5.7881,5.7881,5.7881,5.7881,5.7881,5.7881,5.7881,5.7881,5.7881,5.7881,5.7881,5.7881,5.7881,5.7881,5.7881,5.7881,5.7881,5.7814,5.7611,5.7577,5.7374,5.663,5.6867,5.6934,5.5919,5.6122,5.6325,5.5818,5.5681,5.5681,5.5681,5.5681,5.5681,5.5681,5.5681,5.5681,5.5681,5.6156,5.6461,5.6461,5.6934,5.7239,5.7239,5.7239,5.6799,5.575,5.6224,5.6596,5.6799,5.7306,5.7679,5.7881,5.7881,5.7881,5.7881,5.7881,5.7881,3.6947,3.9396,4.2422,4.3885,4.7502,5.1389,5.3782,5.4481,5.5015,5.6389,5.6513,5.619,5.5581,5.5615,0.0,0.0,0.0,0.0,0.0,0.0,0.0,0.0,0.0,0.0,0.0,0.0,0.0,0.0,0.0,0.0,0.0,0.0,0.0,0.0,0.0,0.0,0.0,0.0,0.0,5.7442,5.7171,5.7036,5.7036,5.7611,5.7881,5.7881,5.7881,5.7881,5.7881,5.7881,5.7881,5.7881,5.7881,5.7712,5.7476,5.778,5.7712,5.7476,5.778,5.7881,5.7881,5.7881,5.7881,5.7881,5.7881,5.7881,5.7881,5.7881,5.7881,5.7881,5.7881,5.7881,5.7881,5.7881,5.7881,5.778,5.734,5.7577,5.7645,5.6765,5.6934,5.7103,5.6664,5.6562,5.6562,5.6562,5.6562,5.6562,5.6562,5.6562,5.6562,5.6562,5.6968,5.7239,5.7239,5.7645,5.7881,5.7881,5.7881,5.7476,5.663,5.7002,5.7239,5.7239,5.7679,5.7881,5.7881,5.7881,5.7881,5.7881,5.7881,5.7881,4.0256,4.2185,4.4418,4.8173,4.9898,5.1792,5.5953,5.7408,5.7881,5.7881,5.6833,5.6122,5.6799,5.6359,0.0,0.0,0.0,0.0,0.0,0.0,0.0,0.0,0.0,0.0,0.0,0.0,0.0,0.0,0.0,0.0,0.0,0.0,0.0,0.0,0.0,0.0,0.0,0.0,0.0,0.0,0.0,5.5681,5.575,5.7103,5.7712,5.778,5.7848,5.7881,5.7881,5.7814,5.7814,5.7881,5.7814,5.7408,5.6968,5.7645,5.7476,5.7002,5.7645,5.7881,5.7881,5.7881,5.7881,5.7881,5.7881,5.7881,5.7881,5.7881,5.7881,5.7881,5.7881,5.7881,5.7881,5.7881,5.7881,5.7881,5.7881,5.7881,5.7881,5.7881,5.7881,5.7881,5.7881,5.7881,5.7881,5.7881,5.7881,5.7881,5.7881,5.7881,5.7881,5.7881,5.7881,5.7881,5.7881,5.7881,5.7881,5.7881,5.7881,5.7881,5.7881,5.7881,5.7881,5.7881,5.7881,5.7881,5.7881,5.7881,5.7881,5.7881,5.7881,5.7881,3.8608,4.1407,4.5229,4.8917,5.2638,5.575,5.7306,5.778,5.7881,5.7881,5.7645,5.7476,5.7611,5.7509,0.0,0.0,0.0,0.0,0.0,0.0,0.0,0.0,0.0,0.0,0.0,0.0,0.0,0.0,0.0,0.0,0.0,0.0,0.0,0.0,0.0,0.0,5.7881,5.7171,5.6799,0.0,5.6055,5.5681,5.5681,5.6055,5.6494,5.707,5.7645,5.7881,5.7848,5.7273,5.7374,5.7814,5.7273,5.7273,5.7679,5.7814,5.778,5.7679,5.7814,5.7881,5.7881,5.7881,5.7881,5.7881,5.7881,5.7881,5.7881,5.7881,5.7881,5.7881,5.7881,5.7881,5.7881,5.7881,5.7881,5.7881,5.7881,5.7881,5.7881,5.7881,5.7881,5.7881,5.7881,5.7881,5.7881,5.7881,5.7881,5.7881,5.7881,5.7881,5.7881,5.7881,5.7881,5.7881,5.7881,5.7881,5.7881,5.7881,5.7881,5.7881,5.7881,5.7881,5.7881,5.7881,5.7881,5.7881,5.7881,5.7881,5.7881,5.7881,5.7881,5.7881,3.9005,4.2252,4.6278,5.1048,5.4803,5.7408,5.7814,5.7881,5.7881,5.7881,5.7881,5.7881,5.7881,0.0,0.0,0.0,0.0,0.0,0.0,0.0,0.0,0.0,0.0,0.0,0.0,0.0,0.0,0.0,0.0,0.0,0.0,0.0,0.0,0.0,0.0,0.0,5.7374,5.663,5.6089,5.575,5.5378,5.5378,5.5681,5.5681,5.5919,5.6292,5.6697,5.6867,5.6833,5.6427,5.6494,5.6833,5.6799,5.6833,5.6934,5.7645,5.7679,5.7408,5.778,5.7881,5.7881,5.7881,5.7881,5.7881,5.7881,5.7881,5.7881,5.7881,5.7881,5.7881,5.7881,5.7881,5.7881,5.7881,5.7881,5.7881,5.7881,5.7881,5.7881,5.7881,5.7881,5.7881,5.7881,5.7881,5.7881,5.7881,5.7881,5.7881,5.7881,5.7881,5.7881,5.7881,5.7881,5.7881,5.7881,5.7881,5.7881,5.7881,5.7881,5.7881,5.7881,5.7881,5.7881,5.7881,5.7881,5.7881,5.7881,5.7881,5.7881,5.7881,5.7881,5.8084,3.8836,4.2828,4.7293,5.3145,5.6156,5.7712,5.7848,5.7881,5.7881,5.7881,5.7881,5.7881,0.0,0.0,0.0,0.0,0.0,0.0,0.0,0.0,0.0,0.0,0.0,0.0,0.0,0.0,0.0,0.0,0.0,0.0,0.0,0.0,0.0,0.0,0.0,5.7611,5.7002,5.6258,5.5581,5.4972,5.4837,5.5108,5.5681,5.5681,5.5681,5.5716,5.5852,5.5818,5.5716,5.5581,5.5683,5.5953,5.6427,5.6393,5.6258,5.7442,5.7509,5.707,5.7679,5.7881,5.7881,5.7881,5.7881,5.7881,5.7881,5.7881,5.7881,5.7881,5.7881,5.7881,5.7881,5.7881,5.7881,5.7881,5.7881,5.7881,5.7881,5.7881,5.7881,5.7881,5.7881,5.7881,5.7881,5.7881,5.7881,5.7881,5.7881,5.7881,5.7881,5.7881,5.7881,5.7881,5.7881,5.7881,5.7881,5.7881,5.7881,5.7881,5.7881,5.7881,5.7881,5.7881,5.7881,5.7881,5.7881,5.7881,5.7881,5.7881,5.7881,5.7881,5.8017,5.8423,3.4303,4.0426,4.7936,5.3247,5.5784,5.7103,5.7746,5.7881,5.7881,5.7881,5.7881,5.7881,0.0,0.0,0.0,0.0,0.0,0.0,0.0,0.0,0.0,0.0,0.0,0.0,0.0,0.0,0.0,0.0,0.0,0.0,0.0,0.0,5.7881,5.7881,5.7881,0.0,5.7746,5.7036,5.6596,5.6494,5.5852,5.5615,5.5681,5.5681,5.5681,5.575,5.6393,5.6292,5.5683,5.5006,5.5513,5.6596,5.6089,5.6562,5.7611,5.7814,5.7814,5.7746,5.7848,5.7881,5.7881,5.7881,5.7881,5.7881,5.7881,5.7881,5.7881,5.7881,5.7881,5.7881,5.7881,5.7881,5.7881,5.7881,5.7881,5.7881,5.7881,5.7881,5.7881,5.7881,5.7881,5.7881,5.7881,5.7881,5.7881,5.7881,5.7881,5.7881,5.7881,5.7881,5.7881,5.7881,5.7881,5.7881,5.7881,5.7881,5.7881,5.7881,5.7881,5.7881,5.7881,5.7881,5.7881,5.7881,5.7881,5.7881,5.7881,5.7881,5.7881,5.7915,5.8558,5.893,3.7144,4.2489,4.7936,5.2773,5.4769,5.575,5.6494,5.7002,5.7273,5.7273,5.7611,0.0,0.0,0.0,0.0,0.0,0.0,0.0,0.0,0.0,0.0,0.0,0.0,0.0,0.0,0.0,0.0,0.0,0.0,0.0,0.0,5.7679,5.7881,5.7881,5.7881,0.0,5.7273,5.6968,5.6799,5.6799,5.6461,5.6528,5.6934,5.6934,5.6494,5.575,5.6055,5.6021,5.5683,5.5344,5.5615,5.619,5.6292,5.6697,5.734,5.7746,5.7881,5.7881,5.7881,5.7881,5.7881,5.7881,5.7881,5.7881,5.7881,5.7881,5.7881,5.7881,5.7881,5.7881,5.7881,5.7881,5.7881,5.7881,5.7881,5.7881,5.7881,5.7881,5.7881,5.7881,5.7881,5.7881,5.7881,5.7881,5.7881,5.7881,5.7881,5.7881,5.7881,5.7881,5.7881,5.7881,5.7881,5.7881,5.7881,5.7881,5.7881,5.7881,5.7881,5.7881,5.7881,5.7881,5.7881,5.7881,5.7881,5.7881,5.7881,5.7881,5.8118,5.8524,5.8863,5.9471,3.8531,4.2388,4.55,5.0777,5.2909,5.4025,5.5175,5.6156,5.6765,0.0,0.0,0.0,0.0,0.0,0.0,0.0,0.0,0.0,0.0,0.0,0.0,0.0,0.0,0.0,0.0,0.0,0.0,0.0,0.0,0.0,5.6799,5.7476,5.7881,5.7881,5.7881,5.7645,5.707,5.707,5.707,5.707,5.707,5.7374,5.7881,5.7881,5.7306,5.6258,5.6089,5.5886,5.5681,5.5681,5.5818,5.6055,5.6596,5.69,5.7137,5.7679,5.7881,5.7881,5.7881,5.7881,5.7881,5.7881,5.7881,5.7881,5.7881,5.7881,5.7881,5.7881,5.7881,5.7881,5.7881,5.7881,5.7881,5.7881,5.7881,5.7881,5.7881,5.7881,5.7881,5.7881,5.7881,5.7881,5.7881,5.7881,5.7881,5.7881,5.7881,5.7881,5.7881,5.7881,5.7881,5.7881,5.7881,5.7881,5.7881,5.7881,5.7881,5.7881,5.7881,5.7881,5.7881,5.7881,5.7881,5.7881,5.7881,5.7881,5.7881,5.7881,5.8287,5.9032,5.9201,6.0013,3.4281,3.6603,3.9073,4.638,4.9799,5.1961,5.416,5.575,5.6596,5.5919,0.0,0.0,0.0,0.0,0.0,0.0,0.0,0.0,0.0,0.0,0.0,0.0,0.0,0.0,0.0,0.0,0.0,0.0,0.0,0.0,5.6765,5.7476,5.7881,5.7881,5.7881,5.7881,5.7814,5.7814,5.7814,5.7814,5.7814,5.7848,5.7881,5.7881,5.7848,5.7746,5.7036,5.6359,5.5681,5.5681,5.6122,5.6765,5.6799,5.7239,5.7848,5.7881,5.7881,5.7881,5.7881,5.7881,5.7881,5.7881,5.7881,5.7881,5.7881,5.7881,5.7881,5.7881,5.7881,5.7881,5.7881,5.7881,5.7881,5.7881,5.7881,5.7881,5.7881,5.7881,5.7881,5.7881,5.7881,5.7881,5.7881,5.7881,5.7881,5.7881,5.7881,5.7881,5.7881,5.7881,5.7881,5.7881,5.7881,5.7881,5.7881,5.7881,5.7881,5.7881,5.7881,5.7881,5.7881,5.7881,5.7881,5.7881,5.7881,5.7881,5.7881,5.7881,5.8287,5.9032,5.9708,6.0486,3.278,3.5453,3.8599,4.3166,4.6007,4.8274,5.0507,5.2909,5.46,5.4363,0.0,0.0,0.0,0.0,0.0,0.0,0.0,0.0,0.0,0.0,0.0,0.0,0.0,0.0,0.0,0.0,0.0,0.0,0.0,0.0,5.6799,5.7476,5.7881,5.7881,5.7881,5.7881,5.7881,5.7881,5.7881,5.7881,5.7881,5.7881,5.7881,5.7881,5.7881,5.7881,5.7611,5.734,5.7103,5.7103,5.7273,5.7509,5.7509,5.7645,5.7881,5.7881,5.7881,5.7881,5.7881,5.7881,5.7881,5.7881,5.7881,5.7881,5.7881,5.7881,5.7881,5.7881,5.7881,5.7881,5.7881,5.7881,5.7881,5.7881,5.8254,5.849,5.7983,5.7881,5.7881,5.7881,5.7881,5.7881,5.7881,5.7881,5.7881,5.7881,5.7881,5.7881,5.7881,5.8321,5.8626,5.8626,5.9032,5.9302,5.9302,5.9302,5.9099,5.866,5.8626,5.8389,5.7915,5.7881,5.7881,5.7881,5.7881,5.7881,5.7881,5.7881,5.8524,5.9708,5.9979,6.0791,3.1379,3.3728,3.6907,4.0629,4.2489,4.4485,4.8477,5.0744,5.2198,0.0,0.0,0.0,0.0,0.0,0.0,0.0,0.0,0.0,0.0,0.0,0.0,0.0,0.0,0.0,0.0,0.0,0.0,0.0,0.0,0.0,5.6799,5.7476,5.7881,5.7881,5.7881,5.7881,5.7881,5.7881,5.7881,5.7881,5.7881,5.7881,5.7881,5.7645,5.7582,5.7656,5.7418,5.755,5.7881,5.7881,5.7881,5.7881,5.7881,5.7881,5.7881,5.7881,5.7881,5.7881,5.7881,5.7881,5.7881,5.7881,5.7881,5.7881,5.7881,5.7881,5.7881,5.7881,5.7881,5.7881,5.7881,5.7881,5.7949,5.822,5.866,5.893,5.8693,5.8423,5.8186,5.7949,5.7881,5.7983,5.822,5.8254,5.8355,5.8592,5.8626,5.8626,5.8626,5.9066,5.937,5.937,5.981,6.0114,6.0114,6.0114,5.9911,5.9404,5.937,5.9167,5.866,5.8389,5.8254,5.8254,5.8017,5.7881,5.7881,5.7881,5.866,6.0114,6.0114,6.0926,0.0,0.0,0.0,3.8589,3.9368,4.0798,4.8071,4.9221,4.9424,0.0,0.0,0.0,0.0,0.0,0.0,0.0,0.0,0.0,0.0,0.0,0.0,0.0,0.0,0.0,0.0,0.0,0.0,0.0,0.0,5.6089,5.6799,5.7509,5.7881,5.7881,5.7881,5.7881,5.7848,5.7848,5.7848,5.7814,5.7814,5.7814,5.7814,5.7103,5.6978,5.726,5.6543,5.6847,5.785,5.7884,5.7884,5.7884,5.7918,5.7918,5.7881,5.7881,5.7881,5.7881,5.7881,5.7881,5.7881,5.7881,5.7881,5.7881,5.7881,5.7881,5.7881,5.7881,5.7881,5.7881,5.7881,5.7915,5.8118,5.8829,5.9032,5.9268,5.9945,5.9573,5.8863,5.8084,5.7949,5.8186,5.893,5.9032,5.9302,5.9979,6.0114,6.0114,6.0114,6.0114,6.0148,6.0148,6.0148,6.0182,6.0182,6.0182,6.0148,6.0148,6.0148,6.0114,6.0114,5.9438,5.9032,5.9032,5.8321,5.7949,5.7949,5.7915,5.866,6.0114,6.0148,6.096,2.9687,0.0,0.0,0.0,0.0,0.0,0.0,0.0,0.0,0.0,0.0,0.0,0.0,0.0,0.0,0.0,0.0,0.0,0.0,0.0,0.0,0.0,0.0,0.0,0.0,0.0,0.0,0.0,0.0,5.7374,5.7577,5.778,5.7881,5.7881,5.7881,5.7645,5.7103,5.7103,5.6833,5.6325,5.6325,5.6325,5.6325,5.6369,5.644,5.6509,5.654,5.6745,5.7089,5.7672,5.7706,5.7495,5.8109,5.8135,5.7881,5.7881,5.7881,5.7881,5.7881,5.7881,5.7881,5.7881,5.7881,5.7881,5.7881,5.7881,5.7881,5.7881,5.7881,5.7881,5.7881,5.8287,5.8761,5.8964,5.9877,6.0554,6.0182,6.0419,6.0419,5.9641,5.9471,5.9573,5.9776,5.981,5.9877,6.008,6.0114,6.0114,6.0114,6.0622,6.096,6.096,6.1434,6.1738,6.1738,6.1738,6.1535,6.0994,6.096,6.0723,6.0114,5.9911,5.981,5.981,5.9607,5.9471,5.9471,5.8964,5.9201,6.0148,6.1231,6.1975,3.1278,3.2104,3.3491,3.3897,0.0,0.0,0.0,4.073,0.0,0.0,0.0,0.0,0.0,0.0,0.0,0.0,0.0,0.0,0.0,0.0,0.0,0.0,0.0,0.0,0.0,0.0,0.0,0.0,5.7442,5.7577,5.7881,5.7611,5.7442,5.7442,5.7137,5.6799,5.6359,5.6359,5.6156,5.5681,5.5681,5.5786,5.5892,5.5792,5.5891,5.6155,5.604,5.6062,5.6258,5.7054,5.742,5.7569,5.7877,5.8041,5.8099,5.7954,5.7881,5.7881,5.7881,5.7881,5.7881,5.7881,5.7881,5.7881,5.7881,5.7881,5.7881,5.7881,5.8118,5.8355,5.8355,5.893,5.9539,5.9877,6.0655,6.1264,6.1095,6.1434,6.1434,6.0317,6.0114,6.0216,6.0554,6.0588,6.0723,6.0994,6.1061,6.1061,6.1061,6.1467,6.1772,6.1772,6.2144,6.2381,6.2381,6.2381,6.2212,6.1772,6.1772,6.1535,6.1061,6.0757,6.0588,6.0588,6.0283,6.0283,6.0588,5.9844,5.9844,6.0622,6.1839,6.2381,3.3863,3.3795,3.4472,3.6806,0.0,0.0,4.167,4.1297,0.0,0.0,0.0,0.0,0.0,0.0,0.0,0.0,0.0,0.0,0.0,0.0,0.0,0.0,0.0,0.0,0.0,0.0,0.0,5.663,5.6765,5.7036,5.7611,5.7103,5.6765,5.6697,5.6055,5.5683,5.5581,5.5581,5.5547,5.548,5.5515,5.5654,5.5962,5.5345,5.5398,5.5935,5.5336,5.5204,5.5578,5.621,5.6962,5.7667,5.7432,5.7773,5.8318,5.8027,5.7881,5.7881,5.7881,5.7881,5.7918,5.7954,5.7918,5.7918,5.7954,5.7918,5.7881,5.7881,5.8423,5.9032,5.9032,5.9607,6.0419,6.1129,6.1366,6.1603,6.2245,6.2381,6.1975,6.0622,6.0351,6.0588,6.1298,6.1434,6.1637,6.2279,6.2381,6.2381,6.2381,6.2381,6.2381,6.2381,6.2381,6.2381,6.2381,6.2381,6.2381,6.2381,6.2381,6.2381,6.2381,6.1772,6.1434,6.1434,6.0723,6.0723,6.1434,6.052,6.0554,6.1434,6.2076,6.2381,3.5532,3.6073,3.6603,0.0,0.0,0.0,3.5035,3.517,3.64,0.0,0.0,0.0,0.0,0.0,0.0,0.0,0.0,0.0,0.0,0.0,0.0,0.0,0.0,0.0,0.0,0.0,5.5784,5.5919,5.6461,5.6596,5.6156,5.6562,5.6528,5.5953,5.5784,5.5412,5.4803,5.4803,5.4532,5.3923,5.4227,5.4359,5.4457,5.4834,5.5077,5.5201,5.5369,5.5448,5.5507,5.5683,5.6003,5.6542,5.7426,5.7672,5.7532,5.7789,5.7881,5.7881,5.7881,5.7881,5.7954,5.8277,5.8135,5.7954,5.8312,5.8135,5.7881,5.7881,5.8423,5.9032,5.9032,6.0047,6.1129,6.1264,6.1738,6.2212,6.2347,6.2381,6.2313,6.2009,6.1941,6.2009,6.2144,6.2178,6.2212,6.2381,6.2381,6.2381,6.2381,6.2381,6.2381,6.2381,6.2381,6.2381,6.2381,6.2381,6.2381,6.2381,6.2381,6.2381,6.2381,6.2245,6.2178,6.2178,6.2009,6.2009,6.2178,6.0791,6.0825,6.2178,6.2313,6.2381,3.7821,3.7584,0.0,3.6941,0.0,0.0,0.0,3.5588,3.5893,3.8937,0.0,0.0,0.0,0.0,0.0,0.0,0.0,0.0,0.0,0.0,0.0,0.0,0.0,0.0,0.0,0.0,5.531,5.5683,5.6055,5.6089,5.575,5.5716,5.5513,5.5175,5.4803,5.4431,5.4059,5.4059,5.3856,5.3518,5.385,5.4078,5.4271,5.4776,5.5083,5.5234,5.5419,5.5507,5.5507,5.5507,5.5599,5.5907,5.7094,5.7662,5.7876,5.8323,5.835,5.8207,5.8385,5.835,5.8243,5.8632,5.8597,5.8456,5.849,5.8241,5.7881,5.7881,5.8423,5.9099,5.9471,6.0419,6.14,6.1772,6.211,6.2381,6.2381,6.2381,6.2381,6.2381,6.2381,6.2381,6.2381,6.2381,6.2381,6.2381,6.2381,6.2381,6.2381,6.2381,6.2381,6.2381,6.2381,6.2381,6.2381,6.2381,6.2381,6.2381,6.2381,6.2381,6.2381,6.2381,6.2381,6.2381,6.2042,6.2009,6.2381,6.1264,6.1264,6.2381,6.2381,6.2381,0.0,0.0,0.0,0.0,0.0,3.7425,0.0,0.0,0.0,3.9343,0.0,0.0,0.0,0.0,0.0,0.0,0.0,0.0,0.0,0.0,0.0,0.0,0.0,0.0,0.0,0.0,5.3788,5.4972,5.4803,5.4837,5.5242,5.4837,5.4532,5.4397,5.3822,5.3518,5.3518,5.3518,5.3518,5.3518,5.3916,5.4239,5.4494,5.49,5.5234,5.5507,5.5507,5.5507,5.5507,5.5507,5.5507,5.5618,5.6582,5.7466,5.8198,5.8665,5.8703,5.8631,5.8909,5.8806,5.8632,5.9012,5.9115,5.9047,5.8631,5.8277,5.7991,5.7918,5.8423,5.9167,5.9911,6.0689,6.1501,6.2212,6.2381,6.2381,6.2381,6.2381,6.2381,6.2381,6.2381,6.2381,6.2381,6.2381,6.2381,6.2381,6.2381,6.2381,6.2381,6.2381,6.2381,6.2381,6.2381,6.2381,6.2381,6.2381,6.2381,6.2381,6.2381,6.2381,6.2381,6.2381,6.2381,6.2381,6.1806,6.1806,6.2381,6.1806,6.1806,6.2381,6.2381,6.2381,0.0,0.0,0.0,0.0,4.0832,0.0,0.0,0.0,3.6423,3.5453,0.0,0.0,0.0,0.0,0.0,0.0,0.0,0.0,0.0,0.0,0.0,0.0,0.0,0.0,0.0,0.0,0.0,5.2469,5.1454,5.1623,5.3653,5.4296,5.4296,5.3653,5.3551,5.3518,5.3518,5.3518,5.3518,5.3518,5.4145,5.4463,5.4494,5.5144,5.5478,5.5507,5.5507,5.5507,5.5507,5.5507,5.5507,5.5553,5.6024,5.67,5.7399,5.787,5.8427,5.8944,5.8978,5.8978,5.9012,5.9385,5.9518,5.9385,5.8736,5.849,5.8384,5.7991,5.8423,5.9167,5.9911,6.0689,6.1501,6.2212,6.2381,6.2381,6.2381,6.2381,6.2381,6.2381,6.2381,6.2381,6.2381,6.2381,6.2381,6.2381,6.2381,6.2381,6.2381,6.2381,6.2381,6.2381,6.2381,6.2381,6.2381,6.2381,6.2381,6.2381,6.2381,6.2381,6.2381,6.2381,6.2381,6.2381,6.2313,6.2313,6.2381,6.2313,6.2313,6.2381,6.2381,6.2381,0.0,0.0,0.0,0.0,0.0,0.0,3.7347,0.0,3.5543,0.0,0.0,0.0,0.0,0.0,0.0,0.0,0.0,0.0,0.0,0.0,0.0,0.0,0.0,0.0,0.0,0.0,0.0,0.0,0.0,4.9796,5.2063,5.2875,5.3348,5.3518,5.3518,5.3518,5.3518,5.3518,5.3518,5.3518,5.4177,5.4494,5.4494,5.5209,5.5507,5.5507,5.5507,5.5507,5.5507,5.5507,5.5507,5.5513,5.5679,5.6488,5.7611,5.8288,5.8892,5.9351,5.9551,5.9518,5.9385,5.9748,5.9783,5.9553,5.9217,5.884,5.8455,5.8312,5.8606,5.9167,5.9911,6.0689,6.1501,6.2212,6.2381,6.2381,6.2381,6.2381,6.2381,6.2381,6.2381,6.2381,6.2381,6.2381,6.2381,6.2381,6.2381,6.2381,6.2381,6.2381,6.2381,6.2381,6.2381,6.2381,6.2381,6.2381,6.2381,6.2381,6.2381,6.2381,6.2381,6.2381,6.2381,6.2381,6.2381,6.2381,6.2381,6.2381,6.2381,6.2381,6.2381,6.2381,4.435,0.0,0.0,0.0,0.0,0.0,0.0,0.0,0.0,0.0,0.0,0.0,0.0,0.0,0.0,0.0,0.0,0.0,0.0,0.0,0.0,0.0,0.0,0.0,0.0,0.0,0.0,0.0,0.0,0.0,5.0744,5.1623,5.2367,5.3145,5.3382,5.3518,5.3518,5.3518,5.3551,5.3651,5.4207,5.4526,5.4652,5.5239,5.5507,5.5507,5.5507,5.5507,5.5507,5.5507,5.5507,5.5543,5.5718,5.6631,5.786,5.8457,5.9106,5.9783,6.0043,5.9946,5.9783,6.0043,5.9946,5.9718,5.9485,5.9047,5.8562,5.8419,5.8676,5.9167,5.9911,6.0689,6.1501,6.2212,6.2381,6.2381,6.2381,6.2381,6.2381,6.2381,6.2381,6.2381,6.2381,6.2381,6.2381,6.2381,6.2381,6.2381,6.2381,6.2381,6.2381,6.2381,6.2381,6.2381,6.2381,6.2381,6.2381,6.2381,6.2381,6.2381,6.2381,6.2381,6.2381,6.2381,6.2381,6.2381,6.2381,6.2381,6.2381,6.2381,6.2381,6.2381,0.0,0.0,0.0,4.2489,0.0,0.0,0.0,0.0,3.8667,0.0,0.0,0.0,0.0,0.0,3.8633,3.799,0.0,0.0,0.0,0.0,0.0,0.0,0.0,0.0,0.0,0.0,0.0,0.0,0.0,0.0,4.9864,5.0845,5.1589,5.2334,5.3078,5.3518,5.3518,5.3518,5.3651,5.398,5.4335,5.4652,5.4992,5.5359,5.5507,5.5507,5.5507,5.5507,5.5507,5.5507,5.5507,5.5578,5.628,5.7087,5.779,5.7825,5.8808,6.0107,6.0107,6.0107,6.0107,6.0107,6.0107,5.9943,5.925,5.9012,5.884,5.8135,5.8423,5.9167,5.9911,6.0689,6.1501,6.2212,6.2381,6.2381,6.2381,6.2381,6.2381,6.2381,6.2381,6.2381,6.2381,6.2381,6.2381,6.2381,6.2381,6.2381,6.2381,6.2381,6.2381,6.2381,6.2381,6.2381,6.2381,6.2381,6.2381,6.2381,6.2381,6.2381,6.2381,6.2381,6.2381,6.2381,6.2381,6.2381,6.2381,6.2381,6.2381,6.2381,6.2381,6.2381,0.0,0.0,4.9323,4.4621,0.0,0.0,0.0,0.0,0.0,0.0,0.0,0.0,0.0,0.0,3.9503,3.8734,3.8227,3.728,0.0,0.0,0.0,0.0,0.0,0.0,0.0,0.0,0.0,0.0,0.0,0.0,0.0,4.9796,5.1014,5.2266,5.3078,5.3518,5.3518,5.3991,5.416,5.398,5.4851,5.5136,5.5022,5.5359,5.5507,5.5507,5.5507,5.5507,5.5507,5.5507,5.5507,5.5578,5.6315,5.7087,5.786,5.8421,5.9229,6.0107,6.0107,6.0107,6.0107,6.0107,6.0107,6.0075,5.9781,5.9551,5.9388,5.9355,5.9754,6.0211,6.0766,6.1467,6.2076,6.2347,6.2381,6.2381,6.2381,6.2381,6.2381,6.2381,6.2381,6.2381,6.2381,6.2381,6.2381,6.2381,6.2381,6.2381,6.2381,6.2381,6.2381,6.2381,6.2381,6.2381,6.2381,6.2381,6.2381,6.2381,6.2381,6.2381,6.2381,6.2381,6.2381,6.2381,6.2381,6.2381,6.2381,6.2381,6.2381,6.2381,6.2381,6.2381,5.0067,5.0676,0.0,0.0,4.5771,0.0,4.0426,0.0,0.0,0.0,0.0,0.0,0.0,0.0,4.1035,4.029,3.9106,3.7313,0.0,0.0,0.0,0.0,0.0,0.0,0.0,0.0,3.9783,4.2117,0.0,0.0,0.0,0.0,5.027,5.1488,5.2807,5.3518,5.3518,5.4228,5.4465,5.4175,5.5124,5.5441,5.5174,5.5419,5.5507,5.5507,5.5507,5.5507,5.5507,5.5507,5.5648,5.5964,5.6736,5.7509,5.8281,5.8808,5.9475,6.0107,6.0107,6.0107,6.0107,6.0107,6.0107,6.0107,5.9978,5.9783,5.9659,6.0013,6.0526,6.0992,6.1367,6.2038,6.2576,6.242,6.2381,6.2381,6.2381,6.2381,6.2381,6.2381,6.2381,6.2381,6.2381,6.2381,6.2381,6.2381,6.2381,6.2381,6.2381,6.2381,6.2381,6.2381,6.2381,6.2381,6.2381,6.2381,6.2381,6.2381,6.2381,6.2381,6.2381,6.2381,6.2381,6.2381,6.2381,6.2381,6.2381,6.2381,6.2381,6.2381,6.2381,6.2381]}]]